[[{"header":{"parameterUnit":"m.s-1","parameterCategory":1,"la1":31.0,"la2":29.5877,"lo1":-88.7671,"lo2":-86.6584,"dy":0.0162,"dx":0.0185,"nx":115,"ny":88,"refTime":"2023-03-07T06:00:00:Z","depth":0,"parameterNumber":2,"parameterNumberName":"U-component_of_WINDS"},"data":[0.0,0.0,0.0,0.0,0.0,0.0,0.0,0.0,0.0,0.0,0.0,0.0,0.0,0.0,0.0,0.0,0.0,0.0,0.0,0.0,0.0,0.0,0.0,0.0,0.0,0.0,0.0,0.0,0.0,0.0,0.0,0.0,0.0,0.0,0.0,0.0,0.0,0.0,0.0,0.0,0.0,0.0,0.0,0.0,0.0,0.0,0.0,0.0,0.0,0.0,0.0,0.0,0.0,0.0,0.0,0.0,0.0,0.0,0.0,0.0,0.0,0.0,0.0,0.0,0.0,0.0,0.0,0.0,0.0,0.0,0.0,0.0,0.0,0.0,0.0,0.0,0.0,0.0,0.0,0.0,0.0,0.0,0.0,0.0,0.0,0.0,0.0,0.0,0.0,0.0,0.0,0.0,0.0,0.0,0.0,0.0,0.0,0.0,0.0,0.0,0.0,0.0,0.0,0.0,0.0,0.0,0.0,0.0,0.0,0.0,0.0,0.0,0.0,0.0,0.0,0.0,0.0,0.0,0.0,0.0,0.0,0.0,0.0,0.0,0.0,0.0,0.0,0.0,0.0,0.0,0.0,0.0,0.0,0.0,0.0,0.0,0.0,0.0,0.0,0.0,0.0,0.0,0.0,0.0,0.0,0.0,0.0,0.0,0.0,0.0,0.0,0.0,0.0,0.0,0.0,0.0,0.0,0.0,0.0,0.0,0.0,0.0,0.0,0.0,0.0,0.0,0.0,0.0,0.0,0.0,0.0,0.0,0.0,0.0,0.0,0.0,0.0,0.0,0.0,0.0,0.0,0.0,0.0,0.0,0.0,0.0,0.0,0.0,0.0,0.0,0.0,0.0,0.0,0.0,0.0,0.0,0.0,0.0,0.0,0.0,0.0,0.0,0.0,0.0,0.0,0.0,0.0,0.0,0.0,0.0,0.0,0.0,0.0,0.0,0.0,0.0,0.0,0.0,0.0,0.0,0.0,0.0,0.0,0.0,0.0,0.0,0.0,0.0,0.0,0.0,0.0,0.0,0.0,0.0,0.0,0.0,0.0,0.0,0.0,0.0,0.0,0.0,0.0,0.0,0.0,0.0,0.0,0.0,0.0,0.0,0.0,0.0,0.0,0.0,0.0,0.0,0.0,0.0,0.0,0.0,0.0,0.0,0.0,0.0,0.0,0.0,0.0,0.0,0.0,0.0,0.0,0.0,0.0,0.0,0.0,0.0,0.0,0.0,0.0,0.0,0.0,0.0,0.0,0.0,0.0,0.0,0.0,0.0,0.0,0.0,0.0,0.0,0.0,0.0,0.0,0.0,0.0,0.0,0.0,0.0,0.0,0.0,0.0,0.0,0.0,0.0,0.0,0.0,0.0,0.0,0.0,0.0,0.0,0.0,0.0,0.0,0.0,0.0,0.0,0.0,0.0,0.0,0.0,0.0,0.0,0.0,0.0,0.0,0.0,0.0,0.0,0.0,0.0,0.0,0.0,0.0,0.0,0.0,0.0,0.0,0.0,0.0,0.0,0.0,0.0,0.0,0.0,0.0,0.0,0.0,0.0,0.0,0.0,0.0,0.0,0.0,0.0,0.0,0.0,0.0,0.0,0.0,0.0,0.0,0.0,0.0,0.0,0.0,0.0,0.0,0.0,0.0,0.0,0.0,0.0,0.0,0.0,0.0,0.0,0.0,0.0,0.0,0.0,0.0,0.0,0.0,0.0,0.0,0.0,0.0,0.0,0.0,0.0,0.0,0.0,0.0,0.0,0.0,0.0,0.0,0.0,0.0,0.0,0.0,0.0,0.0,0.0,0.0,0.0,0.0,0.0,0.0,0.0,0.0,0.0,0.0,0.0,0.0,0.0,0.0,0.0,0.0,0.0,0.0,0.0,0.0,0.0,0.0,0.0,0.0,0.0,0.0,0.0,0.0,0.0,0.0,0.0,0.0,0.0,0.0,0.0,0.0,0.0,0.0,0.0,0.0,0.0,0.0,0.0,0.0,0.0,0.0,0.0,0.0,0.0,0.0,0.0,0.0,0.0,0.0,0.0,0.0,0.0,0.0,0.0,0.0,0.0,0.0,0.0,0.0,0.0,0.0,0.0,0.0,0.0,0.0,0.0,0.0,0.0,0.0,0.0,0.0,0.0,0.0,0.0,0.0,0.0,0.0,0.0,0.0,0.0,0.0,0.0,0.0,0.0,0.0,0.0,0.0,0.0,0.0,0.0,0.0,0.0,0.0,0.0,0.0,0.0,0.0,0.0,0.0,0.0,0.0,0.0,0.0,0.0,0.0,0.0,0.0,0.0,0.0,0.0,0.0,0.0,0.0,0.0,0.0,0.0,0.0,0.0,0.0,0.0,0.0,0.0,0.0,0.0,0.0,0.0,0.0,0.0,0.0,0.0,0.0,0.0,0.0,0.0,0.0,0.0,0.0,0.0,0.0,0.0,0.0,0.0,0.0,0.0,0.0,0.0,0.0,0.0,0.0,0.0,0.0,0.0,0.0,0.0,0.0,0.0,0.0,0.0,0.0,0.0,0.0,0.0,0.0,0.0,0.0,0.0,0.0,0.0,0.0,0.0,0.0,0.0,0.0,0.0,0.0,0.0,0.0,0.0,0.0,0.0,0.0,0.0,0.0,0.0,0.0,0.0,0.0,0.0,0.0,0.0,0.0,0.0,0.0,0.0,0.0,0.0,0.0,0.0,0.0,0.0,0.0,0.0,0.0,0.0,0.0,0.0,0.0,0.0,0.0,0.0,0.0,0.0,0.0,0.0,0.0,0.0,0.0,0.0,0.0,0.0,0.0,0.0,0.0,0.0,0.0,0.0,0.0,0.0,0.0,0.0,0.0,0.0,0.0,0.0,0.0,0.0,0.0,0.0,0.0,0.0,0.0,0.0,0.0,0.0,0.0,0.0,0.0,0.0,0.0,0.0,0.0,0.0,0.0,0.0,0.0,0.0,0.0,0.0,0.0,0.0,0.0,0.0,0.0,0.0,0.0,0.0,0.0,0.0,0.0,0.0,0.0,0.0,0.0,0.0,0.0,0.0,0.0,0.0,0.0,0.0,0.0,0.0,0.0,0.0,0.0,0.0,0.0,0.0,0.0,0.0,0.0,0.0,0.0,0.0,0.0,0.0,0.0,0.0,0.0,0.0,0.0,0.0,0.0,0.0,0.0,0.0,0.0,0.0,0.0,0.0,0.0,0.0,0.0,0.0,0.0,0.0,0.0,0.0,0.0,0.0,0.0,0.0,0.0,0.0,0.0,0.0,0.0,0.0,0.0,0.0,0.0,0.0,0.0,0.0,0.0,0.0,0.0,0.0,0.0,0.0,0.0,0.0,0.0,0.0,0.0,0.0,0.0,0.0,0.0,0.0,0.0,0.0,0.0,0.0,0.0,0.0,0.0,0.0,0.0,0.0,0.0,0.0,0.0,0.0,0.0,0.0,0.0,0.0,0.0,0.0,0.0,0.0,0.0,0.0,0.0,0.0,0.0,0.0,0.0,0.0,0.0,0.0,0.0,0.0,0.0,0.0,0.0,0.0,0.0,0.0,0.0,0.0,0.0,0.0,0.0,0.0,0.0,0.0,0.0,0.0,0.0,0.0,0.0,0.0,0.0,0.0,0.0,0.0,0.0,0.0,0.0,0.0,0.0,0.0,0.0,0.0,0.0,0.0,0.0,0.0,0.0,0.0,0.0,0.0,0.0,0.0,0.0,0.0,0.0,0.0,0.0,0.0,0.0,0.0,0.0,0.0,0.0,0.0,0.0,0.0,0.0,0.0,0.0,0.0,0.0,0.0,0.0,0.0,0.0,0.0,0.0,0.0,0.0,0.0,0.0,0.0,0.0,0.0,0.0,0.0,0.0,0.0,0.0,0.0,0.0,0.0,0.0,0.0,0.0,0.0,0.0,0.0,0.0,0.0,0.0,0.0,0.0,0.0,0.0,0.0,0.0,0.0,0.0,0.0,0.0,0.0,0.0,0.0,0.0,0.0,0.0,0.0,0.0,0.0,0.0,0.0,0.0,0.0,0.0,0.0,0.0,0.0,0.0,0.0,0.0,0.0,0.0,0.0,0.0,0.0,0.0,0.0,0.0,0.0,0.0,0.0,0.0,0.0,0.0,0.0,0.0,0.0,0.0,0.0,0.0,0.0,0.0,0.0,0.0,0.0,0.0,0.0,0.0,0.0,0.0,0.0,0.0,0.0,0.0,0.0,0.0,0.0,0.0,0.0,0.0,0.0,0.0,0.0,0.0,0.0,0.0,0.0,0.0,0.0,0.0,-3.0333,0.0,0.0,0.0,0.0,0.0,0.0,0.0,0.0,0.0,0.0,0.0,0.0,0.0,0.0,0.0,0.0,0.0,0.0,0.0,0.0,0.0,0.0,0.0,0.0,0.0,0.0,0.0,0.0,0.0,0.0,0.0,0.0,0.0,0.0,0.0,0.0,0.0,0.0,0.0,0.0,0.0,0.0,0.0,0.0,0.0,0.0,0.0,0.0,0.0,0.0,0.0,0.0,0.0,0.0,0.0,0.0,0.0,0.0,0.0,0.0,0.0,0.0,0.0,0.0,0.0,0.0,0.0,0.0,0.0,0.0,0.0,0.0,0.0,0.0,0.0,0.0,0.0,0.0,0.0,0.0,0.0,0.0,0.0,0.0,0.0,0.0,0.0,0.0,0.0,0.0,0.0,0.0,0.0,0.0,0.0,0.0,0.0,0.0,0.0,0.0,0.0,0.0,0.0,0.0,0.0,0.0,0.0,0.0,0.0,0.0,-2.7392,-2.8184,-2.9035,-2.9667,-3.0036,0.0,0.0,0.0,0.0,0.0,0.0,0.0,0.0,0.0,0.0,0.0,0.0,0.0,0.0,0.0,0.0,0.0,0.0,0.0,0.0,0.0,0.0,0.0,0.0,0.0,0.0,0.0,0.0,0.0,0.0,0.0,0.0,0.0,0.0,0.0,0.0,0.0,0.0,0.0,0.0,0.0,0.0,0.0,0.0,0.0,0.0,0.0,0.0,0.0,0.0,0.0,0.0,0.0,0.0,0.0,0.0,0.0,0.0,0.0,0.0,0.0,0.0,0.0,0.0,0.0,0.0,0.0,0.0,0.0,0.0,0.0,0.0,0.0,0.0,0.0,0.0,0.0,0.0,0.0,0.0,0.0,0.0,0.0,0.0,0.0,0.0,0.0,0.0,0.0,0.0,0.0,0.0,0.0,0.0,0.0,0.0,0.0,0.0,0.0,0.0,0.0,0.0,0.0,0.0,0.0,0.0,0.0,0.0,0.0,0.0,0.0,0.0,-2.8581,-2.9015,-2.9221,0.0,0.0,0.0,0.0,0.0,0.0,0.0,0.0,0.0,0.0,0.0,0.0,0.0,0.0,0.0,0.0,0.0,0.0,0.0,0.0,0.0,0.0,0.0,0.0,0.0,0.0,0.0,0.0,0.0,0.0,0.0,0.0,0.0,0.0,0.0,0.0,0.0,0.0,0.0,0.0,0.0,0.0,0.0,0.0,0.0,0.0,0.0,0.0,0.0,0.0,0.0,0.0,0.0,0.0,0.0,0.0,0.0,0.0,0.0,0.0,0.0,0.0,0.0,0.0,0.0,0.0,0.0,0.0,0.0,0.0,0.0,0.0,0.0,0.0,0.0,0.0,0.0,0.0,0.0,0.0,0.0,0.0,0.0,0.0,0.0,0.0,0.0,0.0,0.0,0.0,0.0,0.0,0.0,0.0,0.0,0.0,0.0,0.0,0.0,0.0,0.0,0.0,0.0,0.0,0.0,0.0,0.0,0.0,0.0,0.0,-2.6226,-2.7072,-2.7199,0.0,-2.8232,0.0,0.0,0.0,0.0,0.0,0.0,0.0,0.0,0.0,0.0,0.0,0.0,0.0,0.0,0.0,0.0,0.0,0.0,0.0,0.0,0.0,0.0,0.0,0.0,0.0,0.0,0.0,0.0,0.0,0.0,0.0,0.0,0.0,0.0,0.0,0.0,0.0,0.0,0.0,0.0,0.0,0.0,0.0,0.0,0.0,0.0,0.0,0.0,0.0,0.0,0.0,0.0,0.0,0.0,0.0,0.0,0.0,0.0,0.0,0.0,0.0,0.0,0.0,0.0,0.0,0.0,0.0,0.0,0.0,0.0,0.0,0.0,0.0,0.0,0.0,0.0,0.0,0.0,0.0,0.0,0.0,0.0,0.0,0.0,0.0,0.0,0.0,0.0,0.0,0.0,0.0,0.0,0.0,0.0,0.0,0.0,0.0,0.0,0.0,0.0,0.0,0.0,0.0,0.0,0.0,0.0,0.0,0.0,0.0,0.0,-2.5868,-2.6208,-2.6736,-2.7396,0.0,0.0,0.0,0.0,0.0,0.0,0.0,0.0,0.0,0.0,0.0,0.0,0.0,0.0,0.0,0.0,0.0,0.0,0.0,0.0,0.0,0.0,0.0,0.0,0.0,0.0,0.0,0.0,0.0,0.0,0.0,0.0,0.0,0.0,0.0,0.0,0.0,0.0,0.0,0.0,0.0,0.0,0.0,0.0,0.0,0.0,0.0,0.0,0.0,0.0,0.0,0.0,0.0,0.0,0.0,0.0,0.0,0.0,0.0,0.0,0.0,0.0,0.0,0.0,0.0,0.0,0.0,0.0,0.0,0.0,0.0,0.0,0.0,0.0,0.0,0.0,0.0,0.0,0.0,0.0,0.0,0.0,0.0,0.0,0.0,0.0,0.0,0.0,0.0,0.0,0.0,0.0,0.0,0.0,0.0,0.0,0.0,0.0,0.0,0.0,0.0,0.0,0.0,0.0,0.0,0.0,0.0,0.0,0.0,0.0,-2.6288,-2.6421,-2.6447,-2.7014,-2.75,-2.7829,0.0,0.0,0.0,0.0,0.0,0.0,0.0,0.0,0.0,0.0,0.0,0.0,0.0,0.0,0.0,0.0,0.0,0.0,0.0,0.0,0.0,0.0,0.0,0.0,0.0,0.0,0.0,0.0,0.0,0.0,0.0,0.0,0.0,0.0,0.0,0.0,0.0,0.0,0.0,0.0,0.0,0.0,0.0,0.0,0.0,0.0,0.0,0.0,0.0,0.0,0.0,0.0,0.0,0.0,0.0,0.0,0.0,0.0,0.0,0.0,0.0,0.0,0.0,0.0,0.0,0.0,0.0,0.0,0.0,0.0,0.0,0.0,0.0,0.0,0.0,0.0,0.0,0.0,0.0,0.0,0.0,0.0,0.0,0.0,0.0,0.0,0.0,0.0,0.0,0.0,0.0,0.0,0.0,0.0,0.0,0.0,0.0,0.0,0.0,0.0,0.0,0.0,0.0,0.0,0.0,0.0,0.0,0.0,-2.6968,-2.7754,-2.8161,-2.814,-2.8208,-2.7842,0.0,0.0,0.0,0.0,0.0,0.0,0.0,0.0,0.0,0.0,0.0,0.0,0.0,0.0,0.0,0.0,0.0,0.0,0.0,0.0,0.0,0.0,0.0,0.0,0.0,0.0,0.0,0.0,0.0,0.0,0.0,0.0,0.0,0.0,0.0,0.0,0.0,0.0,0.0,0.0,0.0,0.0,0.0,0.0,0.0,0.0,0.0,0.0,0.0,0.0,0.0,0.0,0.0,0.0,0.0,0.0,0.0,0.0,0.0,0.0,0.0,0.0,0.0,0.0,0.0,0.0,0.0,0.0,0.0,0.0,0.0,0.0,0.0,0.0,0.0,0.0,0.0,0.0,0.0,0.0,0.0,0.0,0.0,0.0,0.0,0.0,0.0,0.0,0.0,0.0,0.0,0.0,0.0,0.0,0.0,0.0,0.0,0.0,0.0,0.0,0.0,0.0,0.0,0.0,0.0,0.0,0.0,0.0,0.0,-2.7859,-2.8144,-2.8297,-2.8296,-2.8286,-2.8117,0.0,0.0,0.0,0.0,0.0,0.0,0.0,0.0,0.0,0.0,0.0,0.0,0.0,0.0,0.0,0.0,0.0,0.0,0.0,0.0,0.0,0.0,0.0,0.0,0.0,0.0,0.0,0.0,0.0,0.0,0.0,0.0,0.0,0.0,0.0,0.0,0.0,0.0,0.0,0.0,0.0,0.0,0.0,0.0,0.0,0.0,0.0,0.0,0.0,0.0,0.0,0.0,0.0,0.0,0.0,0.0,0.0,0.0,0.0,0.0,0.0,0.0,0.0,0.0,0.0,0.0,0.0,0.0,0.0,0.0,0.0,0.0,0.0,0.0,0.0,0.0,0.0,0.0,0.0,0.0,0.0,0.0,0.0,0.0,0.0,0.0,0.0,0.0,0.0,0.0,0.0,0.0,0.0,0.0,0.0,0.0,0.0,0.0,0.0,0.0,0.0,0.0,0.0,0.0,0.0,0.0,0.0,0.0,0.0,-2.9494,0.0,-2.9647,-2.9926,-2.9661,-2.939,0.0,0.0,0.0,0.0,0.0,0.0,0.0,0.0,0.0,0.0,0.0,0.0,0.0,0.0,0.0,0.0,0.0,0.0,0.0,0.0,0.0,0.0,0.0,0.0,0.0,0.0,0.0,0.0,0.0,0.0,0.0,0.0,0.0,0.0,0.0,0.0,0.0,0.0,0.0,0.0,0.0,0.0,0.0,0.0,0.0,0.0,0.0,0.0,0.0,0.0,0.0,0.0,0.0,0.0,0.0,0.0,0.0,0.0,0.0,0.0,0.0,0.0,0.0,0.0,0.0,0.0,0.0,0.0,0.0,0.0,0.0,0.0,0.0,0.0,0.0,0.0,0.0,0.0,0.0,0.0,0.0,0.0,0.0,0.0,0.0,0.0,0.0,0.0,0.0,0.0,0.0,0.0,0.0,0.0,0.0,0.0,0.0,0.0,0.0,0.0,0.0,0.0,0.0,0.0,0.0,0.0,0.0,0.0,-3.0338,-3.1971,-3.2043,-3.2382,-3.3317,-3.2426,-3.1627,0.0,0.0,0.0,0.0,0.0,0.0,0.0,0.0,0.0,0.0,0.0,0.0,0.0,0.0,0.0,0.0,0.0,0.0,0.0,0.0,0.0,0.0,0.0,0.0,0.0,0.0,0.0,0.0,0.0,0.0,0.0,0.0,0.0,0.0,0.0,0.0,0.0,0.0,0.0,0.0,0.0,0.0,0.0,0.0,0.0,0.0,0.0,0.0,0.0,0.0,0.0,0.0,0.0,0.0,0.0,0.0,0.0,0.0,0.0,0.0,0.0,0.0,0.0,0.0,0.0,0.0,0.0,0.0,0.0,0.0,0.0,0.0,0.0,0.0,0.0,0.0,0.0,0.0,0.0,0.0,0.0,0.0,0.0,0.0,0.0,0.0,0.0,0.0,0.0,0.0,0.0,0.0,0.0,0.0,0.0,0.0,0.0,0.0,0.0,0.0,0.0,0.0,0.0,0.0,0.0,0.0,0.0,0.0,0.0,-3.2093,-3.2698,-3.3121,-3.3359,-3.2552,-3.197,0.0,0.0,0.0,0.0,0.0,0.0,0.0,0.0,0.0,0.0,0.0,0.0,0.0,0.0,0.0,0.0,0.0,0.0,0.0,0.0,0.0,0.0,0.0,0.0,0.0,0.0,0.0,0.0,0.0,0.0,0.0,0.0,0.0,0.0,0.0,0.0,0.0,0.0,0.0,0.0,0.0,0.0,0.0,0.0,0.0,0.0,0.0,0.0,0.0,0.0,0.0,0.0,0.0,0.0,0.0,0.0,0.0,0.0,0.0,0.0,0.0,0.0,0.0,0.0,0.0,0.0,0.0,0.0,0.0,0.0,0.0,0.0,0.0,0.0,0.0,0.0,0.0,0.0,0.0,0.0,0.0,0.0,0.0,0.0,0.0,0.0,0.0,0.0,0.0,0.0,0.0,0.0,0.0,0.0,0.0,0.0,0.0,0.0,0.0,0.0,0.0,0.0,0.0,0.0,0.0,0.0,0.0,0.0,0.0,-3.3516,-3.4072,-3.4519,-3.4841,-3.4023,-3.3252,-3.2572,0.0,0.0,0.0,0.0,0.0,0.0,0.0,0.0,0.0,0.0,0.0,0.0,0.0,0.0,0.0,0.0,0.0,0.0,0.0,0.0,0.0,0.0,0.0,0.0,0.0,0.0,0.0,0.0,0.0,0.0,0.0,0.0,0.0,0.0,0.0,0.0,0.0,0.0,0.0,0.0,0.0,0.0,0.0,0.0,0.0,0.0,0.0,0.0,0.0,0.0,0.0,0.0,0.0,0.0,0.0,0.0,0.0,0.0,0.0,0.0,0.0,0.0,0.0,0.0,0.0,0.0,0.0,0.0,0.0,0.0,0.0,0.0,0.0,0.0,0.0,0.0,0.0,0.0,0.0,0.0,0.0,0.0,0.0,0.0,0.0,0.0,0.0,0.0,0.0,0.0,0.0,0.0,0.0,0.0,0.0,0.0,0.0,0.0,0.0,0.0,0.0,0.0,0.0,0.0,0.0,0.0,0.0,0.0,-3.6025,-3.6142,-3.6575,-3.7291,-3.6444,-3.5194,0.0,0.0,0.0,0.0,0.0,0.0,0.0,0.0,0.0,0.0,0.0,0.0,0.0,0.0,0.0,0.0,0.0,0.0,0.0,0.0,0.0,0.0,0.0,0.0,0.0,0.0,0.0,0.0,0.0,0.0,0.0,0.0,0.0,0.0,0.0,0.0,0.0,0.0,0.0,0.0,0.0,0.0,0.0,0.0,0.0,0.0,0.0,0.0,0.0,0.0,0.0,0.0,0.0,0.0,0.0,0.0,0.0,0.0,0.0,0.0,0.0,0.0,0.0,0.0,0.0,0.0,0.0,0.0,0.0,0.0,0.0,0.0,0.0,0.0,0.0,0.0,0.0,0.0,0.0,0.0,0.0,0.0,0.0,0.0,0.0,0.0,0.0,0.0,0.0,0.0,0.0,0.0,0.0,0.0,0.0,0.0,0.0,0.0,0.0,0.0,0.0,0.0,0.0,0.0,0.0,0.0,0.0,0.0,0.0,-3.7744,-3.8461,-3.8604,-3.8174,-3.6767,-3.5487,0.0,0.0,0.0,0.0,0.0,0.0,0.0,0.0,0.0,0.0,0.0,0.0,0.0,0.0,0.0,0.0,0.0,0.0,0.0,0.0,0.0,0.0,0.0,0.0,0.0,0.0,0.0,0.0,0.0,0.0,0.0,0.0,0.0,0.0,0.0,0.0,0.0,0.0,0.0,0.0,0.0,0.0,0.0,0.0,0.0,0.0,0.0,0.0,0.0,0.0,0.0,0.0,0.0,0.0,0.0,0.0,0.0,0.0,0.0,0.0,0.0,0.0,0.0,0.0,0.0,0.0,0.0,0.0,0.0,0.0,0.0,0.0,0.0,0.0,0.0,0.0,0.0,0.0,0.0,0.0,0.0,0.0,0.0,0.0,0.0,0.0,0.0,0.0,0.0,0.0,0.0,0.0,0.0,0.0,0.0,0.0,0.0,0.0,0.0,0.0,0.0,0.0,0.0,0.0,0.0,0.0,0.0,0.0,-3.619,-3.8415,-3.9676,-4.0054,-3.9568,-3.7921,-3.6302,0.0,0.0,0.0,0.0,0.0,0.0,0.0,0.0,0.0,0.0,0.0,0.0,0.0,0.0,0.0,0.0,0.0,0.0,0.0,0.0,0.0,0.0,0.0,0.0,0.0,0.0,0.0,0.0,0.0,0.0,0.0,0.0,0.0,0.0,0.0,0.0,0.0,0.0,0.0,0.0,0.0,0.0,0.0,0.0,0.0,0.0,0.0,0.0,0.0,0.0,0.0,0.0,0.0,0.0,0.0,0.0,0.0,0.0,0.0,0.0,0.0,0.0,0.0,0.0,0.0,0.0,0.0,0.0,0.0,0.0,0.0,0.0,0.0,0.0,0.0,0.0,0.0,0.0,0.0,0.0,0.0,0.0,0.0,0.0,0.0,0.0,0.0,0.0,0.0,0.0,0.0,0.0,0.0,0.0,0.0,0.0,0.0,0.0,0.0,0.0,0.0,0.0,0.0,0.0,0.0,0.0,0.0,0.0,-3.6817,-3.8637,-4.0182,-4.1029,-4.1088,-3.9423,-3.7404,0.0,0.0,0.0,0.0,0.0,0.0,0.0,0.0,0.0,0.0,0.0,0.0,0.0,0.0,0.0,0.0,0.0,0.0,0.0,0.0,0.0,0.0,0.0,0.0,0.0,0.0,0.0,0.0,0.0,0.0,0.0,0.0,0.0,0.0,0.0,0.0,0.0,0.0,0.0,0.0,0.0,0.0,0.0,0.0,0.0,0.0,0.0,0.0,0.0,0.0,0.0,0.0,0.0,0.0,0.0,0.0,0.0,0.0,0.0,0.0,0.0,0.0,0.0,0.0,0.0,0.0,0.0,0.0,0.0,0.0,0.0,0.0,0.0,0.0,0.0,0.0,0.0,0.0,0.0,0.0,0.0,0.0,0.0,0.0,0.0,0.0,0.0,0.0,0.0,0.0,0.0,0.0,0.0,0.0,0.0,0.0,0.0,0.0,0.0,0.0,0.0,0.0,0.0,0.0,0.0,0.0,0.0,0.0,-3.7899,-4.0227,-4.0712,-4.1268,-4.1999,-3.9743,-3.7943,0.0,0.0,0.0,0.0,0.0,0.0,0.0,0.0,0.0,0.0,0.0,0.0,0.0,0.0,0.0,0.0,0.0,0.0,0.0,0.0,0.0,0.0,0.0,0.0,0.0,0.0,0.0,0.0,0.0,0.0,0.0,0.0,0.0,0.0,0.0,0.0,0.0,0.0,0.0,0.0,0.0,0.0,0.0,0.0,0.0,0.0,0.0,0.0,-2.9139,0.0,0.0,0.0,0.0,0.0,0.0,0.0,0.0,0.0,0.0,0.0,0.0,0.0,0.0,0.0,0.0,0.0,0.0,0.0,0.0,0.0,0.0,0.0,0.0,0.0,0.0,0.0,0.0,0.0,0.0,0.0,0.0,0.0,0.0,0.0,0.0,0.0,0.0,0.0,0.0,0.0,0.0,0.0,0.0,0.0,0.0,0.0,0.0,0.0,0.0,0.0,0.0,0.0,0.0,0.0,0.0,0.0,0.0,0.0,-3.8147,-4.0597,-4.0804,-4.1281,-4.2066,-3.977,-3.8088,0.0,0.0,0.0,0.0,0.0,0.0,0.0,0.0,0.0,0.0,0.0,0.0,0.0,0.0,0.0,0.0,0.0,0.0,0.0,0.0,0.0,0.0,0.0,0.0,0.0,0.0,0.0,0.0,0.0,0.0,0.0,0.0,0.0,0.0,0.0,0.0,0.0,0.0,0.0,0.0,0.0,0.0,0.0,0.0,0.0,0.0,0.0,0.0,0.0,0.0,0.0,0.0,0.0,0.0,0.0,0.0,0.0,0.0,0.0,0.0,0.0,0.0,0.0,0.0,0.0,0.0,0.0,0.0,0.0,0.0,0.0,0.0,0.0,0.0,0.0,0.0,0.0,0.0,0.0,0.0,0.0,0.0,0.0,0.0,0.0,0.0,0.0,0.0,0.0,0.0,0.0,0.0,0.0,0.0,0.0,0.0,0.0,0.0,0.0,0.0,0.0,0.0,0.0,0.0,0.0,0.0,0.0,-3.6074,-3.8272,-4.0836,-4.0855,-4.1261,-4.22,-3.9749,-3.8014,-3.7171,0.0,0.0,0.0,0.0,0.0,0.0,0.0,0.0,0.0,0.0,0.0,0.0,0.0,0.0,0.0,0.0,0.0,0.0,0.0,0.0,0.0,0.0,0.0,0.0,0.0,0.0,0.0,0.0,0.0,0.0,0.0,0.0,0.0,0.0,0.0,0.0,0.0,0.0,-2.8537,-2.9711,0.0,0.0,0.0,0.0,0.0,0.0,0.0,0.0,-3.0874,0.0,0.0,0.0,0.0,0.0,0.0,0.0,0.0,0.0,0.0,0.0,0.0,0.0,0.0,0.0,0.0,0.0,0.0,0.0,0.0,0.0,0.0,0.0,0.0,0.0,0.0,0.0,0.0,0.0,0.0,0.0,0.0,0.0,0.0,0.0,0.0,0.0,0.0,0.0,0.0,0.0,0.0,0.0,0.0,0.0,0.0,0.0,0.0,0.0,0.0,0.0,0.0,0.0,0.0,0.0,0.0,-3.51,-3.6841,-3.9327,-4.256,-4.1333,-4.1422,-4.2911,-3.9999,-3.7944,-3.7081,0.0,0.0,0.0,0.0,0.0,0.0,0.0,0.0,0.0,0.0,0.0,0.0,0.0,0.0,0.0,0.0,0.0,0.0,0.0,0.0,0.0,0.0,0.0,0.0,0.0,0.0,0.0,0.0,0.0,0.0,0.0,0.0,0.0,0.0,0.0,0.0,0.0,0.0,0.0,-3.1424,-3.1795,0.0,0.0,0.0,0.0,0.0,0.0,0.0,0.0,-3.2075,0.0,0.0,0.0,0.0,0.0,0.0,0.0,0.0,0.0,0.0,0.0,0.0,0.0,0.0,0.0,0.0,0.0,0.0,0.0,0.0,0.0,0.0,0.0,0.0,0.0,0.0,0.0,0.0,0.0,0.0,0.0,0.0,0.0,0.0,0.0,0.0,0.0,0.0,0.0,0.0,0.0,0.0,0.0,0.0,0.0,0.0,0.0,0.0,0.0,0.0,0.0,0.0,0.0,0.0,0.0,-3.5878,-3.763,-3.9972,-4.2837,-4.1824,-4.1858,-4.3064,-3.9981,-3.7885,0.0,0.0,0.0,0.0,0.0,0.0,0.0,0.0,0.0,0.0,0.0,0.0,0.0,0.0,0.0,0.0,0.0,0.0,0.0,0.0,0.0,0.0,0.0,0.0,0.0,0.0,0.0,0.0,0.0,0.0,0.0,0.0,0.0,0.0,0.0,0.0,0.0,0.0,0.0,0.0,-3.191,-3.2193,-3.3001,0.0,0.0,0.0,0.0,0.0,0.0,-3.3192,-3.2756,0.0,0.0,0.0,0.0,0.0,0.0,0.0,0.0,0.0,0.0,0.0,0.0,0.0,0.0,0.0,0.0,0.0,0.0,0.0,0.0,0.0,0.0,0.0,0.0,0.0,0.0,0.0,0.0,0.0,0.0,0.0,0.0,0.0,0.0,0.0,0.0,0.0,0.0,0.0,0.0,0.0,0.0,0.0,0.0,0.0,0.0,0.0,0.0,0.0,0.0,0.0,0.0,0.0,0.0,0.0,-3.6445,-3.835,-4.047,-4.2709,-4.2138,-4.2181,-4.2981,-3.9889,-3.7741,0.0,0.0,0.0,0.0,0.0,0.0,0.0,0.0,0.0,0.0,0.0,0.0,0.0,0.0,0.0,0.0,0.0,0.0,0.0,0.0,0.0,0.0,0.0,0.0,0.0,0.0,0.0,0.0,0.0,0.0,0.0,0.0,0.0,0.0,0.0,0.0,0.0,0.0,0.0,0.0,0.0,-3.2632,-3.36,-3.3552,0.0,0.0,0.0,0.0,-3.4458,-3.3994,0.0,0.0,0.0,0.0,0.0,0.0,0.0,0.0,0.0,0.0,0.0,0.0,0.0,0.0,0.0,0.0,0.0,0.0,0.0,0.0,0.0,0.0,0.0,0.0,0.0,0.0,0.0,0.0,0.0,0.0,0.0,0.0,0.0,0.0,0.0,0.0,0.0,0.0,0.0,0.0,0.0,0.0,0.0,0.0,0.0,0.0,0.0,0.0,0.0,0.0,0.0,0.0,0.0,0.0,0.0,0.0,-3.642,-3.8813,-4.0969,-4.2671,-4.2039,-4.2073,-4.294,-3.9772,-3.7302,0.0,0.0,0.0,0.0,0.0,0.0,0.0,0.0,0.0,0.0,0.0,0.0,0.0,0.0,0.0,0.0,0.0,0.0,0.0,0.0,0.0,0.0,0.0,0.0,0.0,0.0,0.0,0.0,0.0,0.0,0.0,0.0,0.0,0.0,0.0,0.0,0.0,0.0,0.0,0.0,0.0,-3.3805,-3.536,-3.4931,-3.4675,0.0,0.0,-3.4656,-3.5482,-3.5503,0.0,0.0,0.0,0.0,0.0,0.0,0.0,0.0,0.0,0.0,0.0,0.0,0.0,0.0,0.0,0.0,0.0,0.0,0.0,0.0,0.0,0.0,0.0,0.0,0.0,0.0,0.0,0.0,0.0,0.0,0.0,0.0,0.0,0.0,0.0,0.0,0.0,0.0,0.0,0.0,0.0,0.0,0.0,0.0,0.0,0.0,0.0,0.0,0.0,0.0,0.0,0.0,0.0,0.0,0.0,-3.5101,-3.7719,-3.9814,-4.1703,-4.3347,-4.3158,-4.3005,-4.2942,-4.0177,-3.7691,0.0,0.0,0.0,0.0,0.0,0.0,0.0,0.0,0.0,0.0,0.0,0.0,0.0,0.0,0.0,0.0,0.0,0.0,0.0,0.0,0.0,0.0,0.0,0.0,0.0,0.0,0.0,0.0,0.0,0.0,0.0,0.0,0.0,0.0,0.0,0.0,0.0,0.0,0.0,0.0,0.0,0.0,-3.5659,-3.5586,0.0,0.0,0.0,-3.6153,-3.654,0.0,0.0,0.0,0.0,0.0,0.0,0.0,0.0,0.0,0.0,0.0,0.0,0.0,0.0,0.0,0.0,0.0,0.0,0.0,0.0,0.0,0.0,0.0,0.0,0.0,0.0,0.0,0.0,0.0,0.0,0.0,0.0,0.0,0.0,0.0,0.0,0.0,0.0,0.0,0.0,0.0,0.0,0.0,0.0,0.0,0.0,0.0,0.0,0.0,0.0,0.0,0.0,0.0,0.0,0.0,0.0,0.0,-3.8726,-4.0699,-4.2425,-4.3846,-4.3997,-4.379,-4.3187,-4.0775,0.0,0.0,0.0,0.0,0.0,0.0,0.0,0.0,0.0,0.0,0.0,0.0,0.0,0.0,0.0,0.0,0.0,0.0,0.0,0.0,0.0,0.0,0.0,0.0,0.0,0.0,0.0,-2.8519,0.0,0.0,0.0,0.0,0.0,0.0,0.0,0.0,0.0,0.0,0.0,0.0,0.0,0.0,-3.4315,-3.5996,-3.605,-3.6001,0.0,0.0,-3.7115,-3.6939,-3.7065,-3.6601,0.0,0.0,0.0,0.0,0.0,0.0,0.0,0.0,0.0,0.0,0.0,0.0,0.0,0.0,0.0,0.0,0.0,0.0,0.0,0.0,0.0,0.0,0.0,0.0,0.0,0.0,0.0,0.0,0.0,0.0,0.0,0.0,0.0,0.0,0.0,0.0,0.0,0.0,0.0,0.0,0.0,0.0,0.0,0.0,0.0,0.0,0.0,0.0,0.0,0.0,0.0,0.0,0.0,0.0,0.0,-3.8681,-4.1216,-4.2965,-4.3884,-4.3975,-4.3999,-4.3982,-4.1541,-3.9459,0.0,0.0,0.0,0.0,0.0,0.0,0.0,0.0,0.0,0.0,0.0,0.0,0.0,0.0,0.0,0.0,0.0,0.0,0.0,0.0,0.0,0.0,0.0,0.0,0.0,0.0,0.0,0.0,0.0,0.0,0.0,0.0,0.0,0.0,0.0,0.0,0.0,0.0,0.0,0.0,0.0,-3.5141,-3.6875,-3.6479,-3.6269,0.0,0.0,-3.6947,-3.6205,-3.6712,-3.661,-3.4898,0.0,0.0,0.0,0.0,0.0,0.0,0.0,0.0,0.0,0.0,0.0,0.0,0.0,0.0,0.0,0.0,0.0,0.0,0.0,0.0,0.0,0.0,0.0,0.0,0.0,0.0,0.0,0.0,0.0,0.0,0.0,0.0,0.0,0.0,0.0,0.0,0.0,0.0,0.0,0.0,0.0,0.0,0.0,0.0,0.0,0.0,0.0,0.0,0.0,0.0,0.0,0.0,0.0,-3.6321,-3.9402,-4.1442,-4.3182,-4.4554,-4.4715,-4.4501,-4.4056,-4.2126,-4.0316,0.0,0.0,0.0,0.0,0.0,0.0,0.0,0.0,0.0,0.0,0.0,0.0,0.0,0.0,0.0,0.0,0.0,0.0,0.0,0.0,0.0,0.0,0.0,0.0,0.0,0.0,0.0,0.0,-3.2246,-3.3055,-3.2955,0.0,0.0,0.0,0.0,0.0,0.0,0.0,0.0,0.0,0.0,-3.5766,-3.6974,-3.691,0.0,0.0,-3.7196,-3.7102,-3.6789,-3.6986,-3.6618,-3.4941,-3.3923,0.0,0.0,0.0,0.0,0.0,0.0,0.0,0.0,0.0,0.0,0.0,0.0,0.0,0.0,0.0,0.0,0.0,0.0,0.0,0.0,0.0,0.0,0.0,0.0,0.0,0.0,0.0,0.0,0.0,0.0,0.0,0.0,0.0,0.0,0.0,0.0,0.0,0.0,0.0,0.0,0.0,0.0,0.0,0.0,0.0,0.0,0.0,0.0,0.0,0.0,0.0,0.0,-3.6577,-3.978,-4.1767,-4.3634,-4.5422,-4.554,-4.529,-4.4713,-4.3168,-4.1504,0.0,0.0,0.0,0.0,0.0,0.0,0.0,0.0,0.0,0.0,0.0,0.0,0.0,0.0,0.0,0.0,0.0,0.0,0.0,0.0,0.0,0.0,0.0,0.0,0.0,0.0,0.0,0.0,-3.3309,-3.364,-3.2622,0.0,0.0,0.0,0.0,0.0,0.0,0.0,0.0,0.0,0.0,-3.6102,-3.6961,-3.691,-3.6884,-3.7147,-3.7171,-3.7095,-3.6842,-3.7004,-3.6604,-3.494,0.0,0.0,0.0,0.0,0.0,0.0,0.0,0.0,0.0,0.0,0.0,0.0,0.0,0.0,0.0,0.0,0.0,0.0,0.0,0.0,0.0,0.0,0.0,0.0,0.0,0.0,0.0,0.0,0.0,0.0,-3.1218,0.0,0.0,0.0,0.0,0.0,0.0,0.0,0.0,0.0,0.0,0.0,0.0,0.0,0.0,0.0,0.0,0.0,0.0,0.0,0.0,0.0,0.0,-3.6924,-3.9602,-4.2246,-4.4435,-4.6206,-4.6344,-4.6377,-4.6356,-4.4809,-4.3157,-4.1428,0.0,0.0,0.0,0.0,0.0,0.0,0.0,0.0,0.0,0.0,0.0,0.0,0.0,0.0,0.0,0.0,0.0,0.0,0.0,0.0,0.0,0.0,0.0,0.0,0.0,0.0,-3.3823,-3.4025,-3.3417,0.0,0.0,0.0,0.0,0.0,0.0,0.0,0.0,0.0,0.0,-3.5146,-3.6042,-3.696,-3.6382,-3.6219,-3.7053,-3.7134,-3.6823,-3.6063,-3.6589,-3.654,0.0,0.0,0.0,0.0,0.0,0.0,0.0,0.0,0.0,0.0,0.0,0.0,0.0,0.0,0.0,0.0,0.0,0.0,0.0,0.0,0.0,0.0,0.0,0.0,0.0,0.0,0.0,-3.4114,-3.3547,0.0,0.0,0.0,0.0,0.0,0.0,0.0,0.0,0.0,0.0,0.0,-3.7372,-3.7299,0.0,0.0,0.0,0.0,0.0,0.0,0.0,0.0,0.0,0.0,0.0,0.0,-3.7909,-4.1046,-4.3207,-4.5173,-4.6967,-4.716,-4.695,-4.6434,-4.5409,-4.3558,-4.0788,0.0,0.0,0.0,0.0,0.0,0.0,0.0,0.0,0.0,0.0,0.0,0.0,0.0,0.0,0.0,0.0,0.0,0.0,0.0,0.0,0.0,0.0,0.0,0.0,0.0,-3.3674,0.0,0.0,0.0,0.0,0.0,0.0,0.0,0.0,0.0,0.0,0.0,-3.3952,-3.4295,-3.5588,-3.6598,-3.6929,-3.6787,-3.6771,0.0,0.0,0.0,0.0,0.0,0.0,0.0,0.0,0.0,0.0,0.0,0.0,0.0,0.0,-3.4859,-3.3034,-3.3354,-3.3868,-3.38,0.0,0.0,0.0,0.0,0.0,0.0,0.0,0.0,0.0,0.0,0.0,0.0,0.0,0.0,-3.6731,0.0,-3.5475,0.0,0.0,0.0,0.0,0.0,0.0,0.0,0.0,-3.8344,-3.9133,-4.0587,-4.0517,-4.0454,0.0,-3.9583,-3.7981,0.0,0.0,0.0,0.0,0.0,0.0,0.0,0.0,-3.9022,-4.2132,-4.399,-4.5824,-4.7659,-4.789,-4.7767,-4.7297,-4.6258,-4.4571,-4.2106,-4.0635,-3.899,0.0,0.0,0.0,0.0,0.0,0.0,0.0,0.0,0.0,0.0,0.0,0.0,0.0,0.0,0.0,0.0,0.0,0.0,0.0,0.0,0.0,0.0,0.0,-3.391,0.0,0.0,0.0,0.0,0.0,0.0,0.0,0.0,0.0,-3.2576,-3.3506,-3.4321,-3.4674,-3.5718,-3.6557,-3.687,0.0,0.0,0.0,0.0,0.0,0.0,0.0,-3.6651,-3.6673,-3.6978,-3.733,-3.7665,-3.7732,-3.777,-3.7757,0.0,0.0,-3.5057,-3.5226,-3.5766,-3.5715,-3.6066,-3.6311,-3.6151,-3.5881,-3.5615,0.0,0.0,0.0,0.0,0.0,0.0,0.0,0.0,-4.0459,-4.0414,0.0,-3.8537,0.0,0.0,0.0,0.0,0.0,-3.7088,0.0,0.0,-4.1564,-4.235,-4.3599,-4.3635,-4.3621,-4.3551,-4.2745,-4.1974,-4.1038,-3.7261,0.0,0.0,0.0,0.0,0.0,0.0,-4.0218,-4.2853,-4.4688,-4.6517,-4.8353,-4.8647,-4.8814,-4.8917,-4.7403,-4.6118,-4.5277,-4.2938,-4.1227,-4.0358,-3.7971,0.0,0.0,0.0,0.0,0.0,0.0,0.0,0.0,0.0,0.0,0.0,0.0,0.0,0.0,0.0,0.0,0.0,0.0,0.0,0.0,-3.4153,0.0,0.0,0.0,0.0,0.0,0.0,0.0,0.0,0.0,0.0,-3.434,-3.4321,-3.4603,-3.5483,0.0,0.0,0.0,0.0,-3.7339,-3.816,-3.8255,-3.8233,-3.8214,-3.8304,-3.8369,-3.8433,0.0,0.0,-4.1001,-4.1169,-4.1133,-4.1165,-4.1112,-4.0361,-3.7822,-3.7988,-3.8484,-3.8433,-3.8454,-3.8349,-3.8199,-3.8126,-3.7841,-4.3297,0.0,0.0,0.0,0.0,-4.1357,-4.2198,-4.3221,-4.3741,-4.3599,-4.2948,-4.1721,0.0,0.0,0.0,0.0,0.0,0.0,-4.1598,-4.4006,-4.3913,-4.4385,-4.5383,-4.5276,-4.5222,-4.5204,-4.4984,-4.4745,-4.4452,-4.2765,-4.0471,-3.7683,0.0,0.0,0.0,0.0,-4.2467,-4.4443,-4.6346,-4.7977,-4.9242,-4.9511,-4.9448,-4.9095,-4.8017,-4.7035,-4.6194,-4.4895,-4.3558,-4.2125,-4.0253,0.0,0.0,0.0,0.0,0.0,0.0,0.0,0.0,0.0,0.0,0.0,0.0,0.0,0.0,0.0,0.0,0.0,0.0,0.0,-3.5897,-3.5405,-3.4661,0.0,0.0,0.0,0.0,0.0,0.0,0.0,0.0,0.0,-3.6815,-3.6353,-3.6315,0.0,0.0,-3.741,-3.7662,-3.7745,-3.7892,-3.8112,-3.8703,0.0,-3.9064,-3.9635,-4.03,-4.0915,-4.1835,-4.259,-4.2895,-4.2959,-4.2949,-4.2968,-4.296,-4.2674,-4.1999,-4.1432,-4.1201,-4.1174,-4.1586,-4.1921,-4.1802,-4.1593,-4.1362,-4.699,-4.5413,-4.3401,-4.3028,-4.3865,-4.4393,-4.5059,-4.5821,-4.6273,-4.6129,-4.5561,-4.4597,-4.3882,-4.3322,-4.215,0.0,0.0,0.0,-4.4029,-4.5982,-4.5842,-4.623,-4.6948,-4.6875,-4.6856,-4.6856,-4.6856,-4.6691,-4.6379,-4.5883,-4.4269,-4.1607,0.0,0.0,-4.1348,-4.247,-4.4024,-4.5956,-4.7311,-4.85,-4.951,-4.9852,-4.9873,-4.9541,-4.9068,-4.8391,-4.757,-4.6729,-4.5507,-4.3864,-4.2497,-4.0969,0.0,0.0,0.0,0.0,0.0,0.0,0.0,0.0,0.0,0.0,0.0,-3.1613,-3.2001,0.0,0.0,0.0,-3.5722,-3.6652,-3.7163,-3.6433,0.0,0.0,0.0,0.0,0.0,0.0,0.0,-3.6449,-3.7507,-3.8546,-3.9373,-3.9038,-3.8681,-3.8546,-3.8498,-3.8751,-3.9444,0.0,-3.9733,-4.006,-4.0596,-4.0951,-4.0913,-4.1403,-4.2104,-4.3025,-4.3683,-4.427,-4.4646,-4.4722,-4.4738,-4.4724,-4.4726,-4.4723,-4.4722,-4.4258,-4.36,-4.2971,-4.3194,-4.3482,-4.3407,-4.3221,-4.3076,-4.9702,-4.951,-4.7182,-4.6547,-4.7096,-4.7096,-4.7558,-4.8289,-4.8279,-4.823,-4.806,-4.7193,-4.6694,-4.6399,-4.5232,0.0,-4.5494,-4.5352,-4.6091,-4.7482,-4.7482,-4.7831,-4.8489,-4.8489,-4.8508,-4.8508,-4.8508,-4.8104,-4.7333,-4.7296,-4.6874,-4.5957,-4.3791,-4.302,-4.368,-4.3911,-4.5138,-4.7385,-4.7754,-4.8426,-4.9393,-4.9885,-5.0133,-5.0188,-5.0267,-4.9939,-4.9205,-4.8353,-4.7188,-4.5679,-4.4723,-4.3491,-4.1991,0.0,0.0,0.0,0.0,0.0,0.0,0.0,0.0,0.0,0.0,0.0,0.0,0.0,0.0,0.0,-3.7127,0.0,-3.8104,-3.743,0.0,0.0,0.0,-3.5904,-3.5885,-3.7315,-3.8296,-3.8296,0.0,0.0,-4.1808,-4.1912,-4.1373,-3.99,-3.9634,-4.0195,-4.1763,-4.194,-4.229,-4.2861,-4.3216,-4.3269,-4.3132,-4.3329,-4.3802,-4.4649,-4.4952,-4.5262,-4.5904,-4.6138,-4.6261,-4.6192,-4.6281,-4.6248,-4.6269,-4.6132,-4.5795,-4.4144,-4.3868,-4.3838,-4.3845,-4.3743,-4.3631,-5.2299,-5.2241,-5.1645,-5.0394,-4.8798,-4.8798,-4.9288,-5.0067,-5.0009,-4.9987,-4.988,-4.8947,-4.7986,-4.7074,-4.6558,-4.6686,-4.7338,-4.6987,-4.7682,-4.9159,-4.9101,-4.9463,-5.0196,-5.0196,-5.0215,-5.0215,-5.0215,-4.9793,-4.9022,-4.9023,-4.8251,-4.6837,-4.6232,-4.5809,-4.5531,-4.6172,-4.6885,-4.7615,-4.8466,-4.9149,-4.9669,-4.9925,-5.0076,-5.0188,-5.0267,-5.0225,-5.0015,-4.9232,-4.8602,-4.8192,-4.6729,-4.5717,-4.5316,-4.3348,0.0,0.0,0.0,0.0,0.0,0.0,0.0,0.0,0.0,-3.3777,-3.4714,0.0,-3.6389,0.0,-3.8373,-3.8996,-3.8996,-3.9354,0.0,0.0,-3.9046,-3.9323,-3.9323,-4.0258,-4.0912,-4.0912,-4.1835,-4.2547,-4.2758,-4.2797,-4.2893,-4.3047,-4.2574,-4.2351,-4.2775,-4.2821,-4.2879,-4.3195,-4.3778,-4.4118,-4.4211,-4.4737,-4.5318,-4.5662,-4.577,-4.5899,-4.608,-4.617,-4.6219,-4.6223,-4.6264,-4.6296,-4.63,-4.6305,-4.6172,-4.574,-4.5652,-4.5629,-4.5568,-4.5476,-4.5385,-5.3203,-5.3203,-5.3203,-5.2375,-5.1106,-5.1106,-5.1356,-5.1818,-5.1768,-5.1738,-5.1687,-5.0998,-5.0279,-4.9565,-4.9254,-4.927,-4.9525,-4.9212,-4.951,-5.0265,-5.0184,-5.0362,-5.0802,-5.082,-5.082,-5.082,-5.082,-5.0582,-5.0141,-5.0123,-4.9481,-4.8233,-4.8214,-4.7886,-4.7241,-4.7404,-4.7731,-4.824,-4.8936,-4.9449,-4.9731,-4.9912,-5.0057,-5.0158,-5.0255,-5.0302,-5.0302,-4.9862,-4.9461,-4.911,-4.8181,-4.7474,-4.7073,-4.5401,-4.4065,0.0,0.0,0.0,0.0,0.0,0.0,0.0,0.0,0.0,0.0,0.0,-3.8293,-3.9577,-4.0489,-4.0989,-4.0989,-4.1401,-4.1477,-4.1027,-4.1401,-4.1662,-4.167,-4.2412,-4.3047,-4.3451,-4.4259,-4.4932,-4.5259,-4.5316,-4.549,-4.5932,-4.5605,-4.5201,-4.4885,-4.5086,-4.5316,-4.5355,-4.5719,-4.6069,-4.6122,-4.6588,-4.6971,-4.7068,-4.7109,-4.7178,-4.7218,-4.7256,-4.7177,-4.6817,-4.6791,-4.6698,-4.6333,-4.627,-4.6301,-4.6287,-4.6289,-4.6282,-4.6239,-4.6206,-4.6121,-5.351,-5.351,-5.353,-5.353,-5.353,-5.351,-5.3395,-5.3203,-5.3203,-5.3172,-5.3078,-5.2829,-5.2587,-5.2371,-5.2055,-5.1744,-5.1504,-5.1231,-5.1078,-5.1053,-5.0991,-5.1004,-5.1114,-5.1114,-5.1096,-5.1114,-5.1114,-5.1059,-5.0967,-5.0949,-5.0545,-4.9776,-4.9757,-4.9487,-4.8919,-4.8344,-4.8374,-4.8942,-4.9257,-4.951,-4.9692,-4.9998,-5.0126,-5.0108,-5.0357,-5.0428,-5.0302,-5.0302,-4.9989,-4.9289,-4.9243,-4.8907,-4.8162,-4.7322,-4.6505,0.0,-4.4154,0.0,0.0,0.0,0.0,0.0,0.0,0.0,0.0,-3.9184,-4.0342,-4.1846,-4.2758,-4.3258,-4.3258,-4.3451,-4.3605,-4.3605,-4.3682,-4.3739,-4.3778,-4.4355,-4.5086,-4.5845,-4.6605,-4.7317,-4.7875,-4.8096,-4.8077,-4.7942,-4.8029,-4.7817,-4.7385,-4.7577,-4.7836,-4.8096,-4.8105,-4.7852,-4.8026,-4.8226,-4.8273,-4.8352,-4.8322,-4.8521,-4.8499,-4.851,-4.8317,-4.7717,-4.7584,-4.7402,-4.6641,-4.6611,-4.6672,-4.6745,-4.6772,-4.664,-4.6379,-4.6245,-4.6206,-5.5241,-5.5241,-5.5222,-5.5222,-5.5241,-5.5222,-5.4453,-5.3203,-5.3203,-5.3121,-5.3004,-5.2834,-5.264,-5.239,-5.2037,-5.1763,-5.1487,-5.1213,-5.1391,-5.1862,-5.1818,-5.2105,-5.2726,-5.2745,-5.2747,-5.2745,-5.2745,-5.2399,-5.1756,-5.1756,-5.1371,-5.0582,-5.0582,-5.0571,-5.0637,0.0,0.0,0.0,-4.9374,-4.9548,-4.9711,-5.0487,-5.0643,-5.0152,-5.0978,0.0,-5.034,-5.0367,-5.0291,-5.0073,-5.0073,0.0,0.0,0.0,0.0,0.0,0.0,0.0,0.0,0.0,0.0,0.0,-4.2376,-4.1437,-4.1048,-4.1822,-4.25,-4.2835,-4.3605,-4.4066,-4.4085,-4.5355,-4.6201,-4.6201,-4.6759,-4.7163,-4.7163,-4.7278,-4.7471,-4.7605,-4.7778,-4.7923,-4.8135,-4.8096,-4.8135,-4.824,-4.8702,-4.9067,-4.8933,-4.849,-4.8135,-4.8105,-4.8277,-4.8244,-4.8304,-4.838,-4.85,-4.8389,-4.8391,-4.8496,-4.8606,-4.8586,-4.8532,-4.8297,-4.8356,-4.8368,-4.8139,-4.8259,-4.8206,-4.8298,-4.8298,-4.7923,-4.66,-4.6301,-4.6252,-5.5684,0.0,-5.5684,-5.5684,0.0,-5.5684,-5.5222,-5.4434,-5.4434,-5.435,-5.4227,-5.4052,-5.3846,-5.3621,-5.3279,-5.298,-5.2678,-5.2398,-5.2424,-5.2672,-5.2624,-5.2803,-5.3185,-5.3185,-5.3185,-5.3185,-5.3185,-5.2965,-5.2619,-5.2582,-5.2179,-5.1408,-5.1432,-5.133,-5.1117,-5.1415,-5.1265,-5.0691,-5.0758,-5.0866,-5.0996,-5.1471,-5.163,-5.1402,-5.1957,0.0,0.0,0.0,0.0,0.0,0.0,0.0,0.0,-5.0243,0.0,-4.9295,-4.8087,-4.7213,-4.6799,-4.5626,-4.5278,-4.6105,-4.5797,-4.5192,-4.4339,-4.4703,-4.5143,-4.5528,-4.5951,-4.6163,-4.6201,-4.699,-4.749,-4.75,-4.7846,-4.8096,-4.8096,-4.8096,-4.8279,-4.8682,-4.8759,-4.8894,-4.9336,-4.9375,-4.9375,-4.9394,-4.976,-5.0029,-4.999,-4.9683,-4.9404,-4.9365,-4.9439,-4.9511,-4.9572,-4.9575,-4.9568,-4.9625,-4.9633,-4.9655,-4.9729,-4.9723,-4.9627,-4.9259,-4.9159,-4.9088,-4.8681,-4.866,-4.872,-4.8733,-4.8782,-4.8573,-4.7693,-4.7558,-4.7575,-5.5684,-5.5684,-5.5684,-5.5684,-5.5684,-5.5684,-5.5684,-5.5684,0.0,0.0,0.0,-5.5275,-5.508,-5.4886,-5.4538,-5.4234,-5.387,-5.362,-5.342,-5.3277,-5.323,-5.3185,-5.3185,-5.3185,-5.3185,-5.3185,-5.3185,-5.3185,-5.3185,-5.3185,-5.2876,-5.2273,-5.2265,-5.2092,-5.1676,-5.2074,-5.2376,-5.2554,-5.2275,-5.2186,-5.2303,-5.2523,-5.2664,-5.2711,-5.2987,-5.3077,-5.2924,-5.2935,-5.2893,-5.2822,-5.2257,-5.1928,-5.192,-5.1179,-5.0773,-5.0786,-4.9883,-4.9346,-4.9375,-4.8586,-4.8163,-4.8317,-4.8471,-4.8144,-4.7192,-4.7115,-4.7394,-4.8048,-4.824,-4.8317,-4.8317,-4.849,-4.8548,-4.8567,-4.8567,-4.8586,-4.8586,-4.8567,-4.8913,-4.949,-4.9625,-4.9875,-5.051,-5.0606,-5.0683,-5.0693,-5.0587,-5.0683,-5.0683,-5.0587,-5.0529,-5.0538,-5.0526,-5.0733,-5.0852,-5.0797,-5.0898,-5.0763,-5.0801,-5.0933,-5.0963,-5.0998,-5.0715,-5.0104,-5.0002,-4.9763,-4.9205,-4.9165,-4.9075,-4.9114,-4.9195,-4.925,-4.9259,-4.9293,-4.9219,-5.5684,-5.5684,-5.5684,-5.5684,-5.5684,-5.5684,-5.5684,-5.5703,-5.5629,-5.5573,-5.5492,-5.5288,-5.508,-5.4886,-5.4557,-5.418,-5.3813,-5.358,-5.3398,-5.3209,-5.3206,-5.3185,-5.3185,-5.3185,-5.3185,-5.3185,-5.3185,-5.3185,-5.3185,-5.3185,-5.3151,-5.3041,-5.3109,-5.3302,-5.3664,-5.4029,-5.4289,-5.4462,-5.2976,-5.2209,-5.2303,-5.3149,-5.3308,-5.2781,-5.3623,-5.3748,-5.3019,-5.3075,-5.3056,-5.297,-5.2866,-5.285,-5.2867,-5.209,-5.165,-5.1644,-5.025,-4.9385,-4.9394,-4.8606,-4.8432,-4.9183,-4.9894,-4.9663,-4.8105,-4.7932,-4.7971,-4.8125,-4.8798,-4.9221,-4.926,-4.9856,-5.0221,-5.0279,-5.0308,-5.0298,-5.0221,-5.024,-5.026,-5.0414,-5.0519,-5.05,-5.0644,-5.0683,-5.0683,-5.0683,-5.0683,-5.0683,-5.0683,-5.0683,-5.0693,-5.0711,-5.0766,-5.081,-5.088,-5.0913,-5.0898,-5.0898,-5.0898,-5.0898,-5.0933,-5.0933,-5.0863,-5.0747,-5.0707,-5.0697,-5.055,-5.0701,-5.0617,-5.0631,-5.0692,-5.0803,-5.0791,-5.0857,-5.0541,-5.5684,-5.5684,-5.5684,-5.5684,-5.5684,-5.5684,-5.5684,-5.5703,-5.5618,-5.5562,-5.548,-5.5275,-5.508,-5.4886,-5.4541,-5.4163,-5.3793,-5.358,-5.3378,-5.3206,-5.3185,-5.3185,-5.3185,-5.3185,-5.3185,-5.3185,-5.3185,-5.3185,-5.3185,-5.3185,-5.3227,-5.3254,-5.3461,-5.3813,-5.4233,-5.4486,-5.4726,-5.4941,-5.4099,-5.3686,-5.3779,-5.4211,-5.4357,-5.4097,-5.4673,-5.4787,-5.4418,-5.4452,-5.4422,-5.4354,-5.3985,-5.3769,-5.3772,-5.3016,-5.2576,-5.2577,-5.1895,-5.126,-5.0798,-4.999,-4.9683,-5.0087,-5.0462,-5.0385,-4.9586,-4.951,-4.951,-4.951,-4.9894,-5.0106,-5.0106,-5.0462,-5.0683,-5.0683,-5.0683,-5.0683,-5.0683,-5.0683,-5.0683,-5.0683,-5.0683,-5.0683,-5.0683,-5.0683,-5.0683,-5.0683,-5.0683,-5.0683,-5.0683,-5.0693,-5.0702,-5.0748,-5.0784,-5.0827,-5.0905,-5.0909,-5.0898,-5.0898,-5.0898,-5.0898,-5.0898,-5.0898,-5.0898,-5.0898,-5.0921,-5.0956,-5.0978,-5.1022,-5.1069,-5.1117,-5.1205,-5.1276,-5.134,-5.1373,-5.1107,-5.5684,-5.5684,-5.5684,-5.5684,-5.5684,-5.5684,-5.5684,-5.5703,-5.566,-5.5585,-5.5504,-5.5301,-5.5121,-5.4931,-5.4587,-5.4233,-5.3888,-5.362,-5.34,-5.3248,-5.3206,-5.3185,-5.3185,-5.3185,-5.3185,-5.3185,-5.3185,-5.3185,-5.3185,-5.3185,-5.3251,-5.338,-5.3678,-5.4018,-5.4409,-5.4568,-5.4807,-5.4985,-5.4975,-5.4956,-5.5,-5.5014,-5.5127,-5.5294,-5.5413,-5.5539,-5.5607,-5.5618,-5.5596,-5.5531,-5.502,-5.4677,-5.4658,-5.3921,-5.3491,-5.3472,-5.3318,-5.2914,-5.2231,-5.1606,-5.1183,-5.0971,-5.0971,-5.0875,-5.0731,-5.0683,-5.0683,-5.0683,-5.0625,-5.0673,-5.0644,-5.0664,-5.0683,-5.0683,-5.0683,-5.0683,-5.0683,-5.0683,-5.0683,-5.0683,-5.0683,-5.0683,-5.0683,-5.0683,-5.0683,-5.0683,-5.0683,-5.0683,-5.0683,-5.0683,-5.0731,-5.0785,-5.0821,-5.0836,-5.0882,-5.0898,-5.0898,-5.0898,-5.0898,-5.0898,-5.0898,-5.0898,-5.0898,-5.0898,-5.0898,-5.0914,-5.0963,-5.1005,-5.1029,-5.1056,-5.113,-5.1186,-5.1287,-5.1349,-5.1381,-5.5684,-5.5684,-5.5684,-5.5684,-5.5684,-5.5684,-5.5684,-5.5684,-5.5703,-5.5671,-5.5573,-5.5383,-5.5216,-5.5052,-5.4723,-5.4368,-5.4036,-5.3738,-5.3464,-5.3297,-5.3248,-5.3185,-5.3185,-5.3185,-5.3185,-5.3185,-5.3185,-5.3185,-5.3206,-5.3206,-5.3293,-5.3499,-5.3756,-5.4054,-5.439,-5.4717,-5.4912,-5.5,-5.5038,-5.5057,-5.4981,-5.5052,-5.5162,-5.5294,-5.5432,-5.5562,-5.5673,-5.5692,-5.5673,-5.5692,-5.5596,-5.5568,-5.5462,-5.4818,-5.4376,-5.4337,-5.3645,-5.3145,-5.3087,-5.301,-5.2587,-5.1904,-5.1788,-5.151,-5.0866,-5.075,-5.0702,-5.0721,-5.0702,-5.0683,-5.0683,-5.0683,-5.0683,-5.0683,-5.0683,-5.0683,-5.0683,-5.0683,-5.0683,-5.0683,-5.0683,-5.0683,-5.0683,-5.0683,-5.0683,-5.0683,-5.0683,-5.0683,-5.0683,-5.0693,-5.0712,-5.0794,-5.0821,-5.0836,-5.0882,-5.0898,-5.0898,-5.0898,-5.0898,-5.0898,-5.0898,-5.0898,-5.0898,-5.0898,-5.0898,-5.0906,-5.0914,-5.0956,-5.0986,-5.1029,-5.1082,-5.1161,-5.1268,-5.1347,-5.1373,-5.5684,-5.5684,-5.5684,-5.5684,-5.5684,-5.5684,-5.5684,-5.5684,-5.5684,-5.5651,-5.5585,-5.5468,-5.5307,-5.508,-5.4754,-5.4418,-5.4091,-5.3738,-5.3484,-5.3318,-5.323,-5.3185,-5.3185,-5.3185,-5.3185,-5.3185,-5.3185,-5.3209,-5.3293,-5.3435,-5.3536,-5.3656,-5.3889,-5.4145,-5.439,-5.4705,-5.4886,-5.5,-5.5009,-5.5028,-5.4995,-5.5066,-5.5162,-5.5294,-5.5432,-5.5562,-5.5673,-5.5684,-5.5684,-5.5684,-5.5684,-5.5684,-5.5684,-5.5376,-5.5203,-5.5145,-5.4434,-5.3972,-5.3953,-5.351,-5.3049,-5.2702,-5.2654,-5.251,-5.2222,-5.2164,-5.1991,-5.1452,-5.0991,-5.0683,-5.0712,-5.0683,-5.0683,-5.0683,-5.0683,-5.0683,-5.0683,-5.0683,-5.0683,-5.0683,-5.0683,-5.0683,-5.0683,-5.0683,-5.0683,-5.0683,-5.0683,-5.0683,-5.0683,-5.0683,-5.0712,-5.0794,-5.0821,-5.0836,-5.0882,-5.0898,-5.0898,-5.0898,-5.0898,-5.0898,-5.0898,-5.0898,-5.0898,-5.0898,-5.0898,-5.0898,-5.0898,-5.0914,-5.0956,-5.0993,-5.1056,-5.1145,-5.1273,-5.1313,-5.1351,-5.5684,-5.5684,-5.5684,-5.5848,-5.6049,-5.606,-5.6203,-5.6415,-5.6415,-5.6382,-5.6307,-5.6206,-5.6034,-5.5689,-5.5045,-5.4484,-5.4144,-5.3832,-5.3543,-5.3359,-5.3251,-5.3185,-5.3185,-5.3185,-5.3206,-5.323,-5.323,-5.3254,-5.3378,-5.3578,-5.3712,-5.3753,-5.3963,-5.4198,-5.4426,-5.4673,-5.4841,-5.4956,-5.4985,-5.4985,-5.4985,-5.5071,-5.5162,-5.5294,-5.5432,-5.5562,-5.5684,-5.5684,-5.5684,-5.5684,-5.5684,-5.5684,-5.5684,-5.5684,-5.5684,-5.5645,-5.5164,-5.4838,-5.4818,-5.4241,-5.3799,-5.3606,-5.3549,-5.3453,-5.326,-5.3203,-5.2933,-5.2346,-5.1722,-5.1318,-5.0731,-5.0683,-5.0683,-5.0683,-5.0683,-5.0683,-5.0683,-5.0683,-5.0683,-5.0683,-5.0683,-5.0683,-5.0683,-5.0683,-5.0683,-5.0683,-5.0683,-5.0683,-5.0683,-5.0693,-5.0721,-5.0784,-5.0821,-5.0836,-5.0882,-5.0898,-5.0898,-5.0898,-5.0898,-5.0898,-5.0898,-5.0898,-5.0898,-5.0898,-5.0898,-5.0898,-5.0898,-5.0906,-5.0914,-5.0993,-5.1069,-5.1136,-5.1249,-5.1277,-5.1327,-5.5684,-5.5722,-5.5722,-5.6252,-5.6926,-5.6945,-5.7396,-5.8011,-5.8088,-5.8093,-5.7946,-5.7787,-5.7644,-5.7268,-5.5689,-5.4739,-5.4412,-5.4038,-5.3733,-5.3514,-5.3309,-5.3185,-5.3185,-5.3185,-5.323,-5.3258,-5.3297,-5.3359,-5.3499,-5.3617,-5.3712,-5.3733,-5.3982,-5.4198,-5.4426,-5.4673,-5.4829,-5.4916,-5.4956,-5.4956,-5.4931,-5.5042,-5.5162,-5.5294,-5.5432,-5.5562,-5.5692,-5.5684,-5.5684,-5.5684,-5.5684,-5.5684,-5.5684,-5.5684,-5.5684,-5.5684,-5.5645,-5.5607,-5.5588,-5.5491,-5.5184,-5.4587,-5.4434,-5.4107,-5.353,-5.3453,-5.3356,-5.3164,-5.3068,-5.2433,-5.1125,-5.0875,-5.0798,-5.0779,-5.0731,-5.0683,-5.0683,-5.0683,-5.0683,-5.0683,-5.0683,-5.0683,-5.0683,-5.0683,-5.0683,-5.0683,-5.0683,-5.0683,-5.0683,-5.0683,-5.0721,-5.0766,-5.081,-5.0808,-5.0882,-5.0898,-5.0898,-5.0898,-5.0898,-5.0898,-5.0898,-5.0898,-5.0898,-5.0898,-5.0898,-5.0898,-5.0898,-5.0906,-5.0921,-5.0986,-5.1042,-5.1132,-5.1185,-5.1246,-5.1297,-5.6857,-5.7338,-5.7357,-5.755,-5.78,-5.7819,-5.8011,-5.8269,-5.8288,-5.8243,-5.8129,-5.7972,-5.7723,-5.7366,-5.6563,-5.6014,-5.5677,-5.4892,-5.4357,-5.408,-5.349,-5.3185,-5.3185,-5.3185,-5.323,-5.3279,-5.33,-5.3418,-5.3636,-5.3734,-5.3812,-5.3907,-5.4037,-5.4216,-5.4439,-5.4657,-5.4783,-5.4886,-5.4905,-5.489,-5.4901,-5.4985,-5.5107,-5.5275,-5.5432,-5.5581,-5.5684,-5.5684,-5.5684,-5.5684,-5.5684,-5.5684,-5.5684,-5.5684,-5.5684,-5.5684,-5.5684,-5.5684,-5.5684,-5.5684,-5.5588,-5.5318,-5.5261,-5.5126,-5.4876,-5.478,-5.4587,-5.4164,-5.403,-5.3453,-5.2529,-5.1818,-5.1491,-5.1414,-5.101,-5.077,-5.0683,-5.0683,-5.0683,-5.0683,-5.0683,-5.0683,-5.076,-5.0683,-5.0683,-5.0683,-5.0683,-5.0683,-5.0683,-5.0683,-5.0731,-5.0794,-5.0821,-5.0827,-5.089,-5.0898,-5.0898,-5.0898,-5.0898,-5.0898,-5.0898,-5.0898,-5.0898,-5.0898,-5.0898,-5.0898,-5.0898,-5.0898,-5.0921,-5.0971,-5.1055,-5.1089,-5.1122,-5.1219,-5.128,-5.7761,-5.8261,-5.8288,-5.8454,-5.8684,-5.8684,-5.8858,-5.9088,-5.9108,-5.9038,-5.8897,-5.8725,-5.844,-5.8056,-5.7705,-5.7398,-5.7018,-5.5812,-5.5108,-5.4865,-5.4259,-5.3977,-5.394,-5.3744,-5.3661,-5.3709,-5.3533,-5.3559,-5.3716,-5.3793,-5.3888,-5.3982,-5.4073,-5.4249,-5.447,-5.4689,-5.4829,-5.4871,-5.4871,-5.4871,-5.4916,-5.5004,-5.5107,-5.5294,-5.5432,-5.5562,-5.5684,-5.5684,-5.5684,-5.5684,-5.5684,-5.5684,-5.5684,-5.5684,-5.5684,-5.5684,-5.5684,-5.5684,-5.5684,-5.5684,-5.5684,-5.5684,-5.5684,-5.5684,-5.5684,-5.5684,-5.5415,-5.503,-5.4895,-5.4607,-5.403,-5.326,-5.2635,-5.2356,-5.1818,-5.151,-5.1491,-5.1539,-5.1548,-5.1587,-5.1625,-5.1452,-5.1144,-5.1106,-5.0971,-5.077,-5.0683,-5.0683,-5.0683,-5.0693,-5.0731,-5.0775,-5.0821,-5.0836,-5.0874,-5.0898,-5.0898,-5.0898,-5.0898,-5.0898,-5.0898,-5.0898,-5.0898,-5.0898,-5.0898,-5.0898,-5.0898,-5.0898,-5.0933,-5.0983,-5.102,-5.1049,-5.1107,-5.1194,-5.1248,-5.8338,-5.8454,-5.8338,-5.8896,-5.9473,-5.9511,-5.9992,-6.055,-6.0646,-6.0448,-6.0246,-6.0179,-5.9749,-5.9528,-5.8934,-5.8694,-5.8071,-5.6721,-5.5945,-5.5764,-5.5508,-5.5412,-5.5376,-5.4764,-5.452,-5.4552,-5.4105,-5.3812,-5.3793,-5.3813,-5.387,-5.4,-5.4127,-5.4301,-5.4522,-5.4764,-5.4886,-5.4916,-5.496,-5.496,-5.4912,-5.5014,-5.5135,-5.5294,-5.5413,-5.5562,-5.5703,-5.5684,-5.5684,-5.5684,-5.5684,-5.5684,-5.5684,-5.5684,-5.5684,-5.5684,-5.5684,-5.5684,-5.5684,-5.5684,-5.5684,-5.5684,-5.5684,-5.5684,-5.5684,-5.5684,-5.5645,-5.5568,-5.5568,-5.5568,-5.5415,-5.4818,-5.4049,-5.3356,-5.3029,-5.2914,-5.301,-5.3126,-5.3145,-5.301,-5.2933,-5.2779,-5.2173,-5.1923,-5.1702,-5.1202,-5.0914,-5.0856,-5.0856,-5.0798,-5.0731,-5.0794,-5.0801,-5.0836,-5.0858,-5.0898,-5.0898,-5.0898,-5.0898,-5.0898,-5.0898,-5.0898,-5.0898,-5.0898,-5.0898,-5.0898,-5.0898,-5.0898,-5.0898,-5.0941,-5.0978,-5.1015,-5.1076,-5.1144,-5.1215,-5.9473,-5.9992,-6.0012,-6.0146,-6.0396,-6.0396,-6.0569,-6.08,-6.0765,-6.0673,-6.0546,-6.028,-5.9906,-5.9539,-5.9159,-5.8803,-5.8403,-5.7718,-5.7125,-5.6503,-5.589,-5.5713,-5.5723,-5.5509,-5.5191,-5.4876,-5.47,-5.4313,-5.3905,-5.3813,-5.3888,-5.4073,-5.4144,-5.4369,-5.4705,-5.4841,-5.4931,-5.4956,-5.4901,-5.4856,-5.4901,-5.4927,-5.5071,-5.5281,-5.5432,-5.5562,-5.5703,-5.5684,-5.5684,-5.5684,-5.5684,-5.5684,-5.5684,-5.5684,-5.5684,-5.5684,-5.5684,-5.5684,-5.5684,-5.5684,-5.5684,-5.5684,-5.5684,-5.5684,-5.5684,-5.5684,-5.5684,-5.5684,-5.5684,-5.5684,-5.5645,-5.5491,-5.4934,-5.4184,-5.3568,-5.3299,-5.3356,-5.328,-5.3203,-5.3203,-5.3203,-5.3049,-5.2895,-5.2799,-5.2664,-5.2318,-5.1875,-5.1529,-5.1471,-5.1125,-5.075,-5.0794,-5.0801,-5.0866,-5.0866,-5.0898,-5.0898,-5.0898,-5.0898,-5.0898,-5.0898,-5.0898,-5.0898,-5.0898,-5.0898,-5.0898,-5.0898,-5.0898,-5.0898,-5.0914,-5.0944,-5.0993,-5.1029,-5.1069,-5.1147,-6.0319,-6.0781,-6.08,-6.08,-6.08,-6.08,-6.08,-6.08,-6.0722,-6.0635,-6.0525,-6.0207,-5.9845,-5.9433,-5.912,-5.8762,-5.844,-5.8286,-5.7876,-5.7312,-5.6789,-5.6559,-5.6635,-5.6445,-5.6016,-5.5439,-5.5129,-5.4722,-5.4258,-5.3943,-5.3889,-5.4072,-5.4216,-5.4439,-5.4783,-5.4916,-5.4985,-5.5004,-5.496,-5.4901,-5.4916,-5.4941,-5.5085,-5.5281,-5.5413,-5.5543,-5.5673,-5.5684,-5.5684,-5.5684,-5.5684,-5.5684,-5.5684,-5.5684,-5.5684,-5.5684,-5.5684,-5.5684,-5.5684,-5.5684,-5.5684,-5.5684,-5.5684,-5.5684,-5.5684,-5.5684,-5.5684,-5.5684,-5.5684,-5.5684,-5.5684,-5.5684,-5.5434,-5.5011,-5.4511,-5.4145,-5.4126,-5.4126,-5.4164,-5.4222,-5.4203,-5.3991,-5.378,-5.3683,-5.353,-5.3241,-5.2741,-5.2365,-5.2288,-5.1991,-5.1665,-5.1393,-5.1371,-5.128,-5.094,-5.0898,-5.0898,-5.0898,-5.0898,-5.0898,-5.0898,-5.0898,-5.0898,-5.0898,-5.0898,-5.0898,-5.0898,-5.0898,-5.0898,-5.0921,-5.0929,-5.0952,-5.0981,-5.1029,-5.1082,-6.08,-6.08,-6.08,-6.08,-6.08,-6.08,-6.08,-6.0788,-6.0729,-6.0629,-6.0472,-6.0167,-5.9782,-5.9399,-5.9062,-5.876,-5.8508,-5.8334,-5.8205,-5.8105,-5.7927,-5.7894,-5.7895,-5.7534,-5.7015,-5.6299,-5.552,-5.5075,-5.4834,-5.4147,-5.3926,-5.4091,-5.4304,-5.4524,-5.4799,-5.5,-5.5071,-5.5028,-5.5038,-5.5014,-5.4916,-5.4995,-5.5168,-5.5294,-5.5432,-5.5562,-5.5692,-5.5684,-5.5684,-5.5684,-5.5684,-5.5684,-5.5684,-5.5684,-5.5684,-5.5684,-5.5684,-5.5684,-5.5684,-5.5684,-5.5684,-5.5684,-5.5684,-5.5684,-5.5684,-5.5684,-5.5684,-5.5684,-5.5684,-5.5684,-5.5684,-5.5684,-5.5645,-5.5684,-5.5434,-5.5434,-5.5626,-5.5568,-5.5395,-5.5472,-5.5607,-5.5415,-5.4645,-5.4568,-5.4222,-5.3741,-5.3453,-5.3299,-5.3203,-5.2982,-5.2772,-5.2492,-5.2172,-5.1829,-5.1539,-5.1389,-5.1331,-5.0898,-5.0898,-5.0898,-5.0898,-5.0898,-5.0898,-5.0898,-5.0898,-5.0898,-5.0898,-5.0898,-5.0898,-5.0906,-5.0914,-5.0929,-5.0952,-5.1,-5.1035,-6.08,-6.08,-6.08,-6.08,-6.08,-6.08,-6.08,-6.0769,-6.068,-6.0578,-6.0412,-6.0091,-5.9732,-5.9381,-5.9101,-5.8803,-5.8535,-5.8446,-5.8396,-5.8331,-5.8308,-5.8353,-5.8443,-5.8349,-5.7914,-5.7156,-5.6357,-5.5652,-5.5001,-5.4258,-5.3926,-5.4091,-5.4304,-5.4557,-5.4856,-5.5028,-5.508,-5.5066,-5.5042,-5.4985,-5.4912,-5.5004,-5.5107,-5.5294,-5.5413,-5.5562,-5.5692,-5.5684,-5.5684,-5.5684,-5.5684,-5.5684,-5.5684,-5.5684,-5.5684,-5.5684,-5.5684,-5.5684,-5.5684,-5.5684,-5.5684,-5.5684,-5.5684,-5.5684,-5.5684,-5.5684,-5.5684,-5.5684,-5.5684,-5.5684,-5.5684,-5.5684,-5.5684,-5.5684,-5.5684,-5.5684,-5.5684,-5.5684,-5.5684,-5.5684,-5.5684,-5.553,-5.5395,-5.528,-5.5203,-5.4895,-5.4511,-5.4164,-5.4087,-5.3722,-5.3406,-5.3215,-5.2913,-5.2513,-5.2189,-5.2,-5.166,-5.1053,-5.0898,-5.0898,-5.0898,-5.0898,-5.0898,-5.0898,-5.0898,-5.0898,-5.0898,-5.0898,-5.0898,-5.0898,-5.0906,-5.0914,-5.0921,-5.0963,-5.0993,-6.08,-6.08,-6.08,-6.08,-6.08,-6.08,-6.0788,-6.0734,-6.0655,-6.048,-6.028,-6.0029,-5.9664,-5.9309,-5.9082,-5.8864,-5.8596,-5.8532,-5.8468,-5.8443,-5.8422,-5.8465,-5.8529,-5.8617,-5.8456,-5.7973,-5.7175,-5.6376,-5.5577,-5.4704,-5.428,-5.4147,-5.4233,-5.4505,-5.4886,-5.5,-5.5085,-5.508,-5.5071,-5.5,-5.4897,-5.5,-5.5121,-5.5294,-5.5432,-5.5562,-5.5673,-5.5684,-5.5684,-5.5684,-5.5684,-5.5684,-5.5684,-5.5684,-5.5684,-5.5684,-5.5684,-5.5684,-5.5684,-5.5684,-5.5684,-5.5684,-5.5684,-5.5684,-5.5684,-5.5684,-5.5684,-5.5684,-5.5684,-5.5684,-5.5684,-5.5684,-5.5684,-5.5684,-5.5684,-5.5684,-5.5684,-5.5684,-5.5684,-5.5684,-5.5684,-5.5684,-5.5684,-5.5684,-5.5684,-5.5588,-5.5222,-5.5068,-5.4953,-5.4453,-5.4061,-5.3938,-5.3782,-5.3451,-5.2884,-5.2569,-5.2163,-5.1544,-5.0898,-5.0898,-5.0898,-5.0898,-5.0898,-5.0898,-5.0898,-5.0898,-5.0898,-5.0898,-5.0898,-5.0898,-5.0898,-5.0906,-5.0914,-5.0921,-5.0963,-6.08,-6.08,-6.08,-6.08,-6.08,-6.08,-6.0757,-6.0717,-6.0642,-6.0439,-6.0159,-5.9963,-5.9649,-5.9215,-5.9081,-5.8884,-5.8677,-5.8574,-5.8532,-5.8532,-5.8532,-5.8551,-5.8553,-5.8635,-5.864,-5.8419,-5.7825,-5.6933,-5.6023,-5.5261,-5.4596,-5.424,-5.4179,-5.447,-5.4822,-5.5004,-5.5057,-5.5094,-5.5094,-5.5009,-5.4941,-5.5028,-5.5162,-5.5294,-5.5468,-5.5585,-5.5682,-5.5684,-5.5684,-5.5684,-5.5684,-5.5684,-5.5684,-5.5684,-5.5684,-5.5684,-5.5684,-5.5684,-5.5684,-5.5684,-5.5684,-5.5684,-5.5684,-5.5684,-5.5684,-5.5684,-5.5684,-5.5684,-5.5684,-5.5684,-5.5684,-5.5684,-5.5684,-5.5684,-5.5684,-5.5684,-5.5684,-5.5684,-5.5684,-5.5684,-5.5684,-5.5684,-5.5684,-5.5684,-5.5684,-5.5684,-5.5511,-5.5453,-5.5415,-5.5184,-5.4909,-5.4776,-5.4602,-5.4437,-5.3776,-5.3111,-5.2635,-5.2066,-5.1207,-5.0898,-5.0898,-5.0898,-5.0898,-5.0898,-5.0898,-5.0898,-5.0898,-5.0898,-5.0898,-5.0898,-5.0898,-5.0898,-5.0898,-5.0906,-5.0941,-6.08,-6.08,-6.08,-6.08,-6.08,-6.08,-6.08,-6.0777,-6.0655,-6.046,-6.0227,-6.001,-5.9666,-5.9272,-5.9101,-5.8884,-5.8737,-5.8656,-5.8656,-5.8656,-5.8656,-5.8656,-5.8656,-5.8677,-5.8677,-5.8401,-5.723,-5.6506,-5.6004,-5.4983,-5.4093,-5.4147,-5.4268,-5.4522,-5.4837,-5.5019,-5.508,-5.5094,-5.5094,-5.5023,-5.4956,-5.5042,-5.5162,-5.532,-5.5527,-5.5651,-5.5692,-5.5684,-5.5684,-5.5684,-5.5684,-5.5684,-5.5684,-5.5684,-5.5684,-5.5684,-5.5684,-5.5684,-5.5684,-5.5684,-5.5684,-5.5684,-5.5684,-5.5684,-5.5684,-5.5684,-5.5684,-5.5684,-5.5684,-5.5684,-5.5684,-5.5684,-5.5684,-5.5684,-5.5684,-5.5684,-5.5684,-5.5684,-5.5684,-5.5684,-5.5684,-5.5684,-5.5684,-5.5684,-5.5684,-5.5684,-5.5684,-5.5684,-5.5684,-5.5684,-5.5554,-5.5326,-5.5307,-5.5065,-5.4577,-5.3768,-5.2945,-5.2279,-5.1447,-5.0898,-5.0898,-5.0898,-5.0898,-5.0898,-5.0898,-5.0898,-5.0898,-5.0898,-5.0898,-5.0898,-5.0898,-5.0898,-5.0898,-5.0898,-5.0898,-6.0435,-6.0781,-6.08,-6.08,-6.08,-6.08,-6.0788,-6.0722,-6.0655,-6.0447,-6.0198,-6.001,-5.9717,-5.9309,-5.9158,-5.8982,-5.882,-5.8737,-5.8677,-5.8677,-5.8677,-5.8677,-5.8677,-5.8677,-5.8679,-5.8494,-5.7509,-5.6747,-5.6042,-5.5077,-5.4317,-5.411,-5.4251,-5.4522,-5.4837,-5.5019,-5.508,-5.5116,-5.5107,-5.5052,-5.5028,-5.5052,-5.5216,-5.5383,-5.5585,-5.5684,-5.5684,-5.5684,-5.5684,-5.5684,-5.5684,-5.5684,-5.5684,-5.5684,-5.5684,-5.5684,-5.5684,-5.5684,-5.5684,-5.5684,-5.5684,-5.5684,-5.5684,-5.5684,-5.5684,-5.5684,-5.5684,-5.5684,-5.5684,-5.5684,-5.5684,-5.5684,-5.5684,-5.5684,-5.5684,-5.5684,-5.5684,-5.5684,-5.5684,-5.5684,-5.5684,-5.5684,-5.5684,-5.5684,-5.5684,-5.5684,-5.5684,-5.5684,-5.5684,-5.5714,-5.5766,-5.5692,-5.5789,-5.5644,-5.5281,-5.4445,-5.3265,-5.2414,-5.1467,-5.1053,-5.0898,-5.0898,-5.0898,-5.0898,-5.0898,-5.0898,-5.0898,-5.0898,-5.0898,-5.0898,-5.0898,-5.0898,-5.0898,-5.0898,-5.0898,-5.9935,-6.0608,-6.0742,-6.08,-6.08,-6.08,-6.0757,-6.0729,-6.0655,-6.0447,-6.0193,-6.0072,-5.9765,-5.9419,-5.9234,-5.9099,-5.892,-5.8758,-5.8677,-5.8677,-5.8677,-5.8677,-5.8677,-5.8677,-5.8568,-5.8456,-5.7528,-5.684,-5.619,-5.5337,-5.4429,-5.4166,-5.4214,-5.4503,-5.4841,-5.4985,-5.508,-5.5157,-5.5135,-5.508,-5.5085,-5.5094,-5.5229,-5.5468,-5.5618,-5.5684,-5.5684,-5.5684,-5.5684,-5.5684,-5.5684,-5.5684,-5.5684,-5.5684,-5.5684,-5.5684,-5.5684,-5.5684,-5.5684,-5.5684,-5.5684,-5.5684,-5.5684,-5.5684,-5.5684,-5.5684,-5.5684,-5.5684,-5.5684,-5.5684,-5.5684,-5.5684,-5.5684,-5.5684,-5.5684,-5.5684,-5.5684,-5.5684,-5.5684,-5.5684,-5.5684,-5.5684,-5.5684,-5.5684,-5.5684,-5.5684,-5.5684,-5.5684,-5.5684,-5.5724,-5.5766,-5.5826,-5.5875,-5.5943,-5.561,-5.5006,-5.3826,-5.3072,-5.197,-5.1428,-5.113,-5.0956,-5.0956,-5.0917,-5.0898,-5.0898,-5.0898,-5.0898,-5.0898,-5.0898,-5.0898,-5.0898,-5.0898,-5.0898,-5.0898,-5.9588,-5.9762,-6.0492,-6.0781,-6.0781,-6.0781,-6.0762,-6.0757,-6.0697,-6.0585,-6.0412,-6.0193,-5.988,-5.9579,-5.9364,-5.9139,-5.8921,-5.8781,-5.8719,-5.8719,-5.8737,-5.8716,-5.8698,-5.8549,-5.8326,-5.7621,-5.6915,-5.6376,-5.5931,-5.4949,-5.428,-5.4164,-5.4318,-5.4619,-5.4867,-5.5009,-5.5135,-5.5216,-5.5162,-5.5094,-5.5085,-5.5121,-5.5255,-5.5492,-5.5629,-5.5684,-5.5684,-5.5684,-5.5684,-5.5684,-5.5684,-5.5684,-5.5684,-5.5684,-5.5684,-5.5684,-5.5684,-5.5684,-5.5684,-5.5684,-5.5684,-5.5684,-5.5684,-5.5684,-5.5684,-5.5684,-5.5684,-5.5684,-5.5684,-5.5684,-5.5684,-5.5684,-5.5684,-5.5684,-5.5684,-5.5684,-5.5684,-5.5684,-5.5684,-5.5684,-5.5684,-5.5684,-5.5684,-5.5684,-5.5684,-5.5684,-5.5684,-5.5684,-5.5684,-5.5695,-5.5745,-5.5787,-5.5846,-5.5933,-5.5917,-5.5249,-5.4426,-5.3981,-5.3072,-5.2124,-5.1718,-5.1215,-5.1014,-5.0956,-5.0917,-5.0898,-5.0898,-5.0898,-5.0898,-5.0898,-5.0898,-5.0898,-5.0898,-5.0898,-5.0898,-5.8473,-5.8934,-5.9338,-5.9742,-6.0089,-6.0127,-6.0396,-6.0769,-6.0722,-6.0623,-6.0466,-6.0251,-6.0007,-5.9753,-5.951,-5.9234,-5.9002,-5.8902,-5.8864,-5.8862,-5.882,-5.8818,-5.8667,-5.8347,-5.7918,-5.723,-5.6339,-5.567,-5.5503,-5.4558,-5.4093,-5.4198,-5.442,-5.4711,-5.4966,-5.5135,-5.5229,-5.5268,-5.5216,-5.5181,-5.5219,-5.5261,-5.5395,-5.5492,-5.5618,-5.5684,-5.5684,-5.5684,-5.5684,-5.5684,-5.5684,-5.5684,-5.5684,-5.5684,-5.5684,-5.5684,-5.5684,-5.5684,-5.5684,-5.5684,-5.5684,-5.5684,-5.5684,-5.5684,-5.5684,-5.5684,-5.5684,-5.5684,-5.5684,-5.5684,-5.5684,-5.5684,-5.5684,-5.5684,-5.5684,-5.5684,-5.5684,-5.5684,-5.5684,-5.5684,-5.5684,-5.5684,-5.5684,-5.5684,-5.5684,-5.5684,-5.5684,-5.5684,-5.5684,-5.5695,-5.5724,-5.5797,-5.5866,-5.5913,-5.5928,-5.5462,-5.5026,-5.4639,-5.402,-5.3072,-5.2345,-5.1834,-5.1293,-5.0956,-5.0937,-5.0909,-5.0898,-5.0898,-5.0898,-5.0898,-5.089,-5.089,-5.0898,-5.0898,-5.089,-5.7396,-5.805,-5.8242,-5.8684,-5.9204,-5.9261,-5.9742,-6.0423,-6.0465,-6.0463,-6.0512,-6.0337,-6.0148,-5.9866,-5.9598,-5.929,-5.9042,-5.9023,-5.8984,-5.8983,-5.8904,-5.8882,-5.8412,-5.7943,-5.7306,-5.6543,-5.5858,-5.5039,-5.5022,-5.4392,-5.4166,-5.4285,-5.4519,-5.4784,-5.5066,-5.5203,-5.532,-5.5345,-5.5294,-5.5275,-5.5345,-5.5427,-5.5492,-5.5535,-5.5629,-5.5684,-5.5684,-5.5684,-5.5684,-5.5684,-5.5684,-5.5684,-5.5684,-5.5684,-5.5684,-5.5684,-5.5684,-5.5684,-5.5684,-5.5684,-5.5684,-5.5684,-5.5684,-5.5684,-5.5684,-5.5684,-5.5684,-5.5684,-5.5684,-5.5684,-5.5684,-5.5684,-5.5684,-5.5684,-5.5684,-5.5684,-5.5684,-5.5684,-5.5684,-5.5684,-5.5684,-5.5684,-5.5684,-5.5684,-5.5684,-5.5684,-5.5684,-5.5684,-5.5684,-5.5684,-5.5735,-5.5826,-5.5885,-5.5951,-5.5861,-5.5636,-5.5374,-5.5238,-5.46,-5.3788,-5.3072,-5.2461,-5.1931,-5.1401,-5.094,-5.0893,-5.0901,-5.0893,-5.0858,-5.085,-5.0866,-5.0866,-5.0877,-5.0869,-5.0869,-5.706,-5.7223,-5.7973,-5.8357,-5.8415,-5.8454,-5.8915,-5.9588,-5.9635,-6.0025,-6.0348,-6.039,-6.0132,-5.9871,-5.9525,-5.9309,-5.9196,-5.9101,-5.9006,-5.8932,-5.8873,-5.846,-5.7839,-5.7687,-5.6604,-5.5822,-5.5322,-5.5192,-5.4951,-5.439,-5.4217,-5.4388,-5.4651,-5.4901,-5.5135,-5.5281,-5.5333,-5.5383,-5.5333,-5.5268,-5.5255,-5.5358,-5.5456,-5.5527,-5.5618,-5.5684,-5.5684,-5.5684,-5.5684,-5.5684,-5.5684,-5.5684,-5.5684,-5.5684,-5.5684,-5.5684,-5.5684,-5.5684,-5.5684,-5.5684,-5.5684,-5.5684,-5.5684,-5.5684,-5.5684,-5.5684,-5.5684,-5.5684,-5.5684,-5.5684,-5.5684,-5.5684,-5.5684,-5.5684,-5.5684,-5.5684,-5.5684,-5.5684,-5.5684,-5.5684,-5.5684,-5.5684,-5.5684,-5.5684,-5.5684,-5.5684,-5.5684,-5.5684,-5.5684,-5.5684,-5.5735,-5.5826,-5.5885,-5.5923,-5.5959,-5.5715,-5.5655,-5.5655,-5.52,-5.4503,-5.3904,-5.3246,-5.2569,-5.2039,-5.1493,-5.1057,-5.1069,-5.1042,-5.0887,-5.0791,-5.0791,-5.0791,-5.081,-5.0819,-5.081,-5.6272,-5.628,-5.6665,-5.7126,-5.755,-5.755,-5.803,-5.8704,-5.8838,-5.8961,-5.9128,-5.9051,-5.9064,-5.9175,-5.9386,-5.9528,-5.9419,-5.9289,-5.9027,-5.8652,-5.8484,-5.7997,-5.7155,-5.6537,-5.5639,-5.5324,-5.482,-5.4667,-5.4609,-5.453,-5.4371,-5.4584,-5.4818,-5.5085,-5.5255,-5.5389,-5.5461,-5.5492,-5.5444,-5.5358,-5.5333,-5.542,-5.5527,-5.5543,-5.564,-5.5684,-5.5684,-5.5684,-5.5684,-5.5684,-5.5684,-5.5684,-5.5684,-5.5684,-5.5684,-5.5684,-5.5684,-5.5684,-5.5684,-5.5684,-5.5684,-5.5684,-5.5684,-5.5684,-5.5684,-5.5684,-5.5684,-5.5684,-5.5684,-5.5684,-5.5684,-5.5684,-5.5684,-5.5684,-5.5684,-5.5684,-5.5684,-5.5684,-5.5684,-5.5684,-5.5684,-5.5684,-5.5684,-5.5684,-5.5684,-5.5684,-5.5684,-5.5684,-5.5684,-5.5684,-5.5745,-5.5816,-5.5846,-5.5895,-5.5952,-5.5901,-5.5851,-5.5859,-5.5849,-5.521,-5.4716,-5.4078,-5.3404,-5.2732,-5.215,-5.1778,-5.1442,-5.1029,-5.0749,-5.0701,-5.0701,-5.0682,-5.0673,-5.0692,-5.0673,-5.5684,-5.5684,-5.5684,-5.6079,-5.6656,-5.6676,-5.7165,-5.7934,-5.7992,-5.8031,-5.8066,-5.8023,-5.812,-5.8368,-5.8868,-5.894,-5.895,-5.9026,-5.8669,-5.8204,-5.7854,-5.7317,-5.6534,-5.5696,-5.5286,-5.5024,-5.4572,-5.445,-5.4545,-5.4584,-5.4661,-5.4814,-5.499,-5.5216,-5.5408,-5.5516,-5.5573,-5.5573,-5.5516,-5.5444,-5.5408,-5.5523,-5.5593,-5.5607,-5.5651,-5.5684,-5.5684,-5.5684,-5.5684,-5.5684,-5.5684,-5.5684,-5.5684,-5.5684,-5.5684,-5.5684,-5.5684,-5.5684,-5.5684,-5.5684,-5.5684,-5.5684,-5.5684,-5.5684,-5.5684,-5.5684,-5.5684,-5.5684,-5.5684,-5.5684,-5.5684,-5.5684,-5.5684,-5.5684,-5.5684,-5.5684,-5.5684,-5.5684,-5.5684,-5.5684,-5.5684,-5.5684,-5.5684,-5.5684,-5.5684,-5.5684,-5.5684,-5.5684,-5.5684,-5.5684,-5.5745,-5.5787,-5.5826,-5.5846,-5.5914,-5.5961,-5.5969,-5.5987,-5.5986,-5.5849,-5.5299,-5.4807,-5.4229,-5.3558,-5.2887,-5.2165,-5.1661,-5.1105,-5.0586,-5.0536,-5.0495,-5.0516,-5.0516,-5.0526,-5.0526,-5.5684,-5.5684,-5.5684,-5.5752,-5.5818,-5.578,-5.6299,-5.7069,-5.7099,-5.7458,-5.7853,-5.7883,-5.7671,-5.7743,-5.7814,-5.7832,-5.7561,-5.7469,-5.7491,-5.7392,-5.7123,-5.6589,-5.5907,-5.539,-5.5021,-5.4532,-5.439,-5.4519,-5.4707,-5.4903,-5.5009,-5.5094,-5.5183,-5.5314,-5.5456,-5.5593,-5.5596,-5.5596,-5.5551,-5.5516,-5.5485,-5.5562,-5.5596,-5.5638,-5.5651,-5.5684,-5.5684,-5.5684,-5.5684,-5.5684,-5.5684,-5.5684,-5.5684,-5.5684,-5.5684,-5.5684,-5.5684,-5.5684,-5.5684,-5.5684,-5.5684,-5.5684,-5.5684,-5.5684,-5.5684,-5.5684,-5.5684,-5.5684,-5.5684,-5.5684,-5.5684,-5.5684,-5.5684,-5.5684,-5.5684,-5.5684,-5.5684,-5.5684,-5.5684,-5.5684,-5.5684,-5.5684,-5.5684,-5.5684,-5.5684,-5.5684,-5.5684,-5.5684,-5.5684,-5.5695,-5.5735,-5.5766,-5.5776,-5.5826,-5.5866,-5.5895,-5.5933,-5.5961,-5.596,-5.5959,-5.5812,-5.5341,-5.4852,-5.4352,-5.3655,-5.2752,-5.1844,-5.1262,-5.0769,-5.0451,-5.0306,-5.0287,-5.0287,-5.0298,-5.0306,-5.5684,-5.5684,-5.5684,-5.5684,-5.5684,-5.5684,-5.5895,-5.6145,-5.6214,-5.6283,-5.6621,-5.6862,-5.7017,-5.7035,-5.7439,-5.7566,-5.7528,-5.7502,-5.7161,-5.6793,-5.6493,-5.5939,-5.5341,-5.4946,-5.4637,-5.446,-5.4536,-5.4707,-5.4947,-5.5149,-5.5288,-5.5364,-5.5376,-5.5437,-5.5551,-5.5638,-5.5629,-5.5607,-5.5607,-5.5596,-5.5573,-5.5618,-5.5651,-5.5671,-5.5662,-5.5684,-5.5684,-5.5684,-5.5684,-5.5684,-5.5684,-5.5684,-5.5684,-5.5684,-5.5684,-5.5684,-5.5684,-5.5684,-5.5684,-5.5684,-5.5684,-5.5684,-5.5684,-5.5684,-5.5684,-5.5684,-5.5684,-5.5684,-5.5684,-5.5684,-5.5684,-5.5684,-5.5684,-5.5684,-5.5684,-5.5684,-5.5684,-5.5684,-5.5684,-5.5684,-5.5684,-5.5684,-5.5684,-5.5684,-5.5684,-5.5684,-5.5684,-5.5684,-5.5684,-5.5684,-5.5724,-5.5745,-5.5756,-5.5766,-5.5826,-5.5846,-5.5875,-5.5905,-5.5933,-5.5933,-5.5923,-5.5818,-5.5354,-5.4906,-5.4399,-5.3546,-5.2596,-5.1573,-5.0925,-5.0514,-5.0228,-5.0031,-5.005,-5.007,-5.007,-5.5684,-5.5684,-5.5684,-5.5684,-5.5684,-5.5684,-5.5684,-5.5684,-5.5722,-5.5649,-5.5566,-5.609,-5.6263,-5.6389,-5.6654,-5.6927,-5.6878,-5.6826,-5.6551,-5.6215,-5.5822,-5.5409,-5.4953,-5.4676,-5.4616,-5.46,-5.4723,-5.4903,-5.5149,-5.532,-5.5444,-5.5527,-5.5573,-5.5596,-5.5618,-5.5662,-5.5662,-5.5651,-5.5651,-5.5673,-5.5629,-5.5662,-5.5703,-5.5703,-5.5684,-5.5684,-5.5684,-5.5684,-5.5684,-5.5684,-5.5684,-5.5684,-5.5684,-5.5684,-5.5684,-5.5684,-5.5684,-5.5684,-5.5684,-5.5684,-5.5684,-5.5684,-5.5684,-5.5684,-5.5684,-5.5684,-5.5684,-5.5684,-5.5684,-5.5684,-5.5684,-5.5684,-5.5684,-5.5684,-5.5684,-5.5684,-5.5684,-5.5684,-5.5684,-5.5684,-5.5684,-5.5684,-5.5684,-5.5684,-5.5684,-5.5684,-5.5684,-5.5684,-5.5684,-5.5684,-5.5695,-5.5714,-5.5714,-5.5735,-5.5756,-5.5766,-5.5806,-5.5836,-5.5885,-5.5885,-5.5856,-5.5787,-5.5684,-5.5255,-5.4745,-5.4204,-5.3413,-5.2423,-5.1424,-5.051,-5.0193,-4.9824,-4.983,-4.983,-4.9802,-5.5684,-5.5684,-5.5684,-5.5684,-5.5684,-5.5684,-5.5684,-5.5684,-5.5684,-5.5671,-5.5585,-5.5716,-5.5662,-5.5641,-5.5853,-5.5911,-5.5904,-5.5789,-5.565,-5.5556,-5.5429,-5.5118,-5.4954,-5.4795,-5.4749,-5.4882,-5.4981,-5.5121,-5.5294,-5.5456,-5.5562,-5.5607,-5.564,-5.5682,-5.5703,-5.5684,-5.5703,-5.5703,-5.5684,-5.5703,-5.5703,-5.5703,-5.5684,-5.5684,-5.5684,-5.5684,-5.5684,-5.5684,-5.5684,-5.5684,-5.5684,-5.5684,-5.5684,-5.5684,-5.5684,-5.5684,-5.5684,-5.5684,-5.5684,-5.5684,-5.5684,-5.5684,-5.5684,-5.5684,-5.5684,-5.5684,-5.5684,-5.5684,-5.5684,-5.5684,-5.5684,-5.5684,-5.5684,-5.5684,-5.5684,-5.5684,-5.5684,-5.5684,-5.5684,-5.5684,-5.5684,-5.5684,-5.5684,-5.5684,-5.5684,-5.5684,-5.5684,-5.5684,-5.5684,-5.5684,-5.5684,-5.5684,-5.5684,-5.5714,-5.5735,-5.5724,-5.5735,-5.5796,-5.5806,-5.5806,-5.5756,-5.5684,-5.5554,-5.5413,-5.4993,-5.4401,-5.3898,-5.3296,-5.2039,-5.0798,-5.0017,-4.9648,-4.9619,-4.9589,-4.954,-5.5684,-5.5684,-5.5684,-5.5684,-5.5684,-5.5684,-5.5684,-5.5684,-5.5703,-5.5651,-5.5607,-5.5615,-5.5581,-5.5535,-5.5516,-5.5527,-5.5551,-5.5516,-5.5468,-5.548,-5.5301,-5.5203,-5.508,-5.4985,-5.496,-5.5023,-5.5135,-5.5281,-5.5432,-5.5562,-5.5618,-5.5651,-5.5673,-5.5684,-5.5684,-5.5684,-5.5684,-5.5684,-5.5684,-5.5684,-5.5684,-5.5684,-5.5684,-5.5684,-5.5684,-5.5684,-5.5684,-5.5684,-5.5684,-5.5684,-5.5684,-5.5684,-5.5684,-5.5684,-5.5684,-5.5684,-5.5684,-5.5684,-5.5684,-5.5684,-5.5684,-5.5684,-5.5684,-5.5684,-5.5684,-5.5684,-5.5684,-5.5684,-5.5684,-5.5684,-5.5684,-5.5684,-5.5684,-5.5684,-5.5684,-5.5684,-5.5684,-5.5684,-5.5684,-5.5684,-5.5684,-5.5684,-5.5684,-5.5684,-5.5684,-5.5684,-5.5684,-5.5684,-5.5684,-5.5684,-5.5684,-5.5684,-5.5684,-5.5684,-5.5684,-5.5684,-5.5684,-5.5735,-5.5735,-5.5714,-5.5651,-5.5585,-5.5413,-5.5255,-5.4938,-5.4613,-5.4062,-5.3372,-5.2184,-5.1101,-5.0287,-4.959,-4.939,-4.9358,-4.9308,-5.5684,-5.5684,-5.5684,-5.5684,-5.5684,-5.5684,-5.5684,-5.5684,-5.5684,-5.5662,-5.564,-5.5649,-5.5626,-5.5604,-5.5593,-5.5585,-5.5638,-5.5596,-5.5551,-5.5585,-5.5456,-5.5345,-5.5255,-5.5176,-5.5149,-5.5183,-5.5262,-5.5389,-5.5527,-5.5596,-5.566,-5.5692,-5.5684,-5.5684,-5.5684,-5.5684,-5.5684,-5.5684,-5.5684,-5.5684,-5.5684,-5.5684,-5.5684,-5.5684,-5.5684,-5.5684,-5.5684,-5.5684,-5.5684,-5.5684,-5.5684,-5.5684,-5.5684,-5.5684,-5.5684,-5.5684,-5.5684,-5.5684,-5.5684,-5.5684,-5.5684,-5.5684,-5.5684,-5.5684,-5.5684,-5.5684,-5.5684,-5.5684,-5.5684,-5.5684,-5.5684,-5.5684,-5.5684,-5.5684,-5.5684,-5.5684,-5.5684,-5.5684,-5.5684,-5.5684,-5.5684,-5.5684,-5.5684,-5.5684,-5.5684,-5.5684,-5.5684,-5.5684,-5.5684,-5.5684,-5.5684,-5.5684,-5.5684,-5.5684,-5.5684,-5.5684,-5.5684,-5.5684,-5.5673,-5.564,-5.5527,-5.5444,-5.5255,-5.5052,-5.4799,-5.4476,-5.4112,-5.3394,-5.241,-5.1424,-5.051,-4.9874,-4.9297,-4.9148,-4.9148,-5.5684,-5.5684,-5.5684,-5.5684,-5.5684,-5.5684,-5.5684,-5.5684,-5.5684,-5.5684,-5.5684,-5.5684,-5.5673,-5.5684,-5.5692,-5.5692,-5.5692,-5.5673,-5.564,-5.5596,-5.5527,-5.5468,-5.5408,-5.5333,-5.5333,-5.5395,-5.5456,-5.5485,-5.5596,-5.564,-5.5692,-5.5703,-5.5684,-5.5684,-5.5684,-5.5684,-5.5684,-5.5684,-5.5684,-5.5684,-5.5684,-5.5684,-5.5684,-5.5684,-5.5684,-5.5684,-5.5684,-5.5684,-5.5684,-5.5684,-5.5684,-5.5684,-5.5684,-5.5684,-5.5684,-5.5684,-5.5684,-5.5684,-5.5684,-5.5684,-5.5684,-5.5684,-5.5684,-5.5684,-5.5684,-5.5684,-5.5684,-5.5684,-5.5684,-5.5684,-5.5684,-5.5684,-5.5684,-5.5684,-5.5684,-5.5684,-5.5684,-5.5684,-5.5684,-5.5684,-5.5684,-5.5684,-5.5684,-5.5684,-5.5684,-5.5684,-5.5684,-5.5684,-5.5684,-5.5684,-5.5684,-5.5684,-5.5684,-5.5684,-5.5684,-5.5684,-5.5684,-5.5684,-5.5629,-5.5585,-5.5456,-5.5294,-5.5121,-5.4922,-5.4648,-5.4349,-5.3995,-5.3515,-5.2865,-5.1917,-5.1135,-5.0333,-4.9828,-4.9196,-4.9047,-5.5684,-5.5684,-5.5684,-5.5684,-5.5684,-5.5684,-5.5684,-5.5684,-5.5684,-5.5684,-5.5684,-5.5684,-5.5684,-5.5684,-5.5684,-5.5684,-5.5684,-5.5684,-5.5692,-5.566,-5.5596,-5.5562,-5.5527,-5.548,-5.5492,-5.5527,-5.5573,-5.5596,-5.5651,-5.5684,-5.5684,-5.5684,-5.5684,-5.5684,-5.5684,-5.5684,-5.5684,-5.5684,-5.5684,-5.5684,-5.5684,-5.5684,-5.5684,-5.5684,-5.5684,-5.5684,-5.5684,-5.5684,-5.5684,-5.5684,-5.5684,-5.5684,-5.5684,-5.5684,-5.5684,-5.5684,-5.5684,-5.5684,-5.5684,-5.5684,-5.5684,-5.5684,-5.5684,-5.5684,-5.5684,-5.5684,-5.5684,-5.5684,-5.5684,-5.5684,-5.5684,-5.5684,-5.5684,-5.5684,-5.5684,-5.5684,-5.5684,-5.5684,-5.5684,-5.5684,-5.5684,-5.5684,-5.5684,-5.5684,-5.5684,-5.5684,-5.5684,-5.5684,-5.5684,-5.5684,-5.5684,-5.5684,-5.5684,-5.5684,-5.5684,-5.5684,-5.5684,-5.5684,-5.5618,-5.5539,-5.5408,-5.5242,-5.5004,-5.4723,-5.4437,-5.418,-5.3907,-5.346,-5.3144,-5.2772,-5.2048,-5.1155,-5.0337,-4.9723,-4.9109,-5.5684,-5.5684,-5.5684,-5.5684,-5.5684,-5.5684,-5.5684,-5.5684,-5.5684,-5.5684,-5.5684,-5.5684,-5.5684,-5.5684,-5.5684,-5.5684,-5.5684,-5.5684,-5.5703,-5.5673,-5.5651,-5.564,-5.5638,-5.5615,-5.5607,-5.5629,-5.564,-5.5651,-5.5684,-5.5684,-5.5684,-5.5684,-5.5684,-5.5684,-5.5684,-5.5684,-5.5684,-5.5684,-5.5684,-5.5684,-5.5684,-5.5684,-5.5684,-5.5684,-5.5684,-5.5684,-5.5684,-5.5684,-5.5684,-5.5684,-5.5684,-5.5684,-5.5684,-5.5684,-5.5684,-5.5684,-5.5684,-5.5684,-5.5684,-5.5684,-5.5684,-5.5684,-5.5684,-5.5684,-5.5684,-5.5684,-5.5684,-5.5684,-5.5684,-5.5684,-5.5684,-5.5684,-5.5684,-5.5684,-5.5684,-5.5684,-5.5684,-5.5684,-5.5684,-5.5684,-5.5684,-5.5684,-5.5684,-5.5684,-5.5684,-5.5684,-5.5684,-5.5684,-5.5684,-5.5684,-5.5684,-5.5684,-5.5684,-5.5684,-5.5684,-5.5684,-5.5703,-5.5662,-5.5596,-5.5504,-5.5371,-5.5135,-5.4848,-5.4519,-5.4217,-5.4,-5.3832,-5.3813,-5.3553,-5.3181,-5.2791,-5.2048,-5.1156,-5.0301,-4.9688,-5.5684,-5.5684,-5.5684,-5.5684,-5.5684,-5.5684,-5.5684,-5.5684,-5.5684,-5.5684,-5.5684,-5.5684,-5.5684,-5.5684,-5.5684,-5.5684,-5.5684,-5.5684,-5.5684,-5.5684,-5.5684,-5.5673,-5.5673,-5.5684,-5.5662,-5.5673,-5.5684,-5.5673,-5.5684,-5.5684,-5.5684,-5.5684,-5.5684,-5.5684,-5.5684,-5.5684,-5.5684,-5.5684,-5.5684,-5.5684,-5.5684,-5.5684,-5.5684,-5.5684,-5.5684,-5.5684,-5.5684,-5.5684,-5.5684,-5.5684,-5.5684,-5.5684,-5.5684,-5.5684,-5.5684,-5.5684,-5.5684,-5.5684,-5.5684,-5.5684,-5.5684,-5.5684,-5.5684,-5.5684,-5.5684,-5.5684,-5.5684,-5.5684,-5.5684,-5.5684,-5.5684,-5.5684,-5.5684,-5.5684,-5.5684,-5.5684,-5.5684,-5.5684,-5.5684,-5.5684,-5.5684,-5.5684,-5.5684,-5.5684,-5.5684,-5.5684,-5.5684,-5.5684,-5.5684,-5.5684,-5.5684,-5.5684,-5.5684,-5.5684,-5.5684,-5.5703,-5.5703,-5.566,-5.5562,-5.5413,-5.5281,-5.4995,-5.4667,-5.4371,-5.4055,-5.3963,-5.3813,-5.3794,-5.3775,-5.3608,-5.3218,-5.281,-5.2048,-5.1119,-5.0283,-5.5684,-5.5684,-5.5684,-5.5684,-5.5684,-5.5684,-5.5684,-5.5684,-5.5684,-5.5684,-5.5684,-5.5684,-5.5684,-5.5684,-5.5684,-5.5684,-5.5684,-5.5684,-5.5684,-5.5684,-5.5684,-5.5684,-5.5684,-5.5684,-5.5684,-5.5684,-5.5684,-5.5684,-5.5684,-5.5684,-5.5684,-5.5684,-5.5684,-5.5684,-5.5684,-5.5684,-5.5684,-5.5684,-5.5684,-5.5684,-5.5684,-5.5684,-5.5684,-5.5684,-5.5684,-5.5684,-5.5684,-5.5684,-5.5684,-5.5684,-5.5684,-5.5684,-5.5684,-5.5684,-5.5684,-5.5684,-5.5684,-5.5684,-5.5684,-5.5684,-5.5684,-5.5684,-5.5684,-5.5684,-5.5684,-5.5684,-5.5684,-5.5684,-5.5684,-5.5684,-5.5684,-5.5684,-5.5684,-5.5684,-5.5684,-5.5684,-5.5684,-5.5684,-5.5684,-5.5684,-5.5684,-5.5684,-5.5684,-5.5684,-5.5684,-5.5684,-5.5684,-5.5684,-5.5684,-5.5684,-5.5684,-5.5684,-5.5684,-5.5684,-5.5684,-5.5684,-5.5692,-5.5607,-5.5527,-5.5371,-5.5176,-5.4784,-5.4403,-5.4197,-5.3981,-5.387,-5.3832,-5.3813,-5.3775,-5.3738,-5.3645,-5.3218,-5.2828,-5.2048,-5.1119,-5.5684,-5.5684,-5.5684,-5.5684,-5.5684,-5.5684,-5.5684,-5.5684,-5.5684,-5.5684,-5.5684,-5.5684,-5.5684,-5.5684,-5.5684,-5.5684,-5.5684,-5.5684,-5.5684,-5.5684,-5.5684,-5.5684,-5.5684,-5.5684,-5.5684,-5.5684,-5.5684,-5.5684,-5.5684,-5.5684,-5.5684,-5.5684,-5.5684,-5.5684,-5.5684,-5.5684,-5.5684,-5.5684,-5.5684,-5.5684,-5.5684,-5.5684,-5.5684,-5.5684,-5.5684,-5.5684,-5.5684,-5.5684,-5.5684,-5.5684,-5.5684,-5.5684,-5.5684,-5.5684,-5.5684,-5.5684,-5.5684,-5.5684,-5.5684,-5.5684,-5.5684,-5.5684,-5.5684,-5.5684,-5.5684,-5.5684,-5.5684,-5.5684,-5.5684,-5.5684,-5.5684,-5.5684,-5.5684,-5.5684,-5.5684,-5.5684,-5.5684,-5.5684,-5.5684,-5.5684,-5.5684,-5.5684,-5.5684,-5.5684,-5.5684,-5.5684,-5.5684,-5.5684,-5.5684,-5.5684,-5.5684,-5.5684,-5.5684,-5.5684,-5.5684,-5.5673,-5.5662,-5.5585,-5.548,-5.5191,-5.4928,-5.453,-5.4179,-5.4055,-5.3963,-5.3851,-5.3813,-5.3813,-5.3813,-5.3775,-5.3738,-5.3608,-5.3237,-5.2847,-5.2067,-5.5684,-5.5684,-5.5684,-5.5684,-5.5684,-5.5684,-5.5684,-5.5684,-5.5684,-5.5684,-5.5684,-5.5684,-5.5684,-5.5684,-5.5684,-5.5684,-5.5684,-5.5684,-5.5684,-5.5684,-5.5684,-5.5684,-5.5684,-5.5684,-5.5684,-5.5684,-5.5684,-5.5684,-5.5684,-5.5684,-5.5684,-5.5684,-5.5684,-5.5684,-5.5684,-5.5684,-5.5684,-5.5684,-5.5684,-5.5684,-5.5684,-5.5684,-5.5684,-5.5684,-5.5684,-5.5684,-5.5684,-5.5684,-5.5684,-5.5684,-5.5684,-5.5684,-5.5684,-5.5684,-5.5684,-5.5684,-5.5684,-5.5684,-5.5684,-5.5684,-5.5684,-5.5684,-5.5684,-5.5684,-5.5684,-5.5684,-5.5684,-5.5684,-5.5684,-5.5684,-5.5684,-5.5684,-5.5684,-5.5684,-5.5684,-5.5684,-5.5684,-5.5684,-5.5684,-5.5684,-5.5684,-5.5684,-5.5684,-5.5684,-5.5684,-5.5684,-5.5684,-5.5684,-5.5684,-5.5684,-5.5684,-5.5684,-5.5684,-5.5684,-5.5684,-5.5673,-5.5662,-5.5562,-5.5413,-5.505,-5.4716,-5.4384,-5.4145,-5.4037,-5.3926,-5.3832,-5.3813,-5.3813,-5.3813,-5.3813,-5.3775,-5.372,-5.3627,-5.3237,-5.2865,-5.5684,-5.5684,-5.5684,-5.5684,-5.5684,-5.5684,-5.5684,-5.5684,-5.5684,-5.5684,-5.5684,-5.5684,-5.5684,-5.5684,-5.5684,-5.5684,-5.5684,-5.5684,-5.5684,-5.5684,-5.5684,-5.5684,-5.5684,-5.5684,-5.5684,-5.5684,-5.5684,-5.5684,-5.5684,-5.5684,-5.5684,-5.5684,-5.5684,-5.5684,-5.5684,-5.5684,-5.5684,-5.5684,-5.5684,-5.5684,-5.5684,-5.5684,-5.5684,-5.5684,-5.5684,-5.5684,-5.5684,-5.5684,-5.5684,-5.5684,-5.5684,-5.5684,-5.5684,-5.5684,-5.5684,-5.5684,-5.5684,-5.5684,-5.5684,-5.5684,-5.5684,-5.5684,-5.5684,-5.5684,-5.5684,-5.5684,-5.5684,-5.5684,-5.5684,-5.5684,-5.5684,-5.5684,-5.5684,-5.5684,-5.5684,-5.5684,-5.5684,-5.5684,-5.5684,-5.5684,-5.5684,-5.5684,-5.5684,-5.5684,-5.5684,-5.5684,-5.5684,-5.5684,-5.5684,-5.5684,-5.5684,-5.5684,-5.5684,-5.5684,-5.5684,-5.5673,-5.564,-5.5539,-5.5339,-5.4957,-5.4629,-5.4317,-5.4109,-5.3982,-5.3907,-5.3832,-5.3813,-5.3813,-5.3813,-5.3813,-5.3813,-5.3775,-5.3738,-5.3627,-5.3255]},{"header":{"parameterUnit":"m.s-1","parameterCategory":1,"la1":31.0,"la2":29.5877,"lo1":-88.7671,"lo2":-86.6584,"dy":0.0162,"dx":0.0185,"nx":115,"ny":88,"refTime":"2023-03-07T06:00:00:Z","depth":0,"parameterNumber":3,"parameterNumberName":"V-component_of_WINDS"},"data":[0.0,0.0,0.0,0.0,0.0,0.0,0.0,0.0,0.0,0.0,0.0,0.0,0.0,0.0,0.0,0.0,0.0,0.0,0.0,0.0,0.0,0.0,0.0,0.0,0.0,0.0,0.0,0.0,0.0,0.0,0.0,0.0,0.0,0.0,0.0,0.0,0.0,0.0,0.0,0.0,0.0,0.0,0.0,0.0,0.0,0.0,0.0,0.0,0.0,0.0,0.0,0.0,0.0,0.0,0.0,0.0,0.0,0.0,0.0,0.0,0.0,0.0,0.0,0.0,0.0,0.0,0.0,0.0,0.0,0.0,0.0,0.0,0.0,0.0,0.0,0.0,0.0,0.0,0.0,0.0,0.0,0.0,0.0,0.0,0.0,0.0,0.0,0.0,0.0,0.0,0.0,0.0,0.0,0.0,0.0,0.0,0.0,0.0,0.0,0.0,0.0,0.0,0.0,0.0,0.0,0.0,0.0,0.0,0.0,0.0,0.0,0.0,0.0,0.0,0.0,0.0,0.0,0.0,0.0,0.0,0.0,0.0,0.0,0.0,0.0,0.0,0.0,0.0,0.0,0.0,0.0,0.0,0.0,0.0,0.0,0.0,0.0,0.0,0.0,0.0,0.0,0.0,0.0,0.0,0.0,0.0,0.0,0.0,0.0,0.0,0.0,0.0,0.0,0.0,0.0,0.0,0.0,0.0,0.0,0.0,0.0,0.0,0.0,0.0,0.0,0.0,0.0,0.0,0.0,0.0,0.0,0.0,0.0,0.0,0.0,0.0,0.0,0.0,0.0,0.0,0.0,0.0,0.0,0.0,0.0,0.0,0.0,0.0,0.0,0.0,0.0,0.0,0.0,0.0,0.0,0.0,0.0,0.0,0.0,0.0,0.0,0.0,0.0,0.0,0.0,0.0,0.0,0.0,0.0,0.0,0.0,0.0,0.0,0.0,0.0,0.0,0.0,0.0,0.0,0.0,0.0,0.0,0.0,0.0,0.0,0.0,0.0,0.0,0.0,0.0,0.0,0.0,0.0,0.0,0.0,0.0,0.0,0.0,0.0,0.0,0.0,0.0,0.0,0.0,0.0,0.0,0.0,0.0,0.0,0.0,0.0,0.0,0.0,0.0,0.0,0.0,0.0,0.0,0.0,0.0,0.0,0.0,0.0,0.0,0.0,0.0,0.0,0.0,0.0,0.0,0.0,0.0,0.0,0.0,0.0,0.0,0.0,0.0,0.0,0.0,0.0,0.0,0.0,0.0,0.0,0.0,0.0,0.0,0.0,0.0,0.0,0.0,0.0,0.0,0.0,0.0,0.0,0.0,0.0,0.0,0.0,0.0,0.0,0.0,0.0,0.0,0.0,0.0,0.0,0.0,0.0,0.0,0.0,0.0,0.0,0.0,0.0,0.0,0.0,0.0,0.0,0.0,0.0,0.0,0.0,0.0,0.0,0.0,0.0,0.0,0.0,0.0,0.0,0.0,0.0,0.0,0.0,0.0,0.0,0.0,0.0,0.0,0.0,0.0,0.0,0.0,0.0,0.0,0.0,0.0,0.0,0.0,0.0,0.0,0.0,0.0,0.0,0.0,0.0,0.0,0.0,0.0,0.0,0.0,0.0,0.0,0.0,0.0,0.0,0.0,0.0,0.0,0.0,0.0,0.0,0.0,0.0,0.0,0.0,0.0,0.0,0.0,0.0,0.0,0.0,0.0,0.0,0.0,0.0,0.0,0.0,0.0,0.0,0.0,0.0,0.0,0.0,0.0,0.0,0.0,0.0,0.0,0.0,0.0,0.0,0.0,0.0,0.0,0.0,0.0,0.0,0.0,0.0,0.0,0.0,0.0,0.0,0.0,0.0,0.0,0.0,0.0,0.0,0.0,0.0,0.0,0.0,0.0,0.0,0.0,0.0,0.0,0.0,0.0,0.0,0.0,0.0,0.0,0.0,0.0,0.0,0.0,0.0,0.0,0.0,0.0,0.0,0.0,0.0,0.0,0.0,0.0,0.0,0.0,0.0,0.0,0.0,0.0,0.0,0.0,0.0,0.0,0.0,0.0,0.0,0.0,0.0,0.0,0.0,0.0,0.0,0.0,0.0,0.0,0.0,0.0,0.0,0.0,0.0,0.0,0.0,0.0,0.0,0.0,0.0,0.0,0.0,0.0,0.0,0.0,0.0,0.0,0.0,0.0,0.0,0.0,0.0,0.0,0.0,0.0,0.0,0.0,0.0,0.0,0.0,0.0,0.0,0.0,0.0,0.0,0.0,0.0,0.0,0.0,0.0,0.0,0.0,0.0,0.0,0.0,0.0,0.0,0.0,0.0,0.0,0.0,0.0,0.0,0.0,0.0,0.0,0.0,0.0,0.0,0.0,0.0,0.0,0.0,0.0,0.0,0.0,0.0,0.0,0.0,0.0,0.0,0.0,0.0,0.0,0.0,0.0,0.0,0.0,0.0,0.0,0.0,0.0,0.0,0.0,0.0,0.0,0.0,0.0,0.0,0.0,0.0,0.0,0.0,0.0,0.0,0.0,0.0,0.0,0.0,0.0,0.0,0.0,0.0,0.0,0.0,0.0,0.0,0.0,0.0,0.0,0.0,0.0,0.0,0.0,0.0,0.0,0.0,0.0,0.0,0.0,0.0,0.0,0.0,0.0,0.0,0.0,0.0,0.0,0.0,0.0,0.0,0.0,0.0,0.0,0.0,0.0,0.0,0.0,0.0,0.0,0.0,0.0,0.0,0.0,0.0,0.0,0.0,0.0,0.0,0.0,0.0,0.0,0.0,0.0,0.0,0.0,0.0,0.0,0.0,0.0,0.0,0.0,0.0,0.0,0.0,0.0,0.0,0.0,0.0,0.0,0.0,0.0,0.0,0.0,0.0,0.0,0.0,0.0,0.0,0.0,0.0,0.0,0.0,0.0,0.0,0.0,0.0,0.0,0.0,0.0,0.0,0.0,0.0,0.0,0.0,0.0,0.0,0.0,0.0,0.0,0.0,0.0,0.0,0.0,0.0,0.0,0.0,0.0,0.0,0.0,0.0,0.0,0.0,0.0,0.0,0.0,0.0,0.0,0.0,0.0,0.0,0.0,0.0,0.0,0.0,0.0,0.0,0.0,0.0,0.0,0.0,0.0,0.0,0.0,0.0,0.0,0.0,0.0,0.0,0.0,0.0,0.0,0.0,0.0,0.0,0.0,0.0,0.0,0.0,0.0,0.0,0.0,0.0,0.0,0.0,0.0,0.0,0.0,0.0,0.0,0.0,0.0,0.0,0.0,0.0,0.0,0.0,0.0,0.0,0.0,0.0,0.0,0.0,0.0,0.0,0.0,0.0,0.0,0.0,0.0,0.0,0.0,0.0,0.0,0.0,0.0,0.0,0.0,0.0,0.0,0.0,0.0,0.0,0.0,0.0,0.0,0.0,0.0,0.0,0.0,0.0,0.0,0.0,0.0,0.0,0.0,0.0,0.0,0.0,0.0,0.0,0.0,0.0,0.0,0.0,0.0,0.0,0.0,0.0,0.0,0.0,0.0,0.0,0.0,0.0,0.0,0.0,0.0,0.0,0.0,0.0,0.0,0.0,0.0,0.0,0.0,0.0,0.0,0.0,0.0,0.0,0.0,0.0,0.0,0.0,0.0,0.0,0.0,0.0,0.0,0.0,0.0,0.0,0.0,0.0,0.0,0.0,0.0,0.0,0.0,0.0,0.0,0.0,0.0,0.0,0.0,0.0,0.0,0.0,0.0,0.0,0.0,0.0,0.0,0.0,0.0,0.0,0.0,0.0,0.0,0.0,0.0,0.0,0.0,0.0,0.0,0.0,0.0,0.0,0.0,0.0,0.0,0.0,0.0,0.0,0.0,0.0,0.0,0.0,0.0,0.0,0.0,0.0,0.0,0.0,0.0,0.0,0.0,0.0,0.0,0.0,0.0,0.0,0.0,0.0,0.0,0.0,0.0,0.0,0.0,0.0,0.0,0.0,0.0,0.0,0.0,0.0,0.0,0.0,0.0,0.0,0.0,0.0,0.0,0.0,0.0,0.0,0.0,0.0,0.0,0.0,0.0,0.0,0.0,0.0,0.0,0.0,0.0,0.0,0.0,0.0,0.0,0.0,0.0,0.0,0.0,0.0,0.0,0.0,0.0,0.0,0.0,0.0,0.0,0.0,0.0,0.0,0.0,0.0,0.0,0.0,0.0,0.0,0.0,0.0,0.0,0.0,0.0,0.0,0.0,0.0,0.0,0.0,0.0,0.0,0.0,0.0,0.0,0.0,0.0,0.0,0.2654,0.0,0.0,0.0,0.0,0.0,0.0,0.0,0.0,0.0,0.0,0.0,0.0,0.0,0.0,0.0,0.0,0.0,0.0,0.0,0.0,0.0,0.0,0.0,0.0,0.0,0.0,0.0,0.0,0.0,0.0,0.0,0.0,0.0,0.0,0.0,0.0,0.0,0.0,0.0,0.0,0.0,0.0,0.0,0.0,0.0,0.0,0.0,0.0,0.0,0.0,0.0,0.0,0.0,0.0,0.0,0.0,0.0,0.0,0.0,0.0,0.0,0.0,0.0,0.0,0.0,0.0,0.0,0.0,0.0,0.0,0.0,0.0,0.0,0.0,0.0,0.0,0.0,0.0,0.0,0.0,0.0,0.0,0.0,0.0,0.0,0.0,0.0,0.0,0.0,0.0,0.0,0.0,0.0,0.0,0.0,0.0,0.0,0.0,0.0,0.0,0.0,0.0,0.0,0.0,0.0,0.0,0.0,0.0,0.0,0.0,0.1645,0.1816,0.1967,0.2172,0.2463,0.0,0.0,0.0,0.0,0.0,0.0,0.0,0.0,0.0,0.0,0.0,0.0,0.0,0.0,0.0,0.0,0.0,0.0,0.0,0.0,0.0,0.0,0.0,0.0,0.0,0.0,0.0,0.0,0.0,0.0,0.0,0.0,0.0,0.0,0.0,0.0,0.0,0.0,0.0,0.0,0.0,0.0,0.0,0.0,0.0,0.0,0.0,0.0,0.0,0.0,0.0,0.0,0.0,0.0,0.0,0.0,0.0,0.0,0.0,0.0,0.0,0.0,0.0,0.0,0.0,0.0,0.0,0.0,0.0,0.0,0.0,0.0,0.0,0.0,0.0,0.0,0.0,0.0,0.0,0.0,0.0,0.0,0.0,0.0,0.0,0.0,0.0,0.0,0.0,0.0,0.0,0.0,0.0,0.0,0.0,0.0,0.0,0.0,0.0,0.0,0.0,0.0,0.0,0.0,0.0,0.0,0.0,0.0,0.0,0.0,0.0,0.0,0.1717,0.1965,0.2364,0.0,0.0,0.0,0.0,0.0,0.0,0.0,0.0,0.0,0.0,0.0,0.0,0.0,0.0,0.0,0.0,0.0,0.0,0.0,0.0,0.0,0.0,0.0,0.0,0.0,0.0,0.0,0.0,0.0,0.0,0.0,0.0,0.0,0.0,0.0,0.0,0.0,0.0,0.0,0.0,0.0,0.0,0.0,0.0,0.0,0.0,0.0,0.0,0.0,0.0,0.0,0.0,0.0,0.0,0.0,0.0,0.0,0.0,0.0,0.0,0.0,0.0,0.0,0.0,0.0,0.0,0.0,0.0,0.0,0.0,0.0,0.0,0.0,0.0,0.0,0.0,0.0,0.0,0.0,0.0,0.0,0.0,0.0,0.0,0.0,0.0,0.0,0.0,0.0,0.0,0.0,0.0,0.0,0.0,0.0,0.0,0.0,0.0,0.0,0.0,0.0,0.0,0.0,0.0,0.0,0.0,0.0,0.0,0.0,0.0,0.1116,0.1419,0.1604,0.0,0.247,0.0,0.0,0.0,0.0,0.0,0.0,0.0,0.0,0.0,0.0,0.0,0.0,0.0,0.0,0.0,0.0,0.0,0.0,0.0,0.0,0.0,0.0,0.0,0.0,0.0,0.0,0.0,0.0,0.0,0.0,0.0,0.0,0.0,0.0,0.0,0.0,0.0,0.0,0.0,0.0,0.0,0.0,0.0,0.0,0.0,0.0,0.0,0.0,0.0,0.0,0.0,0.0,0.0,0.0,0.0,0.0,0.0,0.0,0.0,0.0,0.0,0.0,0.0,0.0,0.0,0.0,0.0,0.0,0.0,0.0,0.0,0.0,0.0,0.0,0.0,0.0,0.0,0.0,0.0,0.0,0.0,0.0,0.0,0.0,0.0,0.0,0.0,0.0,0.0,0.0,0.0,0.0,0.0,0.0,0.0,0.0,0.0,0.0,0.0,0.0,0.0,0.0,0.0,0.0,0.0,0.0,0.0,0.0,0.0,0.0,0.0762,0.1087,0.1489,0.1886,0.0,0.0,0.0,0.0,0.0,0.0,0.0,0.0,0.0,0.0,0.0,0.0,0.0,0.0,0.0,0.0,0.0,0.0,0.0,0.0,0.0,0.0,0.0,0.0,0.0,0.0,0.0,0.0,0.0,0.0,0.0,0.0,0.0,0.0,0.0,0.0,0.0,0.0,0.0,0.0,0.0,0.0,0.0,0.0,0.0,0.0,0.0,0.0,0.0,0.0,0.0,0.0,0.0,0.0,0.0,0.0,0.0,0.0,0.0,0.0,0.0,0.0,0.0,0.0,0.0,0.0,0.0,0.0,0.0,0.0,0.0,0.0,0.0,0.0,0.0,0.0,0.0,0.0,0.0,0.0,0.0,0.0,0.0,0.0,0.0,0.0,0.0,0.0,0.0,0.0,0.0,0.0,0.0,0.0,0.0,0.0,0.0,0.0,0.0,0.0,0.0,0.0,0.0,0.0,0.0,0.0,0.0,0.0,0.0,0.0,0.0201,0.0519,0.0981,0.1416,0.1802,0.2129,0.0,0.0,0.0,0.0,0.0,0.0,0.0,0.0,0.0,0.0,0.0,0.0,0.0,0.0,0.0,0.0,0.0,0.0,0.0,0.0,0.0,0.0,0.0,0.0,0.0,0.0,0.0,0.0,0.0,0.0,0.0,0.0,0.0,0.0,0.0,0.0,0.0,0.0,0.0,0.0,0.0,0.0,0.0,0.0,0.0,0.0,0.0,0.0,0.0,0.0,0.0,0.0,0.0,0.0,0.0,0.0,0.0,0.0,0.0,0.0,0.0,0.0,0.0,0.0,0.0,0.0,0.0,0.0,0.0,0.0,0.0,0.0,0.0,0.0,0.0,0.0,0.0,0.0,0.0,0.0,0.0,0.0,0.0,0.0,0.0,0.0,0.0,0.0,0.0,0.0,0.0,0.0,0.0,0.0,0.0,0.0,0.0,0.0,0.0,0.0,0.0,0.0,0.0,0.0,0.0,0.0,0.0,0.0,-0.0471,-0.0121,0.0399,0.1167,0.1386,0.1642,0.0,0.0,0.0,0.0,0.0,0.0,0.0,0.0,0.0,0.0,0.0,0.0,0.0,0.0,0.0,0.0,0.0,0.0,0.0,0.0,0.0,0.0,0.0,0.0,0.0,0.0,0.0,0.0,0.0,0.0,0.0,0.0,0.0,0.0,0.0,0.0,0.0,0.0,0.0,0.0,0.0,0.0,0.0,0.0,0.0,0.0,0.0,0.0,0.0,0.0,0.0,0.0,0.0,0.0,0.0,0.0,0.0,0.0,0.0,0.0,0.0,0.0,0.0,0.0,0.0,0.0,0.0,0.0,0.0,0.0,0.0,0.0,0.0,0.0,0.0,0.0,0.0,0.0,0.0,0.0,0.0,0.0,0.0,0.0,0.0,0.0,0.0,0.0,0.0,0.0,0.0,0.0,0.0,0.0,0.0,0.0,0.0,0.0,0.0,0.0,0.0,0.0,0.0,0.0,0.0,0.0,0.0,0.0,0.0,-0.0821,-0.0184,0.0463,0.1174,0.139,0.1627,0.0,0.0,0.0,0.0,0.0,0.0,0.0,0.0,0.0,0.0,0.0,0.0,0.0,0.0,0.0,0.0,0.0,0.0,0.0,0.0,0.0,0.0,0.0,0.0,0.0,0.0,0.0,0.0,0.0,0.0,0.0,0.0,0.0,0.0,0.0,0.0,0.0,0.0,0.0,0.0,0.0,0.0,0.0,0.0,0.0,0.0,0.0,0.0,0.0,0.0,0.0,0.0,0.0,0.0,0.0,0.0,0.0,0.0,0.0,0.0,0.0,0.0,0.0,0.0,0.0,0.0,0.0,0.0,0.0,0.0,0.0,0.0,0.0,0.0,0.0,0.0,0.0,0.0,0.0,0.0,0.0,0.0,0.0,0.0,0.0,0.0,0.0,0.0,0.0,0.0,0.0,0.0,0.0,0.0,0.0,0.0,0.0,0.0,0.0,0.0,0.0,0.0,0.0,0.0,0.0,0.0,0.0,0.0,0.0,-0.103,0.0,0.0291,0.0947,0.1263,0.1605,0.0,0.0,0.0,0.0,0.0,0.0,0.0,0.0,0.0,0.0,0.0,0.0,0.0,0.0,0.0,0.0,0.0,0.0,0.0,0.0,0.0,0.0,0.0,0.0,0.0,0.0,0.0,0.0,0.0,0.0,0.0,0.0,0.0,0.0,0.0,0.0,0.0,0.0,0.0,0.0,0.0,0.0,0.0,0.0,0.0,0.0,0.0,0.0,0.0,0.0,0.0,0.0,0.0,0.0,0.0,0.0,0.0,0.0,0.0,0.0,0.0,0.0,0.0,0.0,0.0,0.0,0.0,0.0,0.0,0.0,0.0,0.0,0.0,0.0,0.0,0.0,0.0,0.0,0.0,0.0,0.0,0.0,0.0,0.0,0.0,0.0,0.0,0.0,0.0,0.0,0.0,0.0,0.0,0.0,0.0,0.0,0.0,0.0,0.0,0.0,0.0,0.0,0.0,0.0,0.0,0.0,0.0,0.0,-0.1789,-0.1151,-0.0699,-0.0177,0.0472,0.0991,0.145,0.0,0.0,0.0,0.0,0.0,0.0,0.0,0.0,0.0,0.0,0.0,0.0,0.0,0.0,0.0,0.0,0.0,0.0,0.0,0.0,0.0,0.0,0.0,0.0,0.0,0.0,0.0,0.0,0.0,0.0,0.0,0.0,0.0,0.0,0.0,0.0,0.0,0.0,0.0,0.0,0.0,0.0,0.0,0.0,0.0,0.0,0.0,0.0,0.0,0.0,0.0,0.0,0.0,0.0,0.0,0.0,0.0,0.0,0.0,0.0,0.0,0.0,0.0,0.0,0.0,0.0,0.0,0.0,0.0,0.0,0.0,0.0,0.0,0.0,0.0,0.0,0.0,0.0,0.0,0.0,0.0,0.0,0.0,0.0,0.0,0.0,0.0,0.0,0.0,0.0,0.0,0.0,0.0,0.0,0.0,0.0,0.0,0.0,0.0,0.0,0.0,0.0,0.0,0.0,0.0,0.0,0.0,0.0,0.0,-0.1506,-0.1035,-0.0506,0.0073,0.0675,0.1186,0.0,0.0,0.0,0.0,0.0,0.0,0.0,0.0,0.0,0.0,0.0,0.0,0.0,0.0,0.0,0.0,0.0,0.0,0.0,0.0,0.0,0.0,0.0,0.0,0.0,0.0,0.0,0.0,0.0,0.0,0.0,0.0,0.0,0.0,0.0,0.0,0.0,0.0,0.0,0.0,0.0,0.0,0.0,0.0,0.0,0.0,0.0,0.0,0.0,0.0,0.0,0.0,0.0,0.0,0.0,0.0,0.0,0.0,0.0,0.0,0.0,0.0,0.0,0.0,0.0,0.0,0.0,0.0,0.0,0.0,0.0,0.0,0.0,0.0,0.0,0.0,0.0,0.0,0.0,0.0,0.0,0.0,0.0,0.0,0.0,0.0,0.0,0.0,0.0,0.0,0.0,0.0,0.0,0.0,0.0,0.0,0.0,0.0,0.0,0.0,0.0,0.0,0.0,0.0,0.0,0.0,0.0,0.0,0.0,-0.1977,-0.1413,-0.0904,-0.0418,0.0223,0.0798,0.128,0.0,0.0,0.0,0.0,0.0,0.0,0.0,0.0,0.0,0.0,0.0,0.0,0.0,0.0,0.0,0.0,0.0,0.0,0.0,0.0,0.0,0.0,0.0,0.0,0.0,0.0,0.0,0.0,0.0,0.0,0.0,0.0,0.0,0.0,0.0,0.0,0.0,0.0,0.0,0.0,0.0,0.0,0.0,0.0,0.0,0.0,0.0,0.0,0.0,0.0,0.0,0.0,0.0,0.0,0.0,0.0,0.0,0.0,0.0,0.0,0.0,0.0,0.0,0.0,0.0,0.0,0.0,0.0,0.0,0.0,0.0,0.0,0.0,0.0,0.0,0.0,0.0,0.0,0.0,0.0,0.0,0.0,0.0,0.0,0.0,0.0,0.0,0.0,0.0,0.0,0.0,0.0,0.0,0.0,0.0,0.0,0.0,0.0,0.0,0.0,0.0,0.0,0.0,0.0,0.0,0.0,0.0,0.0,-0.2519,-0.1894,-0.1397,-0.1017,-0.0278,0.0346,0.0,0.0,0.0,0.0,0.0,0.0,0.0,0.0,0.0,0.0,0.0,0.0,0.0,0.0,0.0,0.0,0.0,0.0,0.0,0.0,0.0,0.0,0.0,0.0,0.0,0.0,0.0,0.0,0.0,0.0,0.0,0.0,0.0,0.0,0.0,0.0,0.0,0.0,0.0,0.0,0.0,0.0,0.0,0.0,0.0,0.0,0.0,0.0,0.0,0.0,0.0,0.0,0.0,0.0,0.0,0.0,0.0,0.0,0.0,0.0,0.0,0.0,0.0,0.0,0.0,0.0,0.0,0.0,0.0,0.0,0.0,0.0,0.0,0.0,0.0,0.0,0.0,0.0,0.0,0.0,0.0,0.0,0.0,0.0,0.0,0.0,0.0,0.0,0.0,0.0,0.0,0.0,0.0,0.0,0.0,0.0,0.0,0.0,0.0,0.0,0.0,0.0,0.0,0.0,0.0,0.0,0.0,0.0,0.0,-0.2846,-0.2394,-0.1939,-0.15,-0.0883,-0.0232,0.0,0.0,0.0,0.0,0.0,0.0,0.0,0.0,0.0,0.0,0.0,0.0,0.0,0.0,0.0,0.0,0.0,0.0,0.0,0.0,0.0,0.0,0.0,0.0,0.0,0.0,0.0,0.0,0.0,0.0,0.0,0.0,0.0,0.0,0.0,0.0,0.0,0.0,0.0,0.0,0.0,0.0,0.0,0.0,0.0,0.0,0.0,0.0,0.0,0.0,0.0,0.0,0.0,0.0,0.0,0.0,0.0,0.0,0.0,0.0,0.0,0.0,0.0,0.0,0.0,0.0,0.0,0.0,0.0,0.0,0.0,0.0,0.0,0.0,0.0,0.0,0.0,0.0,0.0,0.0,0.0,0.0,0.0,0.0,0.0,0.0,0.0,0.0,0.0,0.0,0.0,0.0,0.0,0.0,0.0,0.0,0.0,0.0,0.0,0.0,0.0,0.0,0.0,0.0,0.0,0.0,0.0,0.0,-0.3166,-0.3276,-0.2948,-0.2581,-0.2204,-0.1449,-0.0713,0.0,0.0,0.0,0.0,0.0,0.0,0.0,0.0,0.0,0.0,0.0,0.0,0.0,0.0,0.0,0.0,0.0,0.0,0.0,0.0,0.0,0.0,0.0,0.0,0.0,0.0,0.0,0.0,0.0,0.0,0.0,0.0,0.0,0.0,0.0,0.0,0.0,0.0,0.0,0.0,0.0,0.0,0.0,0.0,0.0,0.0,0.0,0.0,0.0,0.0,0.0,0.0,0.0,0.0,0.0,0.0,0.0,0.0,0.0,0.0,0.0,0.0,0.0,0.0,0.0,0.0,0.0,0.0,0.0,0.0,0.0,0.0,0.0,0.0,0.0,0.0,0.0,0.0,0.0,0.0,0.0,0.0,0.0,0.0,0.0,0.0,0.0,0.0,0.0,0.0,0.0,0.0,0.0,0.0,0.0,0.0,0.0,0.0,0.0,0.0,0.0,0.0,0.0,0.0,0.0,0.0,0.0,0.0,-0.3788,-0.3848,-0.3471,-0.3184,-0.2918,-0.198,-0.1143,0.0,0.0,0.0,0.0,0.0,0.0,0.0,0.0,0.0,0.0,0.0,0.0,0.0,0.0,0.0,0.0,0.0,0.0,0.0,0.0,0.0,0.0,0.0,0.0,0.0,0.0,0.0,0.0,0.0,0.0,0.0,0.0,0.0,0.0,0.0,0.0,0.0,0.0,0.0,0.0,0.0,0.0,0.0,0.0,0.0,0.0,0.0,0.0,0.0,0.0,0.0,0.0,0.0,0.0,0.0,0.0,0.0,0.0,0.0,0.0,0.0,0.0,0.0,0.0,0.0,0.0,0.0,0.0,0.0,0.0,0.0,0.0,0.0,0.0,0.0,0.0,0.0,0.0,0.0,0.0,0.0,0.0,0.0,0.0,0.0,0.0,0.0,0.0,0.0,0.0,0.0,0.0,0.0,0.0,0.0,0.0,0.0,0.0,0.0,0.0,0.0,0.0,0.0,0.0,0.0,0.0,0.0,0.0,-0.4486,-0.4761,-0.4099,-0.361,-0.3305,-0.2213,-0.1408,0.0,0.0,0.0,0.0,0.0,0.0,0.0,0.0,0.0,0.0,0.0,0.0,0.0,0.0,0.0,0.0,0.0,0.0,0.0,0.0,0.0,0.0,0.0,0.0,0.0,0.0,0.0,0.0,0.0,0.0,0.0,0.0,0.0,0.0,0.0,0.0,0.0,0.0,0.0,0.0,0.0,0.0,0.0,0.0,0.0,0.0,0.0,0.0,0.8424,0.0,0.0,0.0,0.0,0.0,0.0,0.0,0.0,0.0,0.0,0.0,0.0,0.0,0.0,0.0,0.0,0.0,0.0,0.0,0.0,0.0,0.0,0.0,0.0,0.0,0.0,0.0,0.0,0.0,0.0,0.0,0.0,0.0,0.0,0.0,0.0,0.0,0.0,0.0,0.0,0.0,0.0,0.0,0.0,0.0,0.0,0.0,0.0,0.0,0.0,0.0,0.0,0.0,0.0,0.0,0.0,0.0,0.0,0.0,-0.5319,-0.5706,-0.4875,-0.4293,-0.4097,-0.2999,-0.2079,0.0,0.0,0.0,0.0,0.0,0.0,0.0,0.0,0.0,0.0,0.0,0.0,0.0,0.0,0.0,0.0,0.0,0.0,0.0,0.0,0.0,0.0,0.0,0.0,0.0,0.0,0.0,0.0,0.0,0.0,0.0,0.0,0.0,0.0,0.0,0.0,0.0,0.0,0.0,0.0,0.0,0.0,0.0,0.0,0.0,0.0,0.0,0.0,0.0,0.0,0.0,0.0,0.0,0.0,0.0,0.0,0.0,0.0,0.0,0.0,0.0,0.0,0.0,0.0,0.0,0.0,0.0,0.0,0.0,0.0,0.0,0.0,0.0,0.0,0.0,0.0,0.0,0.0,0.0,0.0,0.0,0.0,0.0,0.0,0.0,0.0,0.0,0.0,0.0,0.0,0.0,0.0,0.0,0.0,0.0,0.0,0.0,0.0,0.0,0.0,0.0,0.0,0.0,0.0,0.0,0.0,0.0,-0.6077,-0.619,-0.6605,-0.5696,-0.5158,-0.5041,-0.3915,-0.2908,-0.2029,0.0,0.0,0.0,0.0,0.0,0.0,0.0,0.0,0.0,0.0,0.0,0.0,0.0,0.0,0.0,0.0,0.0,0.0,0.0,0.0,0.0,0.0,0.0,0.0,0.0,0.0,0.0,0.0,0.0,0.0,0.0,0.0,0.0,0.0,0.0,0.0,0.0,0.0,0.3947,0.4806,0.0,0.0,0.0,0.0,0.0,0.0,0.0,0.0,0.727,0.0,0.0,0.0,0.0,0.0,0.0,0.0,0.0,0.0,0.0,0.0,0.0,0.0,0.0,0.0,0.0,0.0,0.0,0.0,0.0,0.0,0.0,0.0,0.0,0.0,0.0,0.0,0.0,0.0,0.0,0.0,0.0,0.0,0.0,0.0,0.0,0.0,0.0,0.0,0.0,0.0,0.0,0.0,0.0,0.0,0.0,0.0,0.0,0.0,0.0,0.0,0.0,0.0,0.0,0.0,0.0,-0.6743,-0.6787,-0.6979,-0.7313,-0.6593,-0.6006,-0.5649,-0.469,-0.3904,-0.3285,0.0,0.0,0.0,0.0,0.0,0.0,0.0,0.0,0.0,0.0,0.0,0.0,0.0,0.0,0.0,0.0,0.0,0.0,0.0,0.0,0.0,0.0,0.0,0.0,0.0,0.0,0.0,0.0,0.0,0.0,0.0,0.0,0.0,0.0,0.0,0.0,0.0,0.0,0.0,0.4312,0.4752,0.0,0.0,0.0,0.0,0.0,0.0,0.0,0.0,0.6635,0.0,0.0,0.0,0.0,0.0,0.0,0.0,0.0,0.0,0.0,0.0,0.0,0.0,0.0,0.0,0.0,0.0,0.0,0.0,0.0,0.0,0.0,0.0,0.0,0.0,0.0,0.0,0.0,0.0,0.0,0.0,0.0,0.0,0.0,0.0,0.0,0.0,0.0,0.0,0.0,0.0,0.0,0.0,0.0,0.0,0.0,0.0,0.0,0.0,0.0,0.0,0.0,0.0,0.0,0.0,-0.734,-0.7442,-0.7679,-0.8085,-0.7328,-0.677,-0.6388,-0.5308,-0.4442,0.0,0.0,0.0,0.0,0.0,0.0,0.0,0.0,0.0,0.0,0.0,0.0,0.0,0.0,0.0,0.0,0.0,0.0,0.0,0.0,0.0,0.0,0.0,0.0,0.0,0.0,0.0,0.0,0.0,0.0,0.0,0.0,0.0,0.0,0.0,0.0,0.0,0.0,0.0,0.0,0.3389,0.3846,0.4308,0.0,0.0,0.0,0.0,0.0,0.0,0.5778,0.5776,0.0,0.0,0.0,0.0,0.0,0.0,0.0,0.0,0.0,0.0,0.0,0.0,0.0,0.0,0.0,0.0,0.0,0.0,0.0,0.0,0.0,0.0,0.0,0.0,0.0,0.0,0.0,0.0,0.0,0.0,0.0,0.0,0.0,0.0,0.0,0.0,0.0,0.0,0.0,0.0,0.0,0.0,0.0,0.0,0.0,0.0,0.0,0.0,0.0,0.0,0.0,0.0,0.0,0.0,0.0,-0.7871,-0.802,-0.828,-0.8641,-0.8,-0.7438,-0.7048,-0.5961,-0.4969,0.0,0.0,0.0,0.0,0.0,0.0,0.0,0.0,0.0,0.0,0.0,0.0,0.0,0.0,0.0,0.0,0.0,0.0,0.0,0.0,0.0,0.0,0.0,0.0,0.0,0.0,0.0,0.0,0.0,0.0,0.0,0.0,0.0,0.0,0.0,0.0,0.0,0.0,0.0,0.0,0.0,0.2819,0.3383,0.3823,0.0,0.0,0.0,0.0,0.5035,0.4967,0.0,0.0,0.0,0.0,0.0,0.0,0.0,0.0,0.0,0.0,0.0,0.0,0.0,0.0,0.0,0.0,0.0,0.0,0.0,0.0,0.0,0.0,0.0,0.0,0.0,0.0,0.0,0.0,0.0,0.0,0.0,0.0,0.0,0.0,0.0,0.0,0.0,0.0,0.0,0.0,0.0,0.0,0.0,0.0,0.0,0.0,0.0,0.0,0.0,0.0,0.0,0.0,0.0,0.0,0.0,0.0,-0.8074,-0.856,-0.8755,-0.873,-0.8505,-0.8131,-0.7523,-0.67,-0.5825,0.0,0.0,0.0,0.0,0.0,0.0,0.0,0.0,0.0,0.0,0.0,0.0,0.0,0.0,0.0,0.0,0.0,0.0,0.0,0.0,0.0,0.0,0.0,0.0,0.0,0.0,0.0,0.0,0.0,0.0,0.0,0.0,0.0,0.0,0.0,0.0,0.0,0.0,0.0,0.0,0.0,0.1698,0.2511,0.2749,0.2996,0.0,0.0,0.3795,0.3964,0.4124,0.0,0.0,0.0,0.0,0.0,0.0,0.0,0.0,0.0,0.0,0.0,0.0,0.0,0.0,0.0,0.0,0.0,0.0,0.0,0.0,0.0,0.0,0.0,0.0,0.0,0.0,0.0,0.0,0.0,0.0,0.0,0.0,0.0,0.0,0.0,0.0,0.0,0.0,0.0,0.0,0.0,0.0,0.0,0.0,0.0,0.0,0.0,0.0,0.0,0.0,0.0,0.0,0.0,0.0,0.0,-0.8063,-0.8621,-0.8918,-0.915,-0.9313,-0.8977,-0.8554,-0.8056,-0.722,-0.635,0.0,0.0,0.0,0.0,0.0,0.0,0.0,0.0,0.0,0.0,0.0,0.0,0.0,0.0,0.0,0.0,0.0,0.0,0.0,0.0,0.0,0.0,0.0,0.0,0.0,0.0,0.0,0.0,0.0,0.0,0.0,0.0,0.0,0.0,0.0,0.0,0.0,0.0,0.0,0.0,0.0,0.0,0.1323,0.167,0.0,0.0,0.0,0.2647,0.2715,0.0,0.0,0.0,0.0,0.0,0.0,0.0,0.0,0.0,0.0,0.0,0.0,0.0,0.0,0.0,0.0,0.0,0.0,0.0,0.0,0.0,0.0,0.0,0.0,0.0,0.0,0.0,0.0,0.0,0.0,0.0,0.0,0.0,0.0,0.0,0.0,0.0,0.0,0.0,0.0,0.0,0.0,0.0,0.0,0.0,0.0,0.0,0.0,0.0,0.0,0.0,0.0,0.0,0.0,0.0,0.0,0.0,-0.9119,-0.9256,-0.9503,-0.9771,-0.9352,-0.8909,-0.8541,-0.7741,0.0,0.0,0.0,0.0,0.0,0.0,0.0,0.0,0.0,0.0,0.0,0.0,0.0,0.0,0.0,0.0,0.0,0.0,0.0,0.0,0.0,0.0,0.0,0.0,0.0,0.0,0.0,-0.4836,0.0,0.0,0.0,0.0,0.0,0.0,0.0,0.0,0.0,0.0,0.0,0.0,0.0,0.0,-0.0299,0.0079,0.059,0.1021,0.0,0.0,0.158,0.1572,0.1821,0.2078,0.0,0.0,0.0,0.0,0.0,0.0,0.0,0.0,0.0,0.0,0.0,0.0,0.0,0.0,0.0,0.0,0.0,0.0,0.0,0.0,0.0,0.0,0.0,0.0,0.0,0.0,0.0,0.0,0.0,0.0,0.0,0.0,0.0,0.0,0.0,0.0,0.0,0.0,0.0,0.0,0.0,0.0,0.0,0.0,0.0,0.0,0.0,0.0,0.0,0.0,0.0,0.0,0.0,0.0,0.0,-0.9555,-0.9705,-0.9771,-0.9779,-0.9548,-0.9252,-0.8948,-0.8404,-0.7759,0.0,0.0,0.0,0.0,0.0,0.0,0.0,0.0,0.0,0.0,0.0,0.0,0.0,0.0,0.0,0.0,0.0,0.0,0.0,0.0,0.0,0.0,0.0,0.0,0.0,0.0,0.0,0.0,0.0,0.0,0.0,0.0,0.0,0.0,0.0,0.0,0.0,0.0,0.0,0.0,0.0,-0.1573,-0.1207,-0.0637,-0.0158,0.0,0.0,0.0685,0.0671,0.0681,0.0879,0.1295,0.0,0.0,0.0,0.0,0.0,0.0,0.0,0.0,0.0,0.0,0.0,0.0,0.0,0.0,0.0,0.0,0.0,0.0,0.0,0.0,0.0,0.0,0.0,0.0,0.0,0.0,0.0,0.0,0.0,0.0,0.0,0.0,0.0,0.0,0.0,0.0,0.0,0.0,0.0,0.0,0.0,0.0,0.0,0.0,0.0,0.0,0.0,0.0,0.0,0.0,0.0,0.0,0.0,-0.9562,-1.0053,-1.0189,-1.0218,-1.0184,-0.9913,-0.9611,-0.9264,-0.8666,-0.8157,0.0,0.0,0.0,0.0,0.0,0.0,0.0,0.0,0.0,0.0,0.0,0.0,0.0,0.0,0.0,0.0,0.0,0.0,0.0,0.0,0.0,0.0,0.0,0.0,0.0,0.0,0.0,0.0,-0.6378,-0.6313,-0.5774,0.0,0.0,0.0,0.0,0.0,0.0,0.0,0.0,0.0,0.0,-0.2579,-0.2383,-0.1773,0.0,0.0,-0.0893,-0.0729,-0.0763,-0.0646,-0.0439,0.0,0.0444,0.0,0.0,0.0,0.0,0.0,0.0,0.0,0.0,0.0,0.0,0.0,0.0,0.0,0.0,0.0,0.0,0.0,0.0,0.0,0.0,0.0,0.0,0.0,0.0,0.0,0.0,0.0,0.0,0.0,0.0,0.0,0.0,0.0,0.0,0.0,0.0,0.0,0.0,0.0,0.0,0.0,0.0,0.0,0.0,0.0,0.0,0.0,0.0,0.0,0.0,0.0,0.0,-1.0187,-1.0613,-1.0656,-1.0677,-1.0591,-1.0252,-0.9937,-0.9555,-0.9028,-0.8586,0.0,0.0,0.0,0.0,0.0,0.0,0.0,0.0,0.0,0.0,0.0,0.0,0.0,0.0,0.0,0.0,0.0,0.0,0.0,0.0,0.0,0.0,0.0,0.0,0.0,0.0,0.0,0.0,-0.6739,-0.6577,-0.5973,0.0,0.0,0.0,0.0,0.0,0.0,0.0,0.0,0.0,0.0,-0.3476,-0.3315,-0.2743,-0.2256,-0.2109,-0.2029,-0.1985,-0.1971,-0.1858,-0.1638,-0.122,0.0,0.0,0.0,0.0,0.0,0.0,0.0,0.0,0.0,0.0,0.0,0.0,0.0,0.0,0.0,0.0,0.0,0.0,0.0,0.0,0.0,0.0,0.0,0.0,0.0,0.0,0.0,0.0,0.0,0.0,-0.7171,0.0,0.0,0.0,0.0,0.0,0.0,0.0,0.0,0.0,0.0,0.0,0.0,0.0,0.0,0.0,0.0,0.0,0.0,0.0,0.0,0.0,0.0,-1.1025,-1.1262,-1.1221,-1.1182,-1.1093,-1.0593,-1.0175,-0.9906,-0.9575,-0.9173,-0.8759,0.0,0.0,0.0,0.0,0.0,0.0,0.0,0.0,0.0,0.0,0.0,0.0,0.0,0.0,0.0,0.0,0.0,0.0,0.0,0.0,0.0,0.0,0.0,0.0,0.0,0.0,-0.7151,-0.6845,-0.6496,0.0,0.0,0.0,0.0,0.0,0.0,0.0,0.0,0.0,0.0,-0.4471,-0.4226,-0.3925,-0.3423,-0.3049,-0.2916,-0.2882,-0.2858,-0.2799,-0.2839,-0.2715,0.0,0.0,0.0,0.0,0.0,0.0,0.0,0.0,0.0,0.0,0.0,0.0,0.0,0.0,0.0,0.0,0.0,0.0,0.0,0.0,0.0,0.0,0.0,0.0,0.0,0.0,0.0,-0.7096,-0.7131,0.0,0.0,0.0,0.0,0.0,0.0,0.0,0.0,0.0,0.0,0.0,-1.2459,-1.2798,0.0,0.0,0.0,0.0,0.0,0.0,0.0,0.0,0.0,0.0,0.0,0.0,-1.168,-1.1964,-1.1932,-1.184,-1.1601,-1.105,-1.057,-1.0188,-0.9756,-0.9259,-0.867,0.0,0.0,0.0,0.0,0.0,0.0,0.0,0.0,0.0,0.0,0.0,0.0,0.0,0.0,0.0,0.0,0.0,0.0,0.0,0.0,0.0,0.0,0.0,0.0,0.0,-0.7004,0.0,0.0,0.0,0.0,0.0,0.0,0.0,0.0,0.0,0.0,0.0,-0.5377,-0.5202,-0.5002,-0.4818,-0.4698,-0.4069,-0.3662,0.0,0.0,0.0,0.0,0.0,0.0,0.0,0.0,0.0,0.0,0.0,0.0,0.0,0.0,0.3549,0.4203,0.4613,0.5024,0.558,0.0,0.0,0.0,0.0,0.0,0.0,0.0,0.0,0.0,0.0,0.0,0.0,0.0,0.0,-0.7556,0.0,-0.7824,0.0,0.0,0.0,0.0,0.0,0.0,0.0,0.0,-1.2505,-1.3046,-1.3926,-1.4248,-1.4425,0.0,-1.4309,-1.3683,0.0,0.0,0.0,0.0,0.0,0.0,0.0,0.0,-1.2632,-1.2831,-1.2822,-1.2654,-1.2215,-1.1608,-1.1028,-1.054,-0.9991,-0.9474,-0.895,-0.8545,-0.811,0.0,0.0,0.0,0.0,0.0,0.0,0.0,0.0,0.0,0.0,0.0,0.0,0.0,0.0,0.0,0.0,0.0,0.0,0.0,0.0,0.0,0.0,0.0,-0.6822,0.0,0.0,0.0,0.0,0.0,0.0,0.0,0.0,0.0,-0.5561,-0.5682,-0.5782,-0.5686,-0.5458,-0.526,-0.5141,0.0,0.0,0.0,0.0,0.0,0.0,0.0,-0.4054,-0.3854,-0.3113,-0.2324,-0.1521,-0.0453,0.0494,0.1112,0.0,0.0,0.353,0.3975,0.4392,0.494,0.5511,0.6199,0.7068,0.816,0.9252,0.0,0.0,0.0,0.0,0.0,0.0,0.0,0.0,-0.814,-0.836,0.0,-0.8632,0.0,0.0,0.0,0.0,0.0,-1.1295,0.0,0.0,-1.3656,-1.4324,-1.5493,-1.5506,-1.5662,-1.5798,-1.5558,-1.5277,-1.4937,-1.3608,0.0,0.0,0.0,0.0,0.0,0.0,-1.3799,-1.3924,-1.3823,-1.3503,-1.2956,-1.2129,-1.1438,-1.0901,-1.0238,-0.9803,-0.9624,-0.9078,-0.8763,-0.8624,-0.8114,0.0,0.0,0.0,0.0,0.0,0.0,0.0,0.0,0.0,0.0,0.0,0.0,0.0,0.0,0.0,0.0,0.0,0.0,0.0,0.0,-0.66,0.0,0.0,0.0,0.0,0.0,0.0,0.0,0.0,0.0,0.0,-0.6016,-0.6013,-0.5985,-0.5938,0.0,0.0,0.0,0.0,-0.4874,-0.477,-0.4951,-0.5118,-0.5116,-0.4873,-0.4669,-0.4464,0.0,0.0,-0.1074,-0.0449,0.009,0.0763,0.1301,0.1983,0.2852,0.3449,0.4002,0.4464,0.4935,0.556,0.6392,0.7454,0.8433,-0.7634,0.0,0.0,0.0,0.0,-0.7385,-0.7678,-0.8157,-0.8453,-0.8672,-0.8836,-0.9249,0.0,0.0,0.0,0.0,0.0,0.0,-1.3616,-1.4671,-1.5067,-1.5554,-1.6071,-1.6256,-1.6404,-1.6453,-1.6373,-1.6286,-1.6179,-1.5618,-1.478,-1.3762,0.0,0.0,0.0,0.0,-1.4467,-1.4655,-1.428,-1.387,-1.3483,-1.2459,-1.1473,-1.0547,-1.0261,-0.9998,-0.9819,-0.9543,-0.9259,-0.8954,-0.8556,0.0,0.0,0.0,0.0,0.0,0.0,0.0,0.0,0.0,0.0,0.0,0.0,0.0,0.0,0.0,0.0,0.0,0.0,0.0,-0.6734,-0.6602,-0.6542,0.0,0.0,0.0,0.0,0.0,0.0,0.0,0.0,0.0,-0.6491,-0.641,-0.6403,0.0,0.0,-0.6135,-0.6049,-0.5767,-0.5579,-0.5696,-0.5569,0.0,-0.5664,-0.5394,-0.5127,-0.4933,-0.3844,-0.2698,-0.1732,-0.089,-0.0187,0.0187,0.0844,0.135,0.165,0.2443,0.3243,0.3783,0.4188,0.473,0.5689,0.682,0.79,-0.8286,-0.8007,-0.7604,-0.7587,-0.7784,-0.7828,-0.8097,-0.8492,-0.8733,-0.8967,-0.9218,-0.9632,-0.9879,-1.0051,-1.1048,0.0,0.0,0.0,-1.4785,-1.5777,-1.6121,-1.6428,-1.6798,-1.7003,-1.7054,-1.7054,-1.7054,-1.6994,-1.6881,-1.6757,-1.6167,-1.5144,0.0,0.0,-1.4998,-1.4935,-1.5105,-1.5488,-1.486,-1.4309,-1.3905,-1.2545,-1.1457,-1.07,-1.0486,-1.0286,-1.0111,-0.9933,-0.9673,-0.9324,-0.9082,-0.8755,0.0,0.0,0.0,0.0,0.0,0.0,0.0,0.0,0.0,0.0,0.0,-0.6648,-0.6511,0.0,0.0,0.0,-0.65,-0.6628,-0.6762,-0.6629,0.0,0.0,0.0,0.0,0.0,0.0,0.0,-0.6427,-0.6614,-0.6797,-0.6943,-0.6927,-0.682,-0.6797,-0.6615,-0.6528,-0.6645,0.0,-0.6204,-0.639,-0.6248,-0.612,-0.6114,-0.5865,-0.5496,-0.5045,-0.4014,-0.3047,-0.234,-0.1464,-0.083,-0.0488,0.0049,0.0537,0.0634,0.1304,0.2142,0.2864,0.3305,0.3852,0.4802,0.5834,0.6823,-0.8764,-0.873,-0.8319,-0.8208,-0.8357,-0.8357,-0.8546,-0.8895,-0.8948,-0.9211,-0.9669,-0.9816,-1.0192,-1.0872,-1.2226,0.0,-1.4453,-1.4955,-1.5758,-1.6814,-1.6873,-1.7173,-1.7649,-1.7649,-1.7655,-1.7655,-1.7655,-1.7508,-1.7286,-1.7273,-1.7061,-1.6727,-1.5939,-1.5658,-1.5844,-1.5604,-1.5708,-1.62,-1.5401,-1.469,-1.4105,-1.2495,-1.1459,-1.1126,-1.0857,-1.0615,-1.0403,-1.0278,-1.003,-0.9709,-0.9506,-0.9294,-0.8926,0.0,0.0,0.0,0.0,0.0,0.0,0.0,0.0,0.0,0.0,0.0,0.0,0.0,0.0,0.0,-0.663,0.0,-0.6719,-0.66,0.0,0.0,0.0,-0.6371,-0.6368,-0.658,-0.6753,-0.6753,0.0,0.0,-0.7419,-0.739,-0.7295,-0.6991,-0.681,-0.6771,-0.6989,-0.6877,-0.6793,-0.6932,-0.6941,-0.6853,-0.6591,-0.6331,-0.5767,-0.4939,-0.4081,-0.3413,-0.2908,-0.2216,-0.1615,-0.131,-0.0858,-0.0404,-0.0151,0.0151,0.0699,0.1783,0.2251,0.2777,0.374,0.4598,0.5406,-0.9222,-0.9211,-0.9106,-0.8886,-0.8604,-0.8604,-0.8746,-0.8941,-0.9156,-0.9377,-0.9526,-1.0014,-1.0858,-1.1901,-1.2857,-1.3829,-1.4642,-1.5608,-1.6418,-1.7107,-1.7508,-1.7942,-1.827,-1.827,-1.8277,-1.8277,-1.8277,-1.8123,-1.7842,-1.7782,-1.7562,-1.7105,-1.6884,-1.656,-1.6179,-1.6124,-1.5972,-1.5701,-1.5223,-1.4384,-1.3251,-1.2332,-1.1618,-1.1126,-1.0857,-1.0676,-1.0631,-1.0465,-1.0331,-1.0189,-0.9933,-0.9717,-0.9632,-0.9214,0.0,0.0,0.0,0.0,0.0,0.0,0.0,0.0,0.0,-0.6987,-0.6787,0.0,-0.6868,0.0,-0.6766,-0.6832,-0.6832,-0.6939,0.0,0.0,-0.6885,-0.6889,-0.6889,-0.7099,-0.7214,-0.7214,-0.7377,-0.7502,-0.7539,-0.7546,-0.7563,-0.759,-0.7459,-0.7372,-0.7446,-0.7406,-0.7416,-0.7422,-0.7375,-0.7234,-0.7151,-0.6686,-0.6067,-0.5202,-0.4558,-0.4016,-0.3475,-0.2723,-0.217,-0.2069,-0.1515,-0.1061,-0.0909,-0.0556,-0.005,0.0449,0.1046,0.1793,0.2637,0.3429,0.427,-0.9381,-0.9381,-0.9381,-0.9235,-0.9011,-0.9011,-0.9055,-0.9137,-0.9303,-0.9472,-0.9638,-1.0608,-1.1608,-1.2645,-1.3659,-1.4595,-1.5437,-1.6406,-1.7108,-1.7553,-1.8018,-1.833,-1.849,-1.8497,-1.8497,-1.8497,-1.8497,-1.841,-1.825,-1.8243,-1.8009,-1.7555,-1.7549,-1.7193,-1.6497,-1.6265,-1.5971,-1.5674,-1.4961,-1.4121,-1.3093,-1.2387,-1.1787,-1.135,-1.0911,-1.0692,-1.0692,-1.0599,-1.0513,-1.0383,-1.0241,-1.0091,-1.0006,-0.9702,-0.9316,0.0,0.0,0.0,0.0,0.0,0.0,0.0,0.0,0.0,0.0,0.0,-0.7097,-0.7023,-0.7139,-0.7227,-0.7227,-0.7253,-0.7267,-0.7234,-0.7253,-0.7346,-0.7301,-0.7478,-0.759,-0.7662,-0.7804,-0.7923,-0.798,-0.7991,-0.8021,-0.8099,-0.8041,-0.797,-0.7965,-0.795,-0.7991,-0.7997,-0.7959,-0.7761,-0.7563,-0.6859,-0.6236,-0.5779,-0.5263,-0.4803,-0.4391,-0.3719,-0.3196,-0.3017,-0.2452,-0.1937,-0.177,-0.1313,-0.0808,-0.0404,0.0101,0.0808,0.1665,0.2422,0.3175,-0.9435,-0.9435,-0.9439,-0.9439,-0.9439,-0.9435,-0.9415,-0.9381,-0.9381,-0.9555,-0.9957,-1.1109,-1.2201,-1.3179,-1.4375,-1.5389,-1.6239,-1.7204,-1.7775,-1.8079,-1.837,-1.8564,-1.8604,-1.8604,-1.8597,-1.8604,-1.8604,-1.8584,-1.8551,-1.8544,-1.8397,-1.8055,-1.8049,-1.7646,-1.6844,-1.6293,-1.5893,-1.5725,-1.4708,-1.3905,-1.3315,-1.2524,-1.1919,-1.1568,-1.0991,-1.0661,-1.0692,-1.0692,-1.0568,-1.0477,-1.0411,-1.0396,-1.0237,-1.0059,-0.9673,0.0,-0.8883,0.0,0.0,0.0,0.0,0.0,0.0,0.0,0.0,-0.7218,-0.7295,-0.7426,-0.7539,-0.7628,-0.7628,-0.7662,-0.7689,-0.7689,-0.7702,-0.7712,-0.7719,-0.7821,-0.795,-0.8032,-0.8218,-0.8343,-0.8442,-0.8535,-0.8531,-0.8507,-0.8469,-0.8431,-0.8408,-0.8443,-0.8435,-0.8535,-0.8482,-0.8115,-0.766,-0.6992,-0.6516,-0.6366,-0.5987,-0.5636,-0.5312,-0.4831,-0.4387,-0.407,-0.3536,-0.3055,-0.2699,-0.2137,-0.1579,-0.1071,-0.0714,-0.0153,0.086,0.1514,0.2017,-0.9741,-0.9741,-0.9737,-0.9737,-0.9741,-0.9737,-0.9602,-0.9381,-0.9381,-0.9726,-1.0243,-1.0989,-1.1972,-1.3184,-1.437,-1.5394,-1.6295,-1.7198,-1.7884,-1.8429,-1.8668,-1.8965,-1.9256,-1.9263,-1.9199,-1.9263,-1.9263,-1.9072,-1.8838,-1.8838,-1.8698,-1.841,-1.841,-1.8095,-1.7436,0.0,0.0,0.0,-1.445,-1.3916,-1.332,-1.2822,-1.2275,-1.1636,-1.0894,0.0,-1.07,-1.0476,-1.046,-1.0643,-1.0643,0.0,0.0,0.0,0.0,0.0,0.0,0.0,0.0,0.0,0.0,0.0,-0.7567,-0.7493,-0.7561,-0.7563,-0.7542,-0.7553,-0.7689,-0.777,-0.7773,-0.7997,-0.8147,-0.8147,-0.8245,-0.8316,-0.8316,-0.8336,-0.837,-0.8394,-0.8425,-0.8504,-0.8542,-0.8535,-0.8542,-0.8506,-0.8587,-0.8652,-0.8628,-0.855,-0.8542,-0.8482,-0.8295,-0.8019,-0.7651,-0.7284,-0.687,-0.6532,-0.6371,-0.6169,-0.5914,-0.5589,-0.5369,-0.5183,-0.4603,-0.4019,-0.3947,-0.311,-0.2316,-0.2003,-0.1476,-0.0784,0.0305,0.0808,0.1262,-0.9819,0.0,-0.9819,-0.9819,0.0,-0.9819,-0.9737,-0.9598,-0.9598,-0.9951,-1.0602,-1.1366,-1.2308,-1.3494,-1.4713,-1.5756,-1.6673,-1.7596,-1.8243,-1.8717,-1.9024,-1.9219,-1.9424,-1.9424,-1.9424,-1.9424,-1.9424,-1.9343,-1.9152,-1.9138,-1.8991,-1.8711,-1.8529,-1.8177,-1.7601,-1.652,-1.549,-1.4536,-1.4375,-1.3987,-1.3426,-1.3072,-1.2514,-1.169,-1.0985,0.0,0.0,0.0,0.0,0.0,0.0,0.0,0.0,-1.0108,0.0,-0.9359,-0.9021,-0.8697,-0.8463,-0.8148,-0.7984,-0.813,-0.8075,-0.8019,-0.8018,-0.7983,-0.796,-0.8028,-0.8102,-0.814,-0.8147,-0.8286,-0.8374,-0.8429,-0.849,-0.8535,-0.8535,-0.8535,-0.8513,-0.8584,-0.8598,-0.8621,-0.8699,-0.8706,-0.8706,-0.871,-0.8774,-0.8821,-0.8815,-0.876,-0.8656,-0.8538,-0.8218,-0.7897,-0.763,-0.7354,-0.7132,-0.6864,-0.681,-0.6647,-0.6381,-0.627,-0.6093,-0.5885,-0.5384,-0.4943,-0.4687,-0.4043,-0.3247,-0.2714,-0.213,-0.1431,-0.0468,0.0104,0.0571,-0.9819,-0.9819,-0.9819,-0.9819,-0.9819,-0.9819,-0.9819,-0.9819,0.0,0.0,0.0,-1.1812,-1.2779,-1.3748,-1.4997,-1.6129,-1.7114,-1.8006,-1.859,-1.8997,-1.9243,-1.9424,-1.9424,-1.9424,-1.9424,-1.9424,-1.9424,-1.9424,-1.9424,-1.9424,-1.9245,-1.8961,-1.8636,-1.8128,-1.7353,-1.5921,-1.4895,-1.4328,-1.4313,-1.4044,-1.3526,-1.3217,-1.2643,-1.1746,-1.1021,-1.0678,-1.0647,-1.059,-1.0701,-1.1047,-1.0691,-1.0447,-1.0386,-1.0006,-0.9639,-0.9355,-0.9189,-0.8979,-0.8706,-0.8567,-0.8492,-0.852,-0.8547,-0.8489,-0.8374,-0.8361,-0.8357,-0.8472,-0.8506,-0.852,-0.852,-0.855,-0.856,-0.8564,-0.8564,-0.8567,-0.8567,-0.8564,-0.8625,-0.8726,-0.875,-0.8794,-0.8906,-0.8923,-0.8937,-0.8881,-0.892,-0.8937,-0.8937,-0.892,-0.8796,-0.8514,-0.8229,-0.7922,-0.7657,-0.7365,-0.721,-0.7191,-0.7196,-0.7102,-0.6879,-0.6771,-0.6677,-0.6374,-0.6084,-0.578,-0.5498,-0.4951,-0.424,-0.3488,-0.2847,-0.215,-0.1344,-0.0645,-0.0107,-0.9819,-0.9819,-0.9819,-0.9819,-0.9819,-0.9819,-0.9819,-0.9822,-1.0122,-1.0425,-1.0849,-1.1752,-1.2779,-1.3748,-1.5002,-1.6242,-1.742,-1.8123,-1.8713,-1.9301,-1.9366,-1.9424,-1.9424,-1.9424,-1.9424,-1.9424,-1.9424,-1.9424,-1.9424,-1.9424,-1.9345,-1.9305,-1.9003,-1.8093,-1.6663,-1.5365,-1.442,-1.3832,-1.3886,-1.3806,-1.3526,-1.3128,-1.2552,-1.1701,-1.1032,-1.0508,-1.0366,-1.0077,-1.0073,-1.0416,-1.0336,-1.0213,-0.9918,-0.9713,-0.9515,-0.9222,-0.8917,-0.8763,-0.871,-0.857,-0.854,-0.8672,-0.8798,-0.8757,-0.8482,-0.8452,-0.8459,-0.8486,-0.8604,-0.8679,-0.8686,-0.8791,-0.8855,-0.8866,-0.8814,-0.8869,-0.8855,-0.8859,-0.8862,-0.8889,-0.8851,-0.8848,-0.893,-0.8937,-0.8937,-0.8937,-0.8937,-0.8937,-0.8937,-0.8937,-0.8768,-0.8543,-0.8211,-0.7934,-0.7604,-0.7382,-0.721,-0.721,-0.721,-0.721,-0.7102,-0.7102,-0.7035,-0.7019,-0.6732,-0.6506,-0.6431,-0.5833,-0.5153,-0.4597,-0.3878,-0.3107,-0.2218,-0.1498,-0.0772,-0.9819,-0.9819,-0.9819,-0.9819,-0.9819,-0.9819,-0.9819,-0.9822,-1.0183,-1.0486,-1.091,-1.1812,-1.2779,-1.3748,-1.5061,-1.6301,-1.7543,-1.8123,-1.8771,-1.9366,-1.9424,-1.9424,-1.9424,-1.9424,-1.9424,-1.9424,-1.9424,-1.9424,-1.9424,-1.9424,-1.9307,-1.912,-1.8473,-1.742,-1.6065,-1.511,-1.4217,-1.3444,-1.3677,-1.3635,-1.3346,-1.314,-1.2612,-1.1808,-1.1061,-1.0588,-1.0332,-1.0154,-1.0209,-1.0565,-1.031,-1.0087,-0.9966,-0.9647,-0.9448,-0.933,-0.915,-0.9039,-0.8957,-0.8815,-0.876,-0.8832,-0.8841,-0.8828,-0.8743,-0.873,-0.873,-0.873,-0.8798,-0.8835,-0.8835,-0.8841,-0.8937,-0.8937,-0.8937,-0.8937,-0.8937,-0.8937,-0.8937,-0.8937,-0.8937,-0.8937,-0.8937,-0.8937,-0.8937,-0.8937,-0.8937,-0.8937,-0.8937,-0.8881,-0.8712,-0.8322,-0.81,-0.7823,-0.7438,-0.7268,-0.721,-0.721,-0.721,-0.721,-0.721,-0.721,-0.721,-0.721,-0.7043,-0.6935,-0.6768,-0.6434,-0.5875,-0.526,-0.4761,-0.3923,-0.2971,-0.185,-0.0781,-0.9819,-0.9819,-0.9819,-0.9819,-0.9819,-0.9819,-0.9819,-0.9822,-1.0065,-1.0365,-1.0789,-1.1692,-1.2599,-1.3569,-1.4818,-1.6065,-1.725,-1.8006,-1.8648,-1.9249,-1.9366,-1.9424,-1.9424,-1.9424,-1.9424,-1.9424,-1.9424,-1.9424,-1.9424,-1.9424,-1.9185,-1.8706,-1.783,-1.6773,-1.5601,-1.4813,-1.3983,-1.3264,-1.3389,-1.3384,-1.3204,-1.3144,-1.2664,-1.1816,-1.1148,-1.0607,-1.0243,-1.0183,-1.0304,-1.0543,-1.0197,-1.001,-1.0007,-0.969,-0.9432,-0.9429,-0.9401,-0.933,-0.9268,-0.91,-0.9025,-0.8988,-0.8988,-0.8971,-0.8888,-0.8937,-0.8937,-0.8937,-0.8927,-0.8878,-0.893,-0.8933,-0.8937,-0.8937,-0.8937,-0.8937,-0.8937,-0.8937,-0.8937,-0.8937,-0.8937,-0.8937,-0.8937,-0.8937,-0.8937,-0.8937,-0.8937,-0.8937,-0.8937,-0.8937,-0.866,-0.8214,-0.7992,-0.7768,-0.7321,-0.721,-0.721,-0.721,-0.721,-0.721,-0.721,-0.721,-0.721,-0.721,-0.721,-0.7099,-0.6879,-0.6715,-0.6379,-0.5817,-0.5318,-0.4534,-0.3193,-0.1961,-0.0785,-0.9819,-0.9819,-0.9819,-0.9819,-0.9819,-0.9819,-0.9819,-0.9819,-0.9822,-1.0004,-1.0425,-1.1394,-1.2178,-1.29,-1.4152,-1.5461,-1.6649,-1.7525,-1.8344,-1.8939,-1.9249,-1.9424,-1.9424,-1.9424,-1.9424,-1.9424,-1.9424,-1.9424,-1.9366,-1.9366,-1.9068,-1.8421,-1.7531,-1.6591,-1.5596,-1.4406,-1.3564,-1.3204,-1.296,-1.2964,-1.32,-1.29,-1.2419,-1.1816,-1.1152,-1.0486,-0.9879,-0.9883,-0.9879,-0.9883,-0.9866,-0.9798,-0.9842,-0.9666,-0.9588,-0.9581,-0.9459,-0.9371,-0.9361,-0.9347,-0.9273,-0.921,-0.919,-0.9083,-0.8912,-0.8892,-0.894,-0.8944,-0.894,-0.8937,-0.8937,-0.8937,-0.8937,-0.8937,-0.8937,-0.8937,-0.8937,-0.8937,-0.8937,-0.8937,-0.8937,-0.8937,-0.8937,-0.8937,-0.8937,-0.8937,-0.8937,-0.8937,-0.8937,-0.8881,-0.8657,-0.8159,-0.7992,-0.7768,-0.7321,-0.721,-0.721,-0.721,-0.721,-0.721,-0.721,-0.721,-0.721,-0.721,-0.721,-0.7154,-0.7099,-0.6935,-0.6712,-0.6379,-0.5764,-0.4814,-0.3192,-0.2017,-0.1177,-0.9819,-0.9819,-0.9819,-0.9819,-0.9819,-0.9819,-0.9819,-0.9819,-0.9819,-1.0001,-1.0365,-1.097,-1.1756,-1.2779,-1.4033,-1.5283,-1.6537,-1.7461,-1.8286,-1.8881,-1.9243,-1.9424,-1.9424,-1.9424,-1.9424,-1.9424,-1.9424,-1.9301,-1.9068,-1.8726,-1.8434,-1.8083,-1.7185,-1.636,-1.5596,-1.453,-1.3748,-1.3204,-1.308,-1.3084,-1.314,-1.284,-1.2419,-1.1816,-1.1152,-1.0486,-0.9879,-0.9819,-0.9819,-0.9819,-0.9819,-0.9819,-0.9819,-0.9764,-0.9734,-0.9724,-0.9598,-0.9517,-0.9513,-0.9435,-0.9354,-0.9293,-0.9344,-0.9259,-0.9208,-0.9198,-0.9167,-0.9072,-0.8991,-0.8937,-0.8885,-0.8937,-0.8937,-0.8937,-0.8937,-0.8937,-0.8937,-0.8937,-0.8937,-0.8937,-0.8937,-0.8937,-0.8937,-0.8937,-0.8937,-0.8937,-0.8937,-0.8937,-0.8937,-0.8937,-0.8657,-0.8159,-0.7992,-0.7768,-0.7321,-0.721,-0.721,-0.721,-0.721,-0.721,-0.721,-0.721,-0.721,-0.721,-0.721,-0.721,-0.721,-0.7099,-0.6935,-0.6657,-0.5986,-0.4981,-0.3698,-0.2745,-0.1905,-0.9819,-0.9819,-0.9819,-0.9785,-0.9883,-0.9822,-0.991,-0.9947,-0.9947,-1.0132,-1.0436,-1.0862,-1.1719,-1.2921,-1.3916,-1.5046,-1.6295,-1.7297,-1.811,-1.8765,-1.9185,-1.9424,-1.9424,-1.9424,-1.9366,-1.9243,-1.9243,-1.912,-1.8771,-1.8252,-1.8037,-1.7855,-1.7015,-1.6183,-1.5542,-1.465,-1.3928,-1.3384,-1.3264,-1.3264,-1.3264,-1.2904,-1.2419,-1.1816,-1.1152,-1.0486,-0.9819,-0.9819,-0.9819,-0.9819,-0.9819,-0.9819,-0.9819,-0.9819,-0.9819,-0.9812,-0.9727,-0.9669,-0.9666,-0.9564,-0.9486,-0.9452,-0.9442,-0.9425,-0.9391,-0.9381,-0.9334,-0.9289,-0.912,-0.9049,-0.8888,-0.8937,-0.8937,-0.8937,-0.8937,-0.8937,-0.8937,-0.8937,-0.8937,-0.8937,-0.8937,-0.8937,-0.8937,-0.8937,-0.8937,-0.8937,-0.8937,-0.8937,-0.8937,-0.8881,-0.8716,-0.81,-0.7992,-0.7768,-0.7321,-0.721,-0.721,-0.721,-0.721,-0.721,-0.721,-0.721,-0.721,-0.721,-0.721,-0.721,-0.721,-0.7154,-0.7099,-0.6657,-0.6044,-0.5262,-0.4258,-0.3361,-0.2465,-0.9819,-0.9825,-0.9825,-0.9856,-0.9974,-0.9977,-1.012,-1.0229,-1.0243,-1.0439,-1.0805,-1.1429,-1.2318,-1.3287,-1.3756,-1.4476,-1.5731,-1.7038,-1.7914,-1.8557,-1.914,-1.9424,-1.9424,-1.9424,-1.9243,-1.8991,-1.8939,-1.8765,-1.8421,-1.8135,-1.8037,-1.7914,-1.6956,-1.6183,-1.5542,-1.465,-1.4052,-1.3629,-1.3384,-1.3384,-1.3569,-1.3024,-1.2419,-1.1816,-1.1152,-1.0486,-0.9883,-0.9819,-0.9819,-0.9819,-0.9819,-0.9819,-0.9819,-0.9819,-0.9819,-0.9819,-0.9812,-0.9805,-0.9802,-0.9785,-0.973,-0.9625,-0.9598,-0.954,-0.9439,-0.9425,-0.9408,-0.9374,-0.9357,-0.9245,-0.9015,-0.8971,-0.8957,-0.8954,-0.8888,-0.8937,-0.8937,-0.8937,-0.8937,-0.8937,-0.8937,-0.8937,-0.8937,-0.8937,-0.8937,-0.8937,-0.8937,-0.8937,-0.8937,-0.8937,-0.8602,-0.8211,-0.7934,-0.782,-0.7321,-0.721,-0.721,-0.721,-0.721,-0.721,-0.721,-0.721,-0.721,-0.721,-0.721,-0.721,-0.721,-0.7154,-0.7043,-0.6712,-0.6267,-0.5487,-0.476,-0.3527,-0.2688,-1.0025,-1.011,-1.0114,-1.0148,-1.0192,-1.0195,-1.0229,-1.034,-1.0343,-1.0598,-1.1102,-1.1597,-1.2599,-1.3971,-1.476,-1.5666,-1.6691,-1.7637,-1.8386,-1.8952,-1.9271,-1.9424,-1.9424,-1.9424,-1.9243,-1.8933,-1.8874,-1.8655,-1.8142,-1.7849,-1.755,-1.7321,-1.6779,-1.6124,-1.5353,-1.4709,-1.4232,-1.3748,-1.3753,-1.3813,-1.3688,-1.3264,-1.2659,-1.1812,-1.1152,-1.049,-0.9819,-0.9819,-0.9819,-0.9819,-0.9819,-0.9819,-0.9819,-0.9819,-0.9819,-0.9819,-0.9819,-0.9819,-0.9819,-0.9819,-0.9802,-0.9754,-0.9744,-0.972,-0.9676,-0.9659,-0.9625,-0.9551,-0.9527,-0.9425,-0.9262,-0.9137,-0.9079,-0.9066,-0.8994,-0.8895,-0.8937,-0.8937,-0.8937,-0.8937,-0.8937,-0.8937,-0.895,-0.8937,-0.8937,-0.8937,-0.8937,-0.8937,-0.8937,-0.8937,-0.866,-0.8159,-0.7992,-0.7823,-0.7265,-0.721,-0.721,-0.721,-0.721,-0.721,-0.721,-0.721,-0.721,-0.721,-0.721,-0.721,-0.721,-0.721,-0.7043,-0.6824,-0.6325,-0.5877,-0.5204,-0.4143,-0.3305,-1.0185,-1.0273,-1.0343,-1.0307,-1.0348,-1.0348,-1.0378,-1.0419,-1.0422,-1.0809,-1.1449,-1.2014,-1.3157,-1.4677,-1.6003,-1.7138,-1.7978,-1.8471,-1.8908,-1.9429,-1.9615,-1.9646,-1.9633,-1.9429,-1.92,-1.8888,-1.8564,-1.8246,-1.7843,-1.7608,-1.7315,-1.702,-1.6596,-1.5941,-1.517,-1.459,-1.4052,-1.3808,-1.3808,-1.3808,-1.3629,-1.3269,-1.2659,-1.1816,-1.1152,-1.0486,-0.9819,-0.9819,-0.9819,-0.9819,-0.9819,-0.9819,-0.9819,-0.9819,-0.9819,-0.9819,-0.9819,-0.9819,-0.9819,-0.9819,-0.9819,-0.9819,-0.9819,-0.9819,-0.9819,-0.9819,-0.9771,-0.9703,-0.968,-0.9629,-0.9527,-0.9391,-0.934,-0.9232,-0.9137,-0.9083,-0.9079,-0.903,-0.9089,-0.9096,-0.9103,-0.9072,-0.9018,-0.9011,-0.8988,-0.8895,-0.8937,-0.8937,-0.8937,-0.8881,-0.866,-0.8156,-0.7992,-0.7768,-0.7376,-0.721,-0.721,-0.721,-0.721,-0.721,-0.721,-0.721,-0.721,-0.721,-0.721,-0.721,-0.721,-0.721,-0.7102,-0.6882,-0.6604,-0.6212,-0.5541,-0.4873,-0.4033,-1.0287,-1.0307,-1.0287,-1.0385,-1.0487,-1.0493,-1.0578,-1.0677,-1.0694,-1.1135,-1.1779,-1.2791,-1.4,-1.5464,-1.7038,-1.8506,-1.929,-1.9323,-1.9537,-1.9815,-2.0066,-2.01,-2.0087,-1.9595,-1.9173,-1.8784,-1.7972,-1.755,-1.7543,-1.7485,-1.7309,-1.6961,-1.6419,-1.5763,-1.5056,-1.4227,-1.3748,-1.3629,-1.3449,-1.3449,-1.3564,-1.3144,-1.2539,-1.1816,-1.1148,-1.0486,-0.9822,-0.9819,-0.9819,-0.9819,-0.9819,-0.9819,-0.9819,-0.9819,-0.9819,-0.9819,-0.9819,-0.9819,-0.9819,-0.9819,-0.9819,-0.9819,-0.9819,-0.9819,-0.9819,-0.9819,-0.9812,-0.9798,-0.9798,-0.9798,-0.9771,-0.9666,-0.953,-0.9408,-0.9351,-0.933,-0.9347,-0.9367,-0.9371,-0.9347,-0.9334,-0.9306,-0.9258,-0.9214,-0.9117,-0.9028,-0.8977,-0.8967,-0.8967,-0.8957,-0.866,-0.8159,-0.7989,-0.7768,-0.7487,-0.721,-0.721,-0.721,-0.721,-0.721,-0.721,-0.721,-0.721,-0.721,-0.721,-0.721,-0.721,-0.721,-0.721,-0.7046,-0.6768,-0.649,-0.5989,-0.5375,-0.465,-1.0487,-1.0578,-1.0582,-1.0605,-1.0649,-1.0649,-1.068,-1.0721,-1.092,-1.1314,-1.1975,-1.3157,-1.452,-1.5884,-1.7383,-1.8682,-1.9896,-2.0085,-2.0299,-2.0356,-2.0273,-2.0072,-1.987,-1.9657,-1.9206,-1.8561,-1.8037,-1.7713,-1.7515,-1.7485,-1.725,-1.6661,-1.6295,-1.5526,-1.453,-1.3928,-1.3569,-1.3384,-1.3688,-1.3868,-1.3688,-1.3504,-1.2904,-1.1877,-1.1152,-1.0486,-0.9822,-0.9819,-0.9819,-0.9819,-0.9819,-0.9819,-0.9819,-0.9819,-0.9819,-0.9819,-0.9819,-0.9819,-0.9819,-0.9819,-0.9819,-0.9819,-0.9819,-0.9819,-0.9819,-0.9819,-0.9819,-0.9819,-0.9819,-0.9819,-0.9812,-0.9785,-0.9686,-0.9554,-0.9445,-0.9398,-0.9408,-0.9395,-0.9381,-0.9381,-0.9381,-0.9354,-0.9327,-0.931,-0.9286,-0.9225,-0.9147,-0.9086,-0.9076,-0.9015,-0.8663,-0.8159,-0.7989,-0.7829,-0.7432,-0.721,-0.721,-0.721,-0.721,-0.721,-0.721,-0.721,-0.721,-0.721,-0.721,-0.721,-0.721,-0.721,-0.721,-0.7099,-0.6877,-0.6657,-0.6379,-0.5875,-0.515,-1.0636,-1.0717,-1.0721,-1.0721,-1.0721,-1.0721,-1.0721,-1.0721,-1.1049,-1.1512,-1.2177,-1.3486,-1.4852,-1.6273,-1.7582,-1.881,-1.9909,-2.0354,-2.0637,-2.0648,-2.06,-2.0376,-1.9986,-1.9643,-1.9151,-1.8415,-1.8046,-1.7846,-1.763,-1.7527,-1.7185,-1.6532,-1.6124,-1.5353,-1.4232,-1.3629,-1.3264,-1.3269,-1.3449,-1.3688,-1.3629,-1.3444,-1.2844,-1.1877,-1.1148,-1.0482,-0.9879,-0.9819,-0.9819,-0.9819,-0.9819,-0.9819,-0.9819,-0.9819,-0.9819,-0.9819,-0.9819,-0.9819,-0.9819,-0.9819,-0.9819,-0.9819,-0.9819,-0.9819,-0.9819,-0.9819,-0.9819,-0.9819,-0.9819,-0.9819,-0.9819,-0.9819,-0.9774,-0.97,-0.9612,-0.9547,-0.9544,-0.9544,-0.9551,-0.9561,-0.9557,-0.952,-0.9483,-0.9466,-0.9439,-0.9388,-0.93,-0.9292,-0.9279,-0.9167,-0.8762,-0.837,-0.8136,-0.7835,-0.7329,-0.721,-0.721,-0.721,-0.721,-0.721,-0.721,-0.721,-0.721,-0.721,-0.721,-0.721,-0.721,-0.721,-0.721,-0.7043,-0.6988,-0.6821,-0.6599,-0.6379,-0.5764,-1.0721,-1.0721,-1.0721,-1.0721,-1.0721,-1.0721,-1.0721,-1.0787,-1.1118,-1.1648,-1.2441,-1.3752,-1.5183,-1.6543,-1.7846,-1.888,-1.9647,-2.0157,-2.0469,-2.0576,-2.0727,-2.0644,-2.0289,-1.96,-1.8939,-1.8428,-1.8107,-1.7961,-1.7817,-1.7593,-1.7132,-1.6537,-1.5893,-1.5121,-1.4172,-1.3204,-1.2904,-1.3084,-1.296,-1.3144,-1.3629,-1.314,-1.2483,-1.1816,-1.1152,-1.0486,-0.9883,-0.9819,-0.9819,-0.9819,-0.9819,-0.9819,-0.9819,-0.9819,-0.9819,-0.9819,-0.9819,-0.9819,-0.9819,-0.9819,-0.9819,-0.9819,-0.9819,-0.9819,-0.9819,-0.9819,-0.9819,-0.9819,-0.9819,-0.9819,-0.9819,-0.9819,-0.9812,-0.9819,-0.9774,-0.9774,-0.9808,-0.9798,-0.9768,-0.9781,-0.9805,-0.9771,-0.9635,-0.9622,-0.9561,-0.9476,-0.9425,-0.9398,-0.9381,-0.9283,-0.9009,-0.8667,-0.8322,-0.7862,-0.7415,-0.7222,-0.7214,-0.721,-0.721,-0.721,-0.721,-0.721,-0.721,-0.721,-0.721,-0.721,-0.721,-0.721,-0.721,-0.7154,-0.7099,-0.6988,-0.6821,-0.6601,-0.6323,-1.0721,-1.0721,-1.0721,-1.0721,-1.0721,-1.0721,-1.0721,-1.0784,-1.1383,-1.1912,-1.2634,-1.408,-1.5378,-1.6537,-1.7647,-1.8682,-1.9444,-1.9769,-2.0036,-2.0227,-2.0291,-2.0164,-1.9839,-1.9382,-1.8957,-1.8571,-1.8312,-1.8082,-1.7871,-1.763,-1.7197,-1.6537,-1.5893,-1.5002,-1.3868,-1.3084,-1.2779,-1.284,-1.3024,-1.3264,-1.3564,-1.3269,-1.2659,-1.1816,-1.1148,-1.0486,-0.9883,-0.9819,-0.9819,-0.9819,-0.9819,-0.9819,-0.9819,-0.9819,-0.9819,-0.9819,-0.9819,-0.9819,-0.9819,-0.9819,-0.9819,-0.9819,-0.9819,-0.9819,-0.9819,-0.9819,-0.9819,-0.9819,-0.9819,-0.9819,-0.9819,-0.9819,-0.9819,-0.9819,-0.9819,-0.9819,-0.9819,-0.9819,-0.9819,-0.9819,-0.9819,-0.9791,-0.9768,-0.9747,-0.9734,-0.968,-0.9612,-0.9551,-0.9537,-0.9473,-0.9237,-0.8726,-0.8262,-0.7907,-0.7567,-0.7366,-0.726,-0.7232,-0.721,-0.721,-0.721,-0.721,-0.721,-0.721,-0.721,-0.721,-0.721,-0.721,-0.721,-0.721,-0.7154,-0.7099,-0.7043,-0.6879,-0.6657,-1.0721,-1.0721,-1.0721,-1.0721,-1.0721,-1.0721,-1.0787,-1.0982,-1.1516,-1.2305,-1.3157,-1.4342,-1.5639,-1.6936,-1.7711,-1.8489,-1.9322,-1.9514,-1.9705,-1.9839,-1.9903,-1.9775,-1.9584,-1.9258,-1.8994,-1.8837,-1.8577,-1.8318,-1.8058,-1.7774,-1.7245,-1.6554,-1.6065,-1.5116,-1.3748,-1.3204,-1.2844,-1.2779,-1.2904,-1.3204,-1.3624,-1.3204,-1.2599,-1.1816,-1.1152,-1.0486,-0.9879,-0.9819,-0.9819,-0.9819,-0.9819,-0.9819,-0.9819,-0.9819,-0.9819,-0.9819,-0.9819,-0.9819,-0.9819,-0.9819,-0.9819,-0.9819,-0.9819,-0.9819,-0.9819,-0.9819,-0.9819,-0.9819,-0.9819,-0.9819,-0.9819,-0.9819,-0.9819,-0.9819,-0.9819,-0.9819,-0.9819,-0.9819,-0.9819,-0.9819,-0.9819,-0.9819,-0.9819,-0.9819,-0.9819,-0.9802,-0.9737,-0.971,-0.969,-0.9602,-0.935,-0.8784,-0.8398,-0.8108,-0.7668,-0.7388,-0.7331,-0.7244,-0.721,-0.721,-0.721,-0.721,-0.721,-0.721,-0.721,-0.721,-0.721,-0.721,-0.721,-0.721,-0.721,-0.7154,-0.7099,-0.7043,-0.6879,-1.0721,-1.0721,-1.0721,-1.0721,-1.0721,-1.0721,-1.085,-1.1185,-1.1582,-1.2503,-1.3613,-1.4534,-1.5774,-1.747,-1.7781,-1.8425,-1.9136,-1.9386,-1.9514,-1.9514,-1.9514,-1.952,-1.945,-1.9264,-1.9124,-1.8982,-1.8788,-1.8499,-1.8203,-1.7956,-1.7345,-1.6583,-1.6177,-1.517,-1.3923,-1.3269,-1.2964,-1.2719,-1.2719,-1.308,-1.3444,-1.3084,-1.2419,-1.1816,-1.097,-1.0365,-0.9943,-0.9819,-0.9819,-0.9819,-0.9819,-0.9819,-0.9819,-0.9819,-0.9819,-0.9819,-0.9819,-0.9819,-0.9819,-0.9819,-0.9819,-0.9819,-0.9819,-0.9819,-0.9819,-0.9819,-0.9819,-0.9819,-0.9819,-0.9819,-0.9819,-0.9819,-0.9819,-0.9819,-0.9819,-0.9819,-0.9819,-0.9819,-0.9819,-0.9819,-0.9819,-0.9819,-0.9819,-0.9819,-0.9819,-0.9819,-0.9788,-0.9778,-0.9771,-0.973,-0.9373,-0.886,-0.8587,-0.8379,-0.7917,-0.7464,-0.7339,-0.7317,-0.7254,-0.721,-0.721,-0.721,-0.721,-0.721,-0.721,-0.721,-0.721,-0.721,-0.721,-0.721,-0.721,-0.721,-0.721,-0.7154,-0.7046,-1.0721,-1.0721,-1.0721,-1.0721,-1.0721,-1.0721,-1.0721,-1.0853,-1.1516,-1.2301,-1.3214,-1.4338,-1.5709,-1.7136,-1.7717,-1.8425,-1.9014,-1.92,-1.92,-1.92,-1.92,-1.92,-1.92,-1.9136,-1.9136,-1.8976,-1.8595,-1.836,-1.8197,-1.7865,-1.725,-1.6554,-1.5946,-1.5056,-1.3863,-1.3209,-1.2779,-1.2719,-1.2719,-1.302,-1.3384,-1.3024,-1.2419,-1.1696,-1.0668,-1.0001,-0.9883,-0.9819,-0.9819,-0.9819,-0.9819,-0.9819,-0.9819,-0.9819,-0.9819,-0.9819,-0.9819,-0.9819,-0.9819,-0.9819,-0.9819,-0.9819,-0.9819,-0.9819,-0.9819,-0.9819,-0.9819,-0.9819,-0.9819,-0.9819,-0.9819,-0.9819,-0.9819,-0.9819,-0.9819,-0.9819,-0.9819,-0.9819,-0.9819,-0.9819,-0.9819,-0.9819,-0.9819,-0.9819,-0.9819,-0.9819,-0.9819,-0.9819,-0.9819,-0.9819,-0.9421,-0.8887,-0.876,-0.8537,-0.7974,-0.7557,-0.7382,-0.7347,-0.723,-0.721,-0.721,-0.721,-0.721,-0.721,-0.721,-0.721,-0.721,-0.721,-0.721,-0.721,-0.721,-0.721,-0.721,-0.721,-0.721,-1.0656,-1.0717,-1.0721,-1.0721,-1.0721,-1.0721,-1.0787,-1.1049,-1.1516,-1.2367,-1.3346,-1.4338,-1.5513,-1.7007,-1.7523,-1.8173,-1.8758,-1.9014,-1.9136,-1.9136,-1.9136,-1.9136,-1.9136,-1.9136,-1.9066,-1.9006,-1.8686,-1.8438,-1.8209,-1.7829,-1.7322,-1.6543,-1.6005,-1.5056,-1.3863,-1.3209,-1.2779,-1.2535,-1.2659,-1.29,-1.3084,-1.29,-1.2178,-1.1394,-1.0365,-0.9819,-0.9819,-0.9819,-0.9819,-0.9819,-0.9819,-0.9819,-0.9819,-0.9819,-0.9819,-0.9819,-0.9819,-0.9819,-0.9819,-0.9819,-0.9819,-0.9819,-0.9819,-0.9819,-0.9819,-0.9819,-0.9819,-0.9819,-0.9819,-0.9819,-0.9819,-0.9819,-0.9819,-0.9819,-0.9819,-0.9819,-0.9819,-0.9819,-0.9819,-0.9819,-0.9819,-0.9819,-0.9819,-0.9819,-0.9819,-0.9819,-0.9819,-0.9819,-0.9819,-0.9761,-0.9457,-0.907,-0.8961,-0.8627,-0.8015,-0.7652,-0.7486,-0.7366,-0.7233,-0.7232,-0.721,-0.721,-0.721,-0.721,-0.721,-0.721,-0.721,-0.721,-0.721,-0.721,-0.721,-0.721,-0.721,-0.721,-0.721,-1.0568,-1.0687,-1.0711,-1.0721,-1.0721,-1.0721,-1.085,-1.1118,-1.1516,-1.2367,-1.3551,-1.4076,-1.5248,-1.6618,-1.7265,-1.7857,-1.8507,-1.895,-1.9136,-1.9136,-1.9136,-1.9136,-1.9136,-1.9136,-1.903,-1.8994,-1.8692,-1.8469,-1.8257,-1.7913,-1.7227,-1.656,-1.6059,-1.5051,-1.3928,-1.3264,-1.2779,-1.2354,-1.2539,-1.2779,-1.2844,-1.2719,-1.2118,-1.097,-1.0183,-0.9819,-0.9819,-0.9819,-0.9819,-0.9819,-0.9819,-0.9819,-0.9819,-0.9819,-0.9819,-0.9819,-0.9819,-0.9819,-0.9819,-0.9819,-0.9819,-0.9819,-0.9819,-0.9819,-0.9819,-0.9819,-0.9819,-0.9819,-0.9819,-0.9819,-0.9819,-0.9819,-0.9819,-0.9819,-0.9819,-0.9819,-0.9819,-0.9819,-0.9819,-0.9819,-0.9819,-0.9819,-0.9819,-0.9819,-0.9819,-0.9819,-0.9819,-0.9819,-0.9819,-0.97,-0.9457,-0.9217,-0.9037,-0.861,-0.8063,-0.7731,-0.7565,-0.7459,-0.7304,-0.7228,-0.7243,-0.7218,-0.7218,-0.7213,-0.721,-0.721,-0.721,-0.721,-0.721,-0.721,-0.721,-0.721,-0.721,-0.721,-0.721,-1.0507,-1.0538,-1.0666,-1.0717,-1.0717,-1.0717,-1.0714,-1.085,-1.1181,-1.1776,-1.2634,-1.3551,-1.4791,-1.6034,-1.6812,-1.7658,-1.8437,-1.8816,-1.9008,-1.9008,-1.9014,-1.9078,-1.9072,-1.9024,-1.8951,-1.8722,-1.8493,-1.8318,-1.8106,-1.7523,-1.6984,-1.6431,-1.5704,-1.4699,-1.3744,-1.308,-1.2539,-1.2178,-1.2419,-1.2719,-1.2844,-1.2599,-1.1997,-1.0849,-1.0122,-0.9819,-0.9819,-0.9819,-0.9819,-0.9819,-0.9819,-0.9819,-0.9819,-0.9819,-0.9819,-0.9819,-0.9819,-0.9819,-0.9819,-0.9819,-0.9819,-0.9819,-0.9819,-0.9819,-0.9819,-0.9819,-0.9819,-0.9819,-0.9819,-0.9819,-0.9819,-0.9819,-0.9819,-0.9819,-0.9819,-0.9819,-0.9819,-0.9819,-0.9819,-0.9819,-0.9819,-0.9819,-0.9819,-0.9819,-0.9819,-0.9819,-0.9819,-0.9819,-0.9819,-0.9758,-0.9579,-0.9335,-0.9095,-0.8546,-0.7983,-0.7826,-0.7649,-0.7587,-0.7459,-0.7326,-0.7269,-0.7198,-0.7226,-0.7218,-0.7213,-0.721,-0.721,-0.721,-0.721,-0.721,-0.721,-0.721,-0.721,-0.721,-0.721,-1.031,-1.0392,-1.0463,-1.0534,-1.0595,-1.0602,-1.0649,-1.0784,-1.1049,-1.1578,-1.2371,-1.3288,-1.4268,-1.5453,-1.6364,-1.7335,-1.8109,-1.8431,-1.8489,-1.8559,-1.8758,-1.8828,-1.885,-1.8888,-1.8819,-1.8595,-1.8306,-1.8088,-1.8034,-1.7399,-1.6796,-1.6183,-1.5348,-1.4277,-1.326,-1.2539,-1.2118,-1.1937,-1.2178,-1.2423,-1.2432,-1.2062,-1.1333,-1.0849,-1.0183,-0.9819,-0.9819,-0.9819,-0.9819,-0.9819,-0.9819,-0.9819,-0.9819,-0.9819,-0.9819,-0.9819,-0.9819,-0.9819,-0.9819,-0.9819,-0.9819,-0.9819,-0.9819,-0.9819,-0.9819,-0.9819,-0.9819,-0.9819,-0.9819,-0.9819,-0.9819,-0.9819,-0.9819,-0.9819,-0.9819,-0.9819,-0.9819,-0.9819,-0.9819,-0.9819,-0.9819,-0.9819,-0.9819,-0.9819,-0.9819,-0.9819,-0.9819,-0.9819,-0.9819,-0.9758,-0.97,-0.9275,-0.8973,-0.8543,-0.8047,-0.7856,-0.7733,-0.7679,-0.7592,-0.7459,-0.7298,-0.7285,-0.7209,-0.7218,-0.7215,-0.7268,-0.721,-0.721,-0.721,-0.721,-0.7265,-0.7265,-0.721,-0.721,-0.7265,-1.012,-1.0236,-1.027,-1.0348,-1.0439,-1.0449,-1.0534,-1.0722,-1.0934,-1.1479,-1.2243,-1.2894,-1.3748,-1.4926,-1.6039,-1.7141,-1.791,-1.7975,-1.8033,-1.8103,-1.8361,-1.8495,-1.8557,-1.8548,-1.8551,-1.8372,-1.8015,-1.7817,-1.7679,-1.715,-1.656,-1.5887,-1.4992,-1.3913,-1.284,-1.2238,-1.1696,-1.1575,-1.1816,-1.2001,-1.1764,-1.1277,-1.0849,-1.0732,-1.0122,-0.9819,-0.9819,-0.9819,-0.9819,-0.9819,-0.9819,-0.9819,-0.9819,-0.9819,-0.9819,-0.9819,-0.9819,-0.9819,-0.9819,-0.9819,-0.9819,-0.9819,-0.9819,-0.9819,-0.9819,-0.9819,-0.9819,-0.9819,-0.9819,-0.9819,-0.9819,-0.9819,-0.9819,-0.9819,-0.9819,-0.9819,-0.9819,-0.9819,-0.9819,-0.9819,-0.9819,-0.9819,-0.9819,-0.9819,-0.9819,-0.9819,-0.9819,-0.9819,-0.9819,-0.9819,-0.964,-0.9217,-0.8851,-0.8424,-0.8099,-0.7881,-0.7782,-0.7763,-0.7674,-0.7559,-0.7459,-0.7315,-0.7298,-0.7281,-0.7329,-0.7379,-0.7324,-0.7379,-0.7487,-0.7543,-0.7432,-0.7432,-0.749,-0.7546,-0.7546,-0.9997,-1.009,-1.0222,-1.029,-1.03,-1.0307,-1.0388,-1.0507,-1.0582,-1.1057,-1.1867,-1.2355,-1.3193,-1.4581,-1.6159,-1.7077,-1.7464,-1.7717,-1.7759,-1.7736,-1.7929,-1.8012,-1.8167,-1.8258,-1.8119,-1.7936,-1.7576,-1.7468,-1.7194,-1.6694,-1.6188,-1.5531,-1.458,-1.3688,-1.2539,-1.1877,-1.1635,-1.1394,-1.1635,-1.1937,-1.1997,-1.1514,-1.1031,-1.0668,-1.0183,-0.9819,-0.9819,-0.9819,-0.9819,-0.9819,-0.9819,-0.9819,-0.9819,-0.9819,-0.9819,-0.9819,-0.9819,-0.9819,-0.9819,-0.9819,-0.9819,-0.9819,-0.9819,-0.9819,-0.9819,-0.9819,-0.9819,-0.9819,-0.9819,-0.9819,-0.9819,-0.9819,-0.9819,-0.9819,-0.9819,-0.9819,-0.9819,-0.9819,-0.9819,-0.9819,-0.9819,-0.9819,-0.9819,-0.9819,-0.9819,-0.9819,-0.9819,-0.9819,-0.9819,-0.9819,-0.964,-0.9217,-0.8976,-0.8607,-0.8238,-0.8016,-0.7884,-0.7884,-0.7758,-0.766,-0.7576,-0.7483,-0.7388,-0.7371,-0.7466,-0.7744,-0.7917,-0.797,-0.7946,-0.7931,-0.7931,-0.7931,-0.7934,-0.7878,-0.7934,-0.9859,-0.9924,-0.9992,-1.0073,-1.0148,-1.0148,-1.0232,-1.0351,-1.0375,-1.0795,-1.1493,-1.188,-1.2959,-1.4549,-1.5774,-1.6299,-1.6618,-1.6791,-1.6786,-1.6888,-1.7047,-1.7248,-1.7202,-1.7488,-1.761,-1.7311,-1.6957,-1.6453,-1.6241,-1.6023,-1.5591,-1.4753,-1.3858,-1.2844,-1.1997,-1.1269,-1.0906,-1.0849,-1.1091,-1.1514,-1.1635,-1.1212,-1.0668,-1.0482,-1.0061,-0.9819,-0.9819,-0.9819,-0.9819,-0.9819,-0.9819,-0.9819,-0.9819,-0.9819,-0.9819,-0.9819,-0.9819,-0.9819,-0.9819,-0.9819,-0.9819,-0.9819,-0.9819,-0.9819,-0.9819,-0.9819,-0.9819,-0.9819,-0.9819,-0.9819,-0.9819,-0.9819,-0.9819,-0.9819,-0.9819,-0.9819,-0.9819,-0.9819,-0.9819,-0.9819,-0.9819,-0.9819,-0.9819,-0.9819,-0.9819,-0.9819,-0.9819,-0.9819,-0.9819,-0.9819,-0.9579,-0.9278,-0.9095,-0.8915,-0.8549,-0.823,-0.8036,-0.7975,-0.7911,-0.7821,-0.769,-0.76,-0.7624,-0.7763,-0.8085,-0.8317,-0.8551,-0.8539,-0.8436,-0.8484,-0.8484,-0.8595,-0.865,-0.854,-0.8537,-0.9819,-0.9819,-0.9819,-0.9825,-0.9926,-0.993,-1.008,-1.0215,-1.0226,-1.0559,-1.1221,-1.1739,-1.2885,-1.4148,-1.4814,-1.5243,-1.5589,-1.5609,-1.5583,-1.5732,-1.5976,-1.63,-1.6478,-1.6829,-1.6969,-1.6691,-1.6295,-1.5742,-1.5191,-1.4753,-1.4391,-1.3794,-1.3075,-1.2178,-1.1273,-1.0728,-1.0425,-1.0425,-1.0728,-1.1091,-1.1273,-1.0793,-1.0429,-1.0243,-1.0001,-0.9819,-0.9819,-0.9819,-0.9819,-0.9819,-0.9819,-0.9819,-0.9819,-0.9819,-0.9819,-0.9819,-0.9819,-0.9819,-0.9819,-0.9819,-0.9819,-0.9819,-0.9819,-0.9819,-0.9819,-0.9819,-0.9819,-0.9819,-0.9819,-0.9819,-0.9819,-0.9819,-0.9819,-0.9819,-0.9819,-0.9819,-0.9819,-0.9819,-0.9819,-0.9819,-0.9819,-0.9819,-0.9819,-0.9819,-0.9819,-0.9819,-0.9819,-0.9819,-0.9819,-0.9819,-0.9579,-0.9335,-0.9217,-0.9095,-0.8793,-0.8488,-0.8302,-0.818,-0.8055,-0.7911,-0.7895,-0.7886,-0.7923,-0.8184,-0.8672,-0.9081,-0.9458,-0.9241,-0.9034,-0.9309,-0.953,-0.942,-0.942,-0.9364,-0.9364,-0.9819,-0.9819,-0.9819,-0.9768,-0.9842,-0.9836,-0.9927,-1.0063,-1.0004,-1.0325,-1.0984,-1.1842,-1.2653,-1.3397,-1.3947,-1.4285,-1.4485,-1.4529,-1.4601,-1.4909,-1.5239,-1.5494,-1.5833,-1.6145,-1.6363,-1.6088,-1.5596,-1.4992,-1.4212,-1.3435,-1.308,-1.2719,-1.2234,-1.1631,-1.1031,-1.0429,-1.0304,-1.0304,-1.0547,-1.0728,-1.0785,-1.0486,-1.0304,-1.0186,-1.0001,-0.9819,-0.9819,-0.9819,-0.9819,-0.9819,-0.9819,-0.9819,-0.9819,-0.9819,-0.9819,-0.9819,-0.9819,-0.9819,-0.9819,-0.9819,-0.9819,-0.9819,-0.9819,-0.9819,-0.9819,-0.9819,-0.9819,-0.9819,-0.9819,-0.9819,-0.9819,-0.9819,-0.9819,-0.9819,-0.9819,-0.9819,-0.9819,-0.9819,-0.9819,-0.9819,-0.9819,-0.9819,-0.9819,-0.9819,-0.9819,-0.9819,-0.9819,-0.9819,-0.9819,-0.9758,-0.964,-0.9457,-0.9396,-0.9217,-0.8973,-0.879,-0.8671,-0.8488,-0.8363,-0.8238,-0.803,-0.8147,-0.8381,-0.8913,-0.9401,-0.9896,-1.0371,-1.0488,-1.056,-1.0551,-1.0578,-1.0574,-1.0574,-1.0519,-1.0578,-0.9819,-0.9819,-0.9819,-0.9819,-0.9819,-0.9819,-0.9856,-0.99,-0.9849,-1.0241,-1.0878,-1.1763,-1.2445,-1.2906,-1.3327,-1.3555,-1.3546,-1.3739,-1.3657,-1.3766,-1.4085,-1.4597,-1.5023,-1.5496,-1.5796,-1.5423,-1.4932,-1.4212,-1.3255,-1.2479,-1.1752,-1.139,-1.1329,-1.1027,-1.0547,-1.0186,-1.0122,-1.0243,-1.0243,-1.0304,-1.0425,-1.0183,-1.0001,-1.0004,-0.994,-0.9819,-0.9819,-0.9819,-0.9819,-0.9819,-0.9819,-0.9819,-0.9819,-0.9819,-0.9819,-0.9819,-0.9819,-0.9819,-0.9819,-0.9819,-0.9819,-0.9819,-0.9819,-0.9819,-0.9819,-0.9819,-0.9819,-0.9819,-0.9819,-0.9819,-0.9819,-0.9819,-0.9819,-0.9819,-0.9819,-0.9819,-0.9819,-0.9819,-0.9819,-0.9819,-0.9819,-0.9819,-0.9819,-0.9819,-0.9819,-0.9819,-0.9819,-0.9819,-0.9819,-0.9819,-0.97,-0.9579,-0.9518,-0.9457,-0.9217,-0.9095,-0.9037,-0.8854,-0.8671,-0.8546,-0.8482,-0.8778,-0.9077,-0.962,-1.0328,-1.1016,-1.154,-1.1907,-1.1933,-1.172,-1.1654,-1.1723,-1.1728,-1.1732,-1.1732,-0.9819,-0.9819,-0.9819,-0.9819,-0.9819,-0.9819,-0.9819,-0.9819,-0.9825,-1.0126,-1.0675,-1.1348,-1.1767,-1.2114,-1.2366,-1.249,-1.2349,-1.2403,-1.2472,-1.272,-1.3209,-1.3751,-1.4276,-1.4714,-1.5082,-1.4694,-1.4152,-1.3435,-1.2479,-1.1696,-1.1091,-1.0668,-1.0425,-1.0304,-1.0183,-0.994,-0.994,-1.0001,-1.0001,-0.9879,-1.0122,-0.994,-0.9822,-0.9822,-0.9819,-0.9819,-0.9819,-0.9819,-0.9819,-0.9819,-0.9819,-0.9819,-0.9819,-0.9819,-0.9819,-0.9819,-0.9819,-0.9819,-0.9819,-0.9819,-0.9819,-0.9819,-0.9819,-0.9819,-0.9819,-0.9819,-0.9819,-0.9819,-0.9819,-0.9819,-0.9819,-0.9819,-0.9819,-0.9819,-0.9819,-0.9819,-0.9819,-0.9819,-0.9819,-0.9819,-0.9819,-0.9819,-0.9819,-0.9819,-0.9819,-0.9819,-0.9819,-0.9819,-0.9819,-0.9819,-0.9758,-0.9761,-0.9761,-0.964,-0.9518,-0.9457,-0.9339,-0.9156,-0.8976,-0.8976,-0.9034,-0.9335,-0.9819,-1.0428,-1.12,-1.2141,-1.27,-1.3131,-1.2941,-1.2652,-1.2631,-1.2654,-1.2713,-1.2713,-1.2822,-0.9819,-0.9819,-0.9819,-0.9819,-0.9819,-0.9819,-0.9819,-0.9819,-0.9819,-1.0004,-1.0365,-1.0515,-1.0694,-1.1005,-1.1237,-1.1248,-1.1183,-1.116,-1.1259,-1.1809,-1.2479,-1.3042,-1.3638,-1.4107,-1.4286,-1.3684,-1.32,-1.2599,-1.1816,-1.1031,-1.0486,-1.0243,-1.0061,-0.9943,-0.9822,-0.9819,-0.9822,-0.9822,-0.9819,-0.9822,-0.9822,-0.9822,-0.9819,-0.9819,-0.9819,-0.9819,-0.9819,-0.9819,-0.9819,-0.9819,-0.9819,-0.9819,-0.9819,-0.9819,-0.9819,-0.9819,-0.9819,-0.9819,-0.9819,-0.9819,-0.9819,-0.9819,-0.9819,-0.9819,-0.9819,-0.9819,-0.9819,-0.9819,-0.9819,-0.9819,-0.9819,-0.9819,-0.9819,-0.9819,-0.9819,-0.9819,-0.9819,-0.9819,-0.9819,-0.9819,-0.9819,-0.9819,-0.9819,-0.9819,-0.9819,-0.9819,-0.9819,-0.9819,-0.9819,-0.9819,-0.9819,-0.9819,-0.9819,-0.9761,-0.964,-0.97,-0.964,-0.94,-0.9339,-0.9339,-0.9518,-0.9819,-1.0422,-1.1148,-1.2192,-1.3186,-1.3751,-1.4281,-1.4065,-1.379,-1.3461,-1.3478,-1.3586,-1.3694,-1.3797,-0.9819,-0.9819,-0.9819,-0.9819,-0.9819,-0.9819,-0.9819,-0.9819,-0.9822,-1.0001,-1.0243,-1.0308,-1.049,-1.0732,-1.0728,-1.0668,-1.0547,-1.0728,-1.097,-1.091,-1.1692,-1.2238,-1.2779,-1.3264,-1.3449,-1.302,-1.2539,-1.1877,-1.1152,-1.0486,-1.0183,-1.0001,-0.9879,-0.9819,-0.9819,-0.9819,-0.9819,-0.9819,-0.9819,-0.9819,-0.9819,-0.9819,-0.9819,-0.9819,-0.9819,-0.9819,-0.9819,-0.9819,-0.9819,-0.9819,-0.9819,-0.9819,-0.9819,-0.9819,-0.9819,-0.9819,-0.9819,-0.9819,-0.9819,-0.9819,-0.9819,-0.9819,-0.9819,-0.9819,-0.9819,-0.9819,-0.9819,-0.9819,-0.9819,-0.9819,-0.9819,-0.9819,-0.9819,-0.9819,-0.9819,-0.9819,-0.9819,-0.9819,-0.9819,-0.9819,-0.9819,-0.9819,-0.9819,-0.9819,-0.9819,-0.9819,-0.9819,-0.9819,-0.9819,-0.9819,-0.9819,-0.9819,-0.9819,-0.9819,-0.9819,-0.9819,-0.9819,-0.964,-0.964,-0.9761,-1.0001,-1.0365,-1.1148,-1.1997,-1.3126,-1.4187,-1.4739,-1.5178,-1.521,-1.5016,-1.4598,-1.4337,-1.4396,-1.4504,-1.4606,-0.9819,-0.9819,-0.9819,-0.9819,-0.9819,-0.9819,-0.9819,-0.9819,-0.9819,-0.994,-1.0061,-1.0126,-1.0247,-1.0368,-1.0429,-1.0365,-1.0186,-1.0304,-1.0547,-1.0365,-1.1031,-1.1575,-1.1997,-1.2359,-1.2479,-1.2234,-1.1872,-1.1269,-1.0668,-1.0304,-1.0065,-0.9883,-0.9819,-0.9819,-0.9819,-0.9819,-0.9819,-0.9819,-0.9819,-0.9819,-0.9819,-0.9819,-0.9819,-0.9819,-0.9819,-0.9819,-0.9819,-0.9819,-0.9819,-0.9819,-0.9819,-0.9819,-0.9819,-0.9819,-0.9819,-0.9819,-0.9819,-0.9819,-0.9819,-0.9819,-0.9819,-0.9819,-0.9819,-0.9819,-0.9819,-0.9819,-0.9819,-0.9819,-0.9819,-0.9819,-0.9819,-0.9819,-0.9819,-0.9819,-0.9819,-0.9819,-0.9819,-0.9819,-0.9819,-0.9819,-0.9819,-0.9819,-0.9819,-0.9819,-0.9819,-0.9819,-0.9819,-0.9819,-0.9819,-0.9819,-0.9819,-0.9819,-0.9819,-0.9819,-0.9819,-0.9819,-0.9819,-0.9819,-0.9879,-1.0061,-1.0668,-1.1091,-1.1997,-1.29,-1.3854,-1.4852,-1.5644,-1.6006,-1.6023,-1.5906,-1.5623,-1.5367,-1.5248,-1.5202,-1.5202,-0.9819,-0.9819,-0.9819,-0.9819,-0.9819,-0.9819,-0.9819,-0.9819,-0.9819,-0.9819,-0.9819,-0.9819,-0.9879,-0.9819,-0.9883,-0.9883,-0.9883,-0.9879,-1.0061,-1.0304,-1.0668,-1.097,-1.1273,-1.1635,-1.1635,-1.1333,-1.1031,-1.0785,-1.0304,-1.0061,-0.9883,-0.9822,-0.9819,-0.9819,-0.9819,-0.9819,-0.9819,-0.9819,-0.9819,-0.9819,-0.9819,-0.9819,-0.9819,-0.9819,-0.9819,-0.9819,-0.9819,-0.9819,-0.9819,-0.9819,-0.9819,-0.9819,-0.9819,-0.9819,-0.9819,-0.9819,-0.9819,-0.9819,-0.9819,-0.9819,-0.9819,-0.9819,-0.9819,-0.9819,-0.9819,-0.9819,-0.9819,-0.9819,-0.9819,-0.9819,-0.9819,-0.9819,-0.9819,-0.9819,-0.9819,-0.9819,-0.9819,-0.9819,-0.9819,-0.9819,-0.9819,-0.9819,-0.9819,-0.9819,-0.9819,-0.9819,-0.9819,-0.9819,-0.9819,-0.9819,-0.9819,-0.9819,-0.9819,-0.9819,-0.9819,-0.9819,-0.9819,-0.9819,-1.0122,-1.0365,-1.1031,-1.1816,-1.2599,-1.3439,-1.4515,-1.5456,-1.6315,-1.6745,-1.6795,-1.6619,-1.6307,-1.5991,-1.5711,-1.5571,-1.5523,-0.9819,-0.9819,-0.9819,-0.9819,-0.9819,-0.9819,-0.9819,-0.9819,-0.9819,-0.9819,-0.9819,-0.9819,-0.9819,-0.9819,-0.9819,-0.9819,-0.9819,-0.9819,-0.9883,-1.0065,-1.0304,-1.0486,-1.0668,-1.091,-1.0849,-1.0668,-1.0425,-1.0304,-1.0001,-0.9819,-0.9819,-0.9819,-0.9819,-0.9819,-0.9819,-0.9819,-0.9819,-0.9819,-0.9819,-0.9819,-0.9819,-0.9819,-0.9819,-0.9819,-0.9819,-0.9819,-0.9819,-0.9819,-0.9819,-0.9819,-0.9819,-0.9819,-0.9819,-0.9819,-0.9819,-0.9819,-0.9819,-0.9819,-0.9819,-0.9819,-0.9819,-0.9819,-0.9819,-0.9819,-0.9819,-0.9819,-0.9819,-0.9819,-0.9819,-0.9819,-0.9819,-0.9819,-0.9819,-0.9819,-0.9819,-0.9819,-0.9819,-0.9819,-0.9819,-0.9819,-0.9819,-0.9819,-0.9819,-0.9819,-0.9819,-0.9819,-0.9819,-0.9819,-0.9819,-0.9819,-0.9819,-0.9819,-0.9819,-0.9819,-0.9819,-0.9819,-0.9819,-0.9819,-1.0183,-1.0607,-1.1273,-1.2057,-1.3015,-1.4152,-1.5289,-1.6242,-1.7062,-1.7241,-1.7203,-1.7083,-1.6786,-1.6498,-1.6234,-1.5976,-1.5779,-0.9819,-0.9819,-0.9819,-0.9819,-0.9819,-0.9819,-0.9819,-0.9819,-0.9819,-0.9819,-0.9819,-0.9819,-0.9819,-0.9819,-0.9819,-0.9819,-0.9819,-0.9819,-0.9822,-0.9879,-1.0001,-1.0061,-1.0186,-1.0308,-1.0243,-1.0122,-1.0061,-1.0001,-0.9819,-0.9819,-0.9819,-0.9819,-0.9819,-0.9819,-0.9819,-0.9819,-0.9819,-0.9819,-0.9819,-0.9819,-0.9819,-0.9819,-0.9819,-0.9819,-0.9819,-0.9819,-0.9819,-0.9819,-0.9819,-0.9819,-0.9819,-0.9819,-0.9819,-0.9819,-0.9819,-0.9819,-0.9819,-0.9819,-0.9819,-0.9819,-0.9819,-0.9819,-0.9819,-0.9819,-0.9819,-0.9819,-0.9819,-0.9819,-0.9819,-0.9819,-0.9819,-0.9819,-0.9819,-0.9819,-0.9819,-0.9819,-0.9819,-0.9819,-0.9819,-0.9819,-0.9819,-0.9819,-0.9819,-0.9819,-0.9819,-0.9819,-0.9819,-0.9819,-0.9819,-0.9819,-0.9819,-0.9819,-0.9819,-0.9819,-0.9819,-0.9819,-0.9822,-0.994,-1.0304,-1.0789,-1.1454,-1.2539,-1.3739,-1.4992,-1.6188,-1.6897,-1.7361,-1.742,-1.74,-1.728,-1.7153,-1.6911,-1.656,-1.6283,-1.6085,-0.9819,-0.9819,-0.9819,-0.9819,-0.9819,-0.9819,-0.9819,-0.9819,-0.9819,-0.9819,-0.9819,-0.9819,-0.9819,-0.9819,-0.9819,-0.9819,-0.9819,-0.9819,-0.9819,-0.9819,-0.9819,-0.9879,-0.9879,-0.9819,-0.994,-0.9879,-0.9819,-0.9879,-0.9819,-0.9819,-0.9819,-0.9819,-0.9819,-0.9819,-0.9819,-0.9819,-0.9819,-0.9819,-0.9819,-0.9819,-0.9819,-0.9819,-0.9819,-0.9819,-0.9819,-0.9819,-0.9819,-0.9819,-0.9819,-0.9819,-0.9819,-0.9819,-0.9819,-0.9819,-0.9819,-0.9819,-0.9819,-0.9819,-0.9819,-0.9819,-0.9819,-0.9819,-0.9819,-0.9819,-0.9819,-0.9819,-0.9819,-0.9819,-0.9819,-0.9819,-0.9819,-0.9819,-0.9819,-0.9819,-0.9819,-0.9819,-0.9819,-0.9819,-0.9819,-0.9819,-0.9819,-0.9819,-0.9819,-0.9819,-0.9819,-0.9819,-0.9819,-0.9819,-0.9819,-0.9819,-0.9819,-0.9819,-0.9819,-0.9819,-0.9819,-0.9822,-0.9822,-1.0065,-1.0486,-1.1148,-1.1877,-1.314,-1.452,-1.5591,-1.6655,-1.7015,-1.742,-1.7479,-1.7473,-1.7418,-1.7292,-1.7159,-1.6911,-1.661,-1.6338,-0.9819,-0.9819,-0.9819,-0.9819,-0.9819,-0.9819,-0.9819,-0.9819,-0.9819,-0.9819,-0.9819,-0.9819,-0.9819,-0.9819,-0.9819,-0.9819,-0.9819,-0.9819,-0.9819,-0.9819,-0.9819,-0.9819,-0.9819,-0.9819,-0.9819,-0.9819,-0.9819,-0.9819,-0.9819,-0.9819,-0.9819,-0.9819,-0.9819,-0.9819,-0.9819,-0.9819,-0.9819,-0.9819,-0.9819,-0.9819,-0.9819,-0.9819,-0.9819,-0.9819,-0.9819,-0.9819,-0.9819,-0.9819,-0.9819,-0.9819,-0.9819,-0.9819,-0.9819,-0.9819,-0.9819,-0.9819,-0.9819,-0.9819,-0.9819,-0.9819,-0.9819,-0.9819,-0.9819,-0.9819,-0.9819,-0.9819,-0.9819,-0.9819,-0.9819,-0.9819,-0.9819,-0.9819,-0.9819,-0.9819,-0.9819,-0.9819,-0.9819,-0.9819,-0.9819,-0.9819,-0.9819,-0.9819,-0.9819,-0.9819,-0.9819,-0.9819,-0.9819,-0.9819,-0.9819,-0.9819,-0.9819,-0.9819,-0.9819,-0.9819,-0.9819,-0.9819,-0.9883,-1.0243,-1.0668,-1.1454,-1.2359,-1.3913,-1.5407,-1.6118,-1.6891,-1.7244,-1.7426,-1.7485,-1.7473,-1.7461,-1.743,-1.7292,-1.7165,-1.6911,-1.661,-0.9819,-0.9819,-0.9819,-0.9819,-0.9819,-0.9819,-0.9819,-0.9819,-0.9819,-0.9819,-0.9819,-0.9819,-0.9819,-0.9819,-0.9819,-0.9819,-0.9819,-0.9819,-0.9819,-0.9819,-0.9819,-0.9819,-0.9819,-0.9819,-0.9819,-0.9819,-0.9819,-0.9819,-0.9819,-0.9819,-0.9819,-0.9819,-0.9819,-0.9819,-0.9819,-0.9819,-0.9819,-0.9819,-0.9819,-0.9819,-0.9819,-0.9819,-0.9819,-0.9819,-0.9819,-0.9819,-0.9819,-0.9819,-0.9819,-0.9819,-0.9819,-0.9819,-0.9819,-0.9819,-0.9819,-0.9819,-0.9819,-0.9819,-0.9819,-0.9819,-0.9819,-0.9819,-0.9819,-0.9819,-0.9819,-0.9819,-0.9819,-0.9819,-0.9819,-0.9819,-0.9819,-0.9819,-0.9819,-0.9819,-0.9819,-0.9819,-0.9819,-0.9819,-0.9819,-0.9819,-0.9819,-0.9819,-0.9819,-0.9819,-0.9819,-0.9819,-0.9819,-0.9819,-0.9819,-0.9819,-0.9819,-0.9819,-0.9819,-0.9819,-0.9819,-0.9879,-0.994,-1.0365,-1.091,-1.2109,-1.325,-1.4803,-1.6177,-1.6655,-1.7015,-1.7303,-1.7485,-1.7485,-1.7485,-1.7473,-1.7461,-1.7418,-1.7298,-1.7171,-1.6917,-0.9819,-0.9819,-0.9819,-0.9819,-0.9819,-0.9819,-0.9819,-0.9819,-0.9819,-0.9819,-0.9819,-0.9819,-0.9819,-0.9819,-0.9819,-0.9819,-0.9819,-0.9819,-0.9819,-0.9819,-0.9819,-0.9819,-0.9819,-0.9819,-0.9819,-0.9819,-0.9819,-0.9819,-0.9819,-0.9819,-0.9819,-0.9819,-0.9819,-0.9819,-0.9819,-0.9819,-0.9819,-0.9819,-0.9819,-0.9819,-0.9819,-0.9819,-0.9819,-0.9819,-0.9819,-0.9819,-0.9819,-0.9819,-0.9819,-0.9819,-0.9819,-0.9819,-0.9819,-0.9819,-0.9819,-0.9819,-0.9819,-0.9819,-0.9819,-0.9819,-0.9819,-0.9819,-0.9819,-0.9819,-0.9819,-0.9819,-0.9819,-0.9819,-0.9819,-0.9819,-0.9819,-0.9819,-0.9819,-0.9819,-0.9819,-0.9819,-0.9819,-0.9819,-0.9819,-0.9819,-0.9819,-0.9819,-0.9819,-0.9819,-0.9819,-0.9819,-0.9819,-0.9819,-0.9819,-0.9819,-0.9819,-0.9819,-0.9819,-0.9819,-0.9819,-0.9879,-0.994,-1.0486,-1.1148,-1.2646,-1.4023,-1.5402,-1.636,-1.6844,-1.7197,-1.7426,-1.7485,-1.7485,-1.7485,-1.7485,-1.7473,-1.7455,-1.7424,-1.7298,-1.7177,-0.9819,-0.9819,-0.9819,-0.9819,-0.9819,-0.9819,-0.9819,-0.9819,-0.9819,-0.9819,-0.9819,-0.9819,-0.9819,-0.9819,-0.9819,-0.9819,-0.9819,-0.9819,-0.9819,-0.9819,-0.9819,-0.9819,-0.9819,-0.9819,-0.9819,-0.9819,-0.9819,-0.9819,-0.9819,-0.9819,-0.9819,-0.9819,-0.9819,-0.9819,-0.9819,-0.9819,-0.9819,-0.9819,-0.9819,-0.9819,-0.9819,-0.9819,-0.9819,-0.9819,-0.9819,-0.9819,-0.9819,-0.9819,-0.9819,-0.9819,-0.9819,-0.9819,-0.9819,-0.9819,-0.9819,-0.9819,-0.9819,-0.9819,-0.9819,-0.9819,-0.9819,-0.9819,-0.9819,-0.9819,-0.9819,-0.9819,-0.9819,-0.9819,-0.9819,-0.9819,-0.9819,-0.9819,-0.9819,-0.9819,-0.9819,-0.9819,-0.9819,-0.9819,-0.9819,-0.9819,-0.9819,-0.9819,-0.9819,-0.9819,-0.9819,-0.9819,-0.9819,-0.9819,-0.9819,-0.9819,-0.9819,-0.9819,-0.9819,-0.9819,-0.9819,-0.9879,-1.0061,-1.0607,-1.1511,-1.3131,-1.451,-1.5639,-1.6478,-1.702,-1.7256,-1.7426,-1.7485,-1.7485,-1.7485,-1.7485,-1.7485,-1.7473,-1.7461,-1.7424,-1.7304]}]]